<?xml version="1.0" encoding="UTF-8" standalone="no" ?>
<gpx xmlns="http://www.topografix.com/GPX/1/1" xmlns:xsi="http://www.w3.org/2001/XMLSchema-instance" xsi:schemaLocation="http://www.topografix.com/GPX/1/1 http://www.topografix.com/GPX/1/1/gpx.xsd" version="1.1" creator="VisuGPX - https://www.visugpx.com">
  <metadata>
    <name>Escaunets vtt</name>
    <desc><![CDATA[randonnée d\'Escaunets, 47,5kms assez roulante sans reelle dificulté, jolie parcours avec quelques routes de goudron, single avec ruisseau a traverser . Jolie vue sur la chaine des pyrenees.]]></desc>
  </metadata>
  <trk>
    <name><![CDATA[2010-09-19T07:09:41Z]]></name>
    <trkseg>
      <trkpt lat="43.34565" lon="-0.08026">
        <ele>356.3057861</ele>
        <time>2010-09-19T07:09:41Z</time>
      </trkpt>
      <trkpt lat="43.34565" lon="-0.08028">
        <ele>355.8251953</ele>
        <time>2010-09-19T07:09:43Z</time>
      </trkpt>
      <trkpt lat="43.34565" lon="-0.08044">
        <ele>356.3057861</ele>
        <time>2010-09-19T07:09:51Z</time>
      </trkpt>
      <trkpt lat="43.34567" lon="-0.08057">
        <ele>354.3831787</ele>
        <time>2010-09-19T07:09:59Z</time>
      </trkpt>
      <trkpt lat="43.34563" lon="-0.08068">
        <ele>354.3831787</ele>
        <time>2010-09-19T07:10:06Z</time>
      </trkpt>
      <trkpt lat="43.34555" lon="-0.08071">
        <ele>355.3444824</ele>
        <time>2010-09-19T07:10:11Z</time>
      </trkpt>
      <trkpt lat="43.34546" lon="-0.08072">
        <ele>354.8637695</ele>
        <time>2010-09-19T07:10:18Z</time>
      </trkpt>
      <trkpt lat="43.34546" lon="-0.08071">
        <ele>356.3057861</ele>
        <time>2010-09-19T07:10:25Z</time>
      </trkpt>
      <trkpt lat="43.34548" lon="-0.0807">
        <ele>356.3057861</ele>
        <time>2010-09-19T07:10:34Z</time>
      </trkpt>
      <trkpt lat="43.34545" lon="-0.08071">
        <ele>356.3057861</ele>
        <time>2010-09-19T07:10:54Z</time>
      </trkpt>
      <trkpt lat="43.34543" lon="-0.0807">
        <ele>356.3057861</ele>
        <time>2010-09-19T07:11:01Z</time>
      </trkpt>
      <trkpt lat="43.34542" lon="-0.0807">
        <ele>356.786377</ele>
        <time>2010-09-19T07:11:10Z</time>
      </trkpt>
      <trkpt lat="43.34541" lon="-0.08068">
        <ele>361.1124268</ele>
        <time>2010-09-19T07:11:24Z</time>
      </trkpt>
      <trkpt lat="43.3454" lon="-0.08071">
        <ele>360.6317139</ele>
        <time>2010-09-19T07:11:43Z</time>
      </trkpt>
      <trkpt lat="43.34537" lon="-0.08074">
        <ele>361.1124268</ele>
        <time>2010-09-19T07:11:53Z</time>
      </trkpt>
      <trkpt lat="43.34539" lon="-0.08073">
        <ele>363.5157471</ele>
        <time>2010-09-19T07:12:07Z</time>
      </trkpt>
      <trkpt lat="43.34535" lon="-0.08073">
        <ele>363.9963379</ele>
        <time>2010-09-19T07:12:28Z</time>
      </trkpt>
      <trkpt lat="43.34531" lon="-0.08077">
        <ele>363.9963379</ele>
        <time>2010-09-19T07:12:43Z</time>
      </trkpt>
      <trkpt lat="43.34531" lon="-0.08078">
        <ele>364.4769287</ele>
        <time>2010-09-19T07:12:45Z</time>
      </trkpt>
      <trkpt lat="43.34531" lon="-0.08079">
        <ele>361.5931396</ele>
        <time>2010-09-19T07:12:52Z</time>
      </trkpt>
      <trkpt lat="43.3453" lon="-0.0808">
        <ele>361.1124268</ele>
        <time>2010-09-19T07:12:53Z</time>
      </trkpt>
      <trkpt lat="43.34533" lon="-0.08098">
        <ele>359.6704102</ele>
        <time>2010-09-19T07:13:00Z</time>
      </trkpt>
      <trkpt lat="43.34545" lon="-0.08125">
        <ele>358.2283936</ele>
        <time>2010-09-19T07:13:06Z</time>
      </trkpt>
      <trkpt lat="43.34561" lon="-0.08146">
        <ele>355.8251953</ele>
        <time>2010-09-19T07:13:12Z</time>
      </trkpt>
      <trkpt lat="43.34568" lon="-0.08154">
        <ele>354.8637695</ele>
        <time>2010-09-19T07:13:17Z</time>
      </trkpt>
      <trkpt lat="43.34569" lon="-0.08157">
        <ele>354.3831787</ele>
        <time>2010-09-19T07:13:19Z</time>
      </trkpt>
      <trkpt lat="43.3457" lon="-0.08164">
        <ele>353.9025879</ele>
        <time>2010-09-19T07:13:23Z</time>
      </trkpt>
      <trkpt lat="43.34571" lon="-0.08175">
        <ele>353.421875</ele>
        <time>2010-09-19T07:13:30Z</time>
      </trkpt>
      <trkpt lat="43.34569" lon="-0.08195">
        <ele>352.9411621</ele>
        <time>2010-09-19T07:13:38Z</time>
      </trkpt>
      <trkpt lat="43.34568" lon="-0.08218">
        <ele>352.9411621</ele>
        <time>2010-09-19T07:13:43Z</time>
      </trkpt>
      <trkpt lat="43.34576" lon="-0.0826">
        <ele>353.421875</ele>
        <time>2010-09-19T07:13:51Z</time>
      </trkpt>
      <trkpt lat="43.34584" lon="-0.08304">
        <ele>352.9411621</ele>
        <time>2010-09-19T07:13:58Z</time>
      </trkpt>
      <trkpt lat="43.34583" lon="-0.08359">
        <ele>352.9411621</ele>
        <time>2010-09-19T07:14:06Z</time>
      </trkpt>
      <trkpt lat="43.3458" lon="-0.0841">
        <ele>351.9798584</ele>
        <time>2010-09-19T07:14:14Z</time>
      </trkpt>
      <trkpt lat="43.34567" lon="-0.08426">
        <ele>351.9798584</ele>
        <time>2010-09-19T07:14:18Z</time>
      </trkpt>
      <trkpt lat="43.34562" lon="-0.08426">
        <ele>351.9798584</ele>
        <time>2010-09-19T07:14:19Z</time>
      </trkpt>
      <trkpt lat="43.34513" lon="-0.08409">
        <ele>352.9411621</ele>
        <time>2010-09-19T07:14:29Z</time>
      </trkpt>
      <trkpt lat="43.34476" lon="-0.08403">
        <ele>353.421875</ele>
        <time>2010-09-19T07:14:36Z</time>
      </trkpt>
      <trkpt lat="43.3443" lon="-0.08398">
        <ele>353.421875</ele>
        <time>2010-09-19T07:14:44Z</time>
      </trkpt>
      <trkpt lat="43.34393" lon="-0.08387">
        <ele>352.9411621</ele>
        <time>2010-09-19T07:14:50Z</time>
      </trkpt>
      <trkpt lat="43.34339" lon="-0.08358">
        <ele>351.9798584</ele>
        <time>2010-09-19T07:14:59Z</time>
      </trkpt>
      <trkpt lat="43.34316" lon="-0.0836">
        <ele>351.4991455</ele>
        <time>2010-09-19T07:15:03Z</time>
      </trkpt>
      <trkpt lat="43.34298" lon="-0.08383">
        <ele>351.4991455</ele>
        <time>2010-09-19T07:15:07Z</time>
      </trkpt>
      <trkpt lat="43.34256" lon="-0.08451">
        <ele>350.5378418</ele>
        <time>2010-09-19T07:15:17Z</time>
      </trkpt>
      <trkpt lat="43.34246" lon="-0.08462">
        <ele>351.0184326</ele>
        <time>2010-09-19T07:15:19Z</time>
      </trkpt>
      <trkpt lat="43.34212" lon="-0.08478">
        <ele>352.4605713</ele>
        <time>2010-09-19T07:15:24Z</time>
      </trkpt>
      <trkpt lat="43.34166" lon="-0.08494">
        <ele>351.9798584</ele>
        <time>2010-09-19T07:15:30Z</time>
      </trkpt>
      <trkpt lat="43.34118" lon="-0.0851">
        <ele>350.057251</ele>
        <time>2010-09-19T07:15:36Z</time>
      </trkpt>
      <trkpt lat="43.34093" lon="-0.08524">
        <ele>350.5378418</ele>
        <time>2010-09-19T07:15:40Z</time>
      </trkpt>
      <trkpt lat="43.34062" lon="-0.08535">
        <ele>348.1346436</ele>
        <time>2010-09-19T07:15:46Z</time>
      </trkpt>
      <trkpt lat="43.34057" lon="-0.08536">
        <ele>348.1346436</ele>
        <time>2010-09-19T07:15:47Z</time>
      </trkpt>
      <trkpt lat="43.3403" lon="-0.0854">
        <ele>348.6152344</ele>
        <time>2010-09-19T07:15:53Z</time>
      </trkpt>
      <trkpt lat="43.33998" lon="-0.0855">
        <ele>349.5765381</ele>
        <time>2010-09-19T07:16:00Z</time>
      </trkpt>
      <trkpt lat="43.33969" lon="-0.08557">
        <ele>351.0184326</ele>
        <time>2010-09-19T07:16:06Z</time>
      </trkpt>
      <trkpt lat="43.33925" lon="-0.08554">
        <ele>351.0184326</ele>
        <time>2010-09-19T07:16:15Z</time>
      </trkpt>
      <trkpt lat="43.33869" lon="-0.08553">
        <ele>349.5765381</ele>
        <time>2010-09-19T07:16:25Z</time>
      </trkpt>
      <trkpt lat="43.33824" lon="-0.08549">
        <ele>348.6152344</ele>
        <time>2010-09-19T07:16:33Z</time>
      </trkpt>
      <trkpt lat="43.33796" lon="-0.08541">
        <ele>348.1346436</ele>
        <time>2010-09-19T07:16:39Z</time>
      </trkpt>
      <trkpt lat="43.33764" lon="-0.08533">
        <ele>346.2120361</ele>
        <time>2010-09-19T07:16:44Z</time>
      </trkpt>
      <trkpt lat="43.33705" lon="-0.08523">
        <ele>343.8085938</ele>
        <time>2010-09-19T07:16:52Z</time>
      </trkpt>
      <trkpt lat="43.33653" lon="-0.08519">
        <ele>342.84729</ele>
        <time>2010-09-19T07:16:59Z</time>
      </trkpt>
      <trkpt lat="43.33612" lon="-0.08513">
        <ele>343.8085938</ele>
        <time>2010-09-19T07:17:05Z</time>
      </trkpt>
      <trkpt lat="43.33571" lon="-0.08506">
        <ele>344.2894287</ele>
        <time>2010-09-19T07:17:11Z</time>
      </trkpt>
      <trkpt lat="43.3352" lon="-0.085">
        <ele>343.8085938</ele>
        <time>2010-09-19T07:17:19Z</time>
      </trkpt>
      <trkpt lat="43.33496" lon="-0.08486">
        <ele>345.7313232</ele>
        <time>2010-09-19T07:17:24Z</time>
      </trkpt>
      <trkpt lat="43.33481" lon="-0.08475">
        <ele>348.6152344</ele>
        <time>2010-09-19T07:17:30Z</time>
      </trkpt>
      <trkpt lat="43.33465" lon="-0.0847">
        <ele>349.5765381</ele>
        <time>2010-09-19T07:17:36Z</time>
      </trkpt>
      <trkpt lat="43.33457" lon="-0.08457">
        <ele>351.4991455</ele>
        <time>2010-09-19T07:17:40Z</time>
      </trkpt>
      <trkpt lat="43.33456" lon="-0.08433">
        <ele>353.421875</ele>
        <time>2010-09-19T07:17:46Z</time>
      </trkpt>
      <trkpt lat="43.33456" lon="-0.08407">
        <ele>354.3831787</ele>
        <time>2010-09-19T07:17:53Z</time>
      </trkpt>
      <trkpt lat="43.33454" lon="-0.08383">
        <ele>355.3444824</ele>
        <time>2010-09-19T07:18:00Z</time>
      </trkpt>
      <trkpt lat="43.33454" lon="-0.08365">
        <ele>356.3057861</ele>
        <time>2010-09-19T07:18:05Z</time>
      </trkpt>
      <trkpt lat="43.33454" lon="-0.08342">
        <ele>357.7478027</ele>
        <time>2010-09-19T07:18:11Z</time>
      </trkpt>
      <trkpt lat="43.33453" lon="-0.08303">
        <ele>357.7478027</ele>
        <time>2010-09-19T07:18:20Z</time>
      </trkpt>
      <trkpt lat="43.33452" lon="-0.08299">
        <ele>358.2283936</ele>
        <time>2010-09-19T07:18:21Z</time>
      </trkpt>
      <trkpt lat="43.33436" lon="-0.08296">
        <ele>357.7478027</ele>
        <time>2010-09-19T07:18:26Z</time>
      </trkpt>
      <trkpt lat="43.33407" lon="-0.083">
        <ele>357.2670898</ele>
        <time>2010-09-19T07:18:33Z</time>
      </trkpt>
      <trkpt lat="43.33371" lon="-0.08305">
        <ele>357.2670898</ele>
        <time>2010-09-19T07:18:40Z</time>
      </trkpt>
      <trkpt lat="43.33329" lon="-0.08311">
        <ele>357.7478027</ele>
        <time>2010-09-19T07:18:48Z</time>
      </trkpt>
      <trkpt lat="43.33281" lon="-0.08323">
        <ele>356.786377</ele>
        <time>2010-09-19T07:18:56Z</time>
      </trkpt>
      <trkpt lat="43.33214" lon="-0.08342">
        <ele>357.7478027</ele>
        <time>2010-09-19T07:19:08Z</time>
      </trkpt>
      <trkpt lat="43.33168" lon="-0.08349">
        <ele>358.2283936</ele>
        <time>2010-09-19T07:19:16Z</time>
      </trkpt>
      <trkpt lat="43.33128" lon="-0.08352">
        <ele>359.1896973</ele>
        <time>2010-09-19T07:19:23Z</time>
      </trkpt>
      <trkpt lat="43.33076" lon="-0.08361">
        <ele>360.151123</ele>
        <time>2010-09-19T07:19:32Z</time>
      </trkpt>
      <trkpt lat="43.33035" lon="-0.08379">
        <ele>359.6704102</ele>
        <time>2010-09-19T07:19:39Z</time>
      </trkpt>
      <trkpt lat="43.32959" lon="-0.08414">
        <ele>359.6704102</ele>
        <time>2010-09-19T07:19:51Z</time>
      </trkpt>
      <trkpt lat="43.32946" lon="-0.0842">
        <ele>360.151123</ele>
        <time>2010-09-19T07:19:53Z</time>
      </trkpt>
      <trkpt lat="43.32923" lon="-0.0844">
        <ele>360.151123</ele>
        <time>2010-09-19T07:19:57Z</time>
      </trkpt>
      <trkpt lat="43.32876" lon="-0.085">
        <ele>362.0737305</ele>
        <time>2010-09-19T07:20:07Z</time>
      </trkpt>
      <trkpt lat="43.32843" lon="-0.08546">
        <ele>363.0350342</ele>
        <time>2010-09-19T07:20:15Z</time>
      </trkpt>
      <trkpt lat="43.32826" lon="-0.08586">
        <ele>360.6317139</ele>
        <time>2010-09-19T07:20:20Z</time>
      </trkpt>
      <trkpt lat="43.328" lon="-0.08654">
        <ele>356.3057861</ele>
        <time>2010-09-19T07:20:27Z</time>
      </trkpt>
      <trkpt lat="43.32795" lon="-0.08664">
        <ele>355.8251953</ele>
        <time>2010-09-19T07:20:28Z</time>
      </trkpt>
      <trkpt lat="43.32757" lon="-0.08703">
        <ele>352.4605713</ele>
        <time>2010-09-19T07:20:33Z</time>
      </trkpt>
      <trkpt lat="43.32733" lon="-0.08724">
        <ele>351.9798584</ele>
        <time>2010-09-19T07:20:37Z</time>
      </trkpt>
      <trkpt lat="43.32724" lon="-0.08732">
        <ele>351.4991455</ele>
        <time>2010-09-19T07:20:40Z</time>
      </trkpt>
      <trkpt lat="43.32718" lon="-0.08736">
        <ele>351.4991455</ele>
        <time>2010-09-19T07:20:43Z</time>
      </trkpt>
      <trkpt lat="43.32724" lon="-0.08743">
        <ele>351.0184326</ele>
        <time>2010-09-19T07:20:47Z</time>
      </trkpt>
      <trkpt lat="43.3273" lon="-0.0874">
        <ele>351.0184326</ele>
        <time>2010-09-19T07:20:49Z</time>
      </trkpt>
      <trkpt lat="43.32765" lon="-0.08723">
        <ele>352.4605713</ele>
        <time>2010-09-19T07:20:57Z</time>
      </trkpt>
      <trkpt lat="43.32784" lon="-0.08716">
        <ele>353.421875</ele>
        <time>2010-09-19T07:21:02Z</time>
      </trkpt>
      <trkpt lat="43.32816" lon="-0.087">
        <ele>353.421875</ele>
        <time>2010-09-19T07:21:11Z</time>
      </trkpt>
      <trkpt lat="43.32848" lon="-0.0868">
        <ele>352.4605713</ele>
        <time>2010-09-19T07:21:18Z</time>
      </trkpt>
      <trkpt lat="43.32873" lon="-0.08664">
        <ele>351.9798584</ele>
        <time>2010-09-19T07:21:25Z</time>
      </trkpt>
      <trkpt lat="43.32894" lon="-0.08657">
        <ele>350.057251</ele>
        <time>2010-09-19T07:21:32Z</time>
      </trkpt>
      <trkpt lat="43.32912" lon="-0.08664">
        <ele>348.1346436</ele>
        <time>2010-09-19T07:21:36Z</time>
      </trkpt>
      <trkpt lat="43.32936" lon="-0.08679">
        <ele>343.3278809</ele>
        <time>2010-09-19T07:21:42Z</time>
      </trkpt>
      <trkpt lat="43.32955" lon="-0.08698">
        <ele>338.5214844</ele>
        <time>2010-09-19T07:21:47Z</time>
      </trkpt>
      <trkpt lat="43.32976" lon="-0.08721">
        <ele>335.1567383</ele>
        <time>2010-09-19T07:21:53Z</time>
      </trkpt>
      <trkpt lat="43.3298" lon="-0.08735">
        <ele>332.75354</ele>
        <time>2010-09-19T07:21:57Z</time>
      </trkpt>
      <trkpt lat="43.32979" lon="-0.08741">
        <ele>333.2341309</ele>
        <time>2010-09-19T07:22:01Z</time>
      </trkpt>
      <trkpt lat="43.32979" lon="-0.08749">
        <ele>330.8309326</ele>
        <time>2010-09-19T07:22:07Z</time>
      </trkpt>
      <trkpt lat="43.3298" lon="-0.08752">
        <ele>328.9083252</ele>
        <time>2010-09-19T07:22:14Z</time>
      </trkpt>
      <trkpt lat="43.32981" lon="-0.08752">
        <ele>328.4276123</ele>
        <time>2010-09-19T07:22:16Z</time>
      </trkpt>
      <trkpt lat="43.32984" lon="-0.08759">
        <ele>326.0241699</ele>
        <time>2010-09-19T07:22:22Z</time>
      </trkpt>
      <trkpt lat="43.32989" lon="-0.08768">
        <ele>327.4661865</ele>
        <time>2010-09-19T07:22:27Z</time>
      </trkpt>
      <trkpt lat="43.32999" lon="-0.08781">
        <ele>329.388916</ele>
        <time>2010-09-19T07:22:32Z</time>
      </trkpt>
      <trkpt lat="43.33009" lon="-0.08792">
        <ele>330.3502197</ele>
        <time>2010-09-19T07:22:35Z</time>
      </trkpt>
      <trkpt lat="43.33035" lon="-0.08811">
        <ele>329.388916</ele>
        <time>2010-09-19T07:22:41Z</time>
      </trkpt>
      <trkpt lat="43.3305" lon="-0.08816">
        <ele>329.388916</ele>
        <time>2010-09-19T07:22:44Z</time>
      </trkpt>
      <trkpt lat="43.33071" lon="-0.08819">
        <ele>328.9083252</ele>
        <time>2010-09-19T07:22:48Z</time>
      </trkpt>
      <trkpt lat="43.33083" lon="-0.08836">
        <ele>328.9083252</ele>
        <time>2010-09-19T07:22:52Z</time>
      </trkpt>
      <trkpt lat="43.33085" lon="-0.08841">
        <ele>328.9083252</ele>
        <time>2010-09-19T07:22:53Z</time>
      </trkpt>
      <trkpt lat="43.33091" lon="-0.08867">
        <ele>329.8695068</ele>
        <time>2010-09-19T07:22:58Z</time>
      </trkpt>
      <trkpt lat="43.33092" lon="-0.08909">
        <ele>330.8309326</ele>
        <time>2010-09-19T07:23:06Z</time>
      </trkpt>
      <trkpt lat="43.33095" lon="-0.08935">
        <ele>331.7921143</ele>
        <time>2010-09-19T07:23:11Z</time>
      </trkpt>
      <trkpt lat="43.33101" lon="-0.08942">
        <ele>332.75354</ele>
        <time>2010-09-19T07:23:13Z</time>
      </trkpt>
      <trkpt lat="43.33126" lon="-0.08942">
        <ele>334.1954346</ele>
        <time>2010-09-19T07:23:19Z</time>
      </trkpt>
      <trkpt lat="43.33139" lon="-0.08939">
        <ele>334.6761475</ele>
        <time>2010-09-19T07:23:22Z</time>
      </trkpt>
      <trkpt lat="43.33155" lon="-0.08946">
        <ele>334.6761475</ele>
        <time>2010-09-19T07:23:26Z</time>
      </trkpt>
      <trkpt lat="43.33161" lon="-0.08959">
        <ele>335.1567383</ele>
        <time>2010-09-19T07:23:29Z</time>
      </trkpt>
      <trkpt lat="43.33165" lon="-0.08973">
        <ele>336.1181641</ele>
        <time>2010-09-19T07:23:32Z</time>
      </trkpt>
      <trkpt lat="43.33175" lon="-0.08993">
        <ele>338.0407715</ele>
        <time>2010-09-19T07:23:37Z</time>
      </trkpt>
      <trkpt lat="43.33185" lon="-0.09001">
        <ele>340.9246826</ele>
        <time>2010-09-19T07:23:42Z</time>
      </trkpt>
      <trkpt lat="43.33207" lon="-0.09002">
        <ele>344.7700195</ele>
        <time>2010-09-19T07:23:52Z</time>
      </trkpt>
      <trkpt lat="43.33227" lon="-0.09005">
        <ele>349.0958252</ele>
        <time>2010-09-19T07:24:00Z</time>
      </trkpt>
      <trkpt lat="43.33245" lon="-0.09009">
        <ele>350.5378418</ele>
        <time>2010-09-19T07:24:07Z</time>
      </trkpt>
      <trkpt lat="43.33261" lon="-0.0902">
        <ele>351.4991455</ele>
        <time>2010-09-19T07:24:14Z</time>
      </trkpt>
      <trkpt lat="43.3327" lon="-0.09039">
        <ele>352.4605713</ele>
        <time>2010-09-19T07:24:21Z</time>
      </trkpt>
      <trkpt lat="43.33265" lon="-0.09048">
        <ele>351.9798584</ele>
        <time>2010-09-19T07:24:25Z</time>
      </trkpt>
      <trkpt lat="43.33249" lon="-0.09058">
        <ele>353.421875</ele>
        <time>2010-09-19T07:24:33Z</time>
      </trkpt>
      <trkpt lat="43.33227" lon="-0.09069">
        <ele>354.8637695</ele>
        <time>2010-09-19T07:24:42Z</time>
      </trkpt>
      <trkpt lat="43.33217" lon="-0.09074">
        <ele>355.3444824</ele>
        <time>2010-09-19T07:24:46Z</time>
      </trkpt>
      <trkpt lat="43.33214" lon="-0.0909">
        <ele>355.8251953</ele>
        <time>2010-09-19T07:24:51Z</time>
      </trkpt>
      <trkpt lat="43.33214" lon="-0.0912">
        <ele>355.8251953</ele>
        <time>2010-09-19T07:25:00Z</time>
      </trkpt>
      <trkpt lat="43.33214" lon="-0.09143">
        <ele>356.3057861</ele>
        <time>2010-09-19T07:25:07Z</time>
      </trkpt>
      <trkpt lat="43.33216" lon="-0.0917">
        <ele>356.786377</ele>
        <time>2010-09-19T07:25:15Z</time>
      </trkpt>
      <trkpt lat="43.33219" lon="-0.09199">
        <ele>356.3057861</ele>
        <time>2010-09-19T07:25:22Z</time>
      </trkpt>
      <trkpt lat="43.33217" lon="-0.09236">
        <ele>356.3057861</ele>
        <time>2010-09-19T07:25:28Z</time>
      </trkpt>
      <trkpt lat="43.3321" lon="-0.09283">
        <ele>355.8251953</ele>
        <time>2010-09-19T07:25:35Z</time>
      </trkpt>
      <trkpt lat="43.33196" lon="-0.09346">
        <ele>355.8251953</ele>
        <time>2010-09-19T07:25:44Z</time>
      </trkpt>
      <trkpt lat="43.3318" lon="-0.09404">
        <ele>357.2670898</ele>
        <time>2010-09-19T07:25:54Z</time>
      </trkpt>
      <trkpt lat="43.33166" lon="-0.09442">
        <ele>356.3057861</ele>
        <time>2010-09-19T07:26:01Z</time>
      </trkpt>
      <trkpt lat="43.3315" lon="-0.09479">
        <ele>356.786377</ele>
        <time>2010-09-19T07:26:08Z</time>
      </trkpt>
      <trkpt lat="43.33138" lon="-0.09504">
        <ele>357.2670898</ele>
        <time>2010-09-19T07:26:14Z</time>
      </trkpt>
      <trkpt lat="43.33136" lon="-0.09506">
        <ele>357.2670898</ele>
        <time>2010-09-19T07:26:15Z</time>
      </trkpt>
      <trkpt lat="43.33123" lon="-0.09508">
        <ele>357.7478027</ele>
        <time>2010-09-19T07:26:19Z</time>
      </trkpt>
      <trkpt lat="43.33092" lon="-0.095">
        <ele>360.151123</ele>
        <time>2010-09-19T07:26:28Z</time>
      </trkpt>
      <trkpt lat="43.33068" lon="-0.095">
        <ele>362.5543213</ele>
        <time>2010-09-19T07:26:35Z</time>
      </trkpt>
      <trkpt lat="43.33047" lon="-0.09517">
        <ele>363.5157471</ele>
        <time>2010-09-19T07:26:42Z</time>
      </trkpt>
      <trkpt lat="43.33034" lon="-0.09536">
        <ele>363.5157471</ele>
        <time>2010-09-19T07:26:47Z</time>
      </trkpt>
      <trkpt lat="43.33025" lon="-0.09555">
        <ele>363.9963379</ele>
        <time>2010-09-19T07:26:51Z</time>
      </trkpt>
      <trkpt lat="43.33015" lon="-0.09573">
        <ele>364.4769287</ele>
        <time>2010-09-19T07:26:55Z</time>
      </trkpt>
      <trkpt lat="43.33001" lon="-0.09587">
        <ele>364.9576416</ele>
        <time>2010-09-19T07:26:59Z</time>
      </trkpt>
      <trkpt lat="43.32966" lon="-0.09599">
        <ele>366.3995361</ele>
        <time>2010-09-19T07:27:07Z</time>
      </trkpt>
      <trkpt lat="43.32935" lon="-0.09608">
        <ele>367.3609619</ele>
        <time>2010-09-19T07:27:14Z</time>
      </trkpt>
      <trkpt lat="43.32888" lon="-0.09624">
        <ele>368.3222656</ele>
        <time>2010-09-19T07:27:24Z</time>
      </trkpt>
      <trkpt lat="43.32842" lon="-0.09645">
        <ele>369.2836914</ele>
        <time>2010-09-19T07:27:34Z</time>
      </trkpt>
      <trkpt lat="43.32812" lon="-0.09664">
        <ele>369.2836914</ele>
        <time>2010-09-19T07:27:41Z</time>
      </trkpt>
      <trkpt lat="43.32803" lon="-0.0967">
        <ele>369.7642822</ele>
        <time>2010-09-19T07:27:43Z</time>
      </trkpt>
      <trkpt lat="43.32766" lon="-0.09683">
        <ele>370.244873</ele>
        <time>2010-09-19T07:27:51Z</time>
      </trkpt>
      <trkpt lat="43.32727" lon="-0.0969">
        <ele>370.7255859</ele>
        <time>2010-09-19T07:28:00Z</time>
      </trkpt>
      <trkpt lat="43.32698" lon="-0.09704">
        <ele>370.7255859</ele>
        <time>2010-09-19T07:28:07Z</time>
      </trkpt>
      <trkpt lat="43.32674" lon="-0.09718">
        <ele>371.2062988</ele>
        <time>2010-09-19T07:28:14Z</time>
      </trkpt>
      <trkpt lat="43.32654" lon="-0.0973">
        <ele>371.6868896</ele>
        <time>2010-09-19T07:28:20Z</time>
      </trkpt>
      <trkpt lat="43.32631" lon="-0.09744">
        <ele>372.1674805</ele>
        <time>2010-09-19T07:28:27Z</time>
      </trkpt>
      <trkpt lat="43.32611" lon="-0.09759">
        <ele>372.1674805</ele>
        <time>2010-09-19T07:28:33Z</time>
      </trkpt>
      <trkpt lat="43.32588" lon="-0.09783">
        <ele>370.7255859</ele>
        <time>2010-09-19T07:28:40Z</time>
      </trkpt>
      <trkpt lat="43.32584" lon="-0.09786">
        <ele>370.7255859</ele>
        <time>2010-09-19T07:28:41Z</time>
      </trkpt>
      <trkpt lat="43.32579" lon="-0.09804">
        <ele>371.2062988</ele>
        <time>2010-09-19T07:28:45Z</time>
      </trkpt>
      <trkpt lat="43.32584" lon="-0.09813">
        <ele>371.6868896</ele>
        <time>2010-09-19T07:28:47Z</time>
      </trkpt>
      <trkpt lat="43.32621" lon="-0.09851">
        <ele>373.6094971</ele>
        <time>2010-09-19T07:28:56Z</time>
      </trkpt>
      <trkpt lat="43.32659" lon="-0.09876">
        <ele>375.0515137</ele>
        <time>2010-09-19T07:29:03Z</time>
      </trkpt>
      <trkpt lat="43.32705" lon="-0.09902">
        <ele>375.5321045</ele>
        <time>2010-09-19T07:29:11Z</time>
      </trkpt>
      <trkpt lat="43.3274" lon="-0.09928">
        <ele>375.5321045</ele>
        <time>2010-09-19T07:29:17Z</time>
      </trkpt>
      <trkpt lat="43.32776" lon="-0.09981">
        <ele>374.0900879</ele>
        <time>2010-09-19T07:29:25Z</time>
      </trkpt>
      <trkpt lat="43.32802" lon="-0.10032">
        <ele>371.6868896</ele>
        <time>2010-09-19T07:29:32Z</time>
      </trkpt>
      <trkpt lat="43.32833" lon="-0.10096">
        <ele>369.2836914</ele>
        <time>2010-09-19T07:29:40Z</time>
      </trkpt>
      <trkpt lat="43.32859" lon="-0.10152">
        <ele>366.880249</ele>
        <time>2010-09-19T07:29:47Z</time>
      </trkpt>
      <trkpt lat="43.3288" lon="-0.10162">
        <ele>366.3995361</ele>
        <time>2010-09-19T07:29:51Z</time>
      </trkpt>
      <trkpt lat="43.32902" lon="-0.10178">
        <ele>366.3995361</ele>
        <time>2010-09-19T07:29:56Z</time>
      </trkpt>
      <trkpt lat="43.32929" lon="-0.10219">
        <ele>366.880249</ele>
        <time>2010-09-19T07:30:03Z</time>
      </trkpt>
      <trkpt lat="43.32955" lon="-0.10262">
        <ele>367.8415527</ele>
        <time>2010-09-19T07:30:11Z</time>
      </trkpt>
      <trkpt lat="43.3296" lon="-0.10272">
        <ele>367.8415527</ele>
        <time>2010-09-19T07:30:13Z</time>
      </trkpt>
      <trkpt lat="43.3298" lon="-0.10315">
        <ele>367.3609619</ele>
        <time>2010-09-19T07:30:21Z</time>
      </trkpt>
      <trkpt lat="43.32993" lon="-0.1035">
        <ele>364.4769287</ele>
        <time>2010-09-19T07:30:26Z</time>
      </trkpt>
      <trkpt lat="43.33007" lon="-0.104">
        <ele>363.0350342</ele>
        <time>2010-09-19T07:30:32Z</time>
      </trkpt>
      <trkpt lat="43.33021" lon="-0.1044">
        <ele>362.0737305</ele>
        <time>2010-09-19T07:30:36Z</time>
      </trkpt>
      <trkpt lat="43.33025" lon="-0.10449">
        <ele>361.5931396</ele>
        <time>2010-09-19T07:30:37Z</time>
      </trkpt>
      <trkpt lat="43.33031" lon="-0.10478">
        <ele>359.1896973</ele>
        <time>2010-09-19T07:30:41Z</time>
      </trkpt>
      <trkpt lat="43.33023" lon="-0.10494">
        <ele>357.7478027</ele>
        <time>2010-09-19T07:30:44Z</time>
      </trkpt>
      <trkpt lat="43.33023" lon="-0.10518">
        <ele>354.3831787</ele>
        <time>2010-09-19T07:30:47Z</time>
      </trkpt>
      <trkpt lat="43.33038" lon="-0.1054">
        <ele>351.4991455</ele>
        <time>2010-09-19T07:30:50Z</time>
      </trkpt>
      <trkpt lat="43.33057" lon="-0.10558">
        <ele>349.5765381</ele>
        <time>2010-09-19T07:30:53Z</time>
      </trkpt>
      <trkpt lat="43.3309" lon="-0.1059">
        <ele>346.692627</ele>
        <time>2010-09-19T07:30:59Z</time>
      </trkpt>
      <trkpt lat="43.33124" lon="-0.10626">
        <ele>343.3278809</ele>
        <time>2010-09-19T07:31:05Z</time>
      </trkpt>
      <trkpt lat="43.33129" lon="-0.10632">
        <ele>342.84729</ele>
        <time>2010-09-19T07:31:06Z</time>
      </trkpt>
      <trkpt lat="43.33152" lon="-0.10667">
        <ele>339.9633789</ele>
        <time>2010-09-19T07:31:11Z</time>
      </trkpt>
      <trkpt lat="43.33173" lon="-0.10692">
        <ele>337.5600586</ele>
        <time>2010-09-19T07:31:15Z</time>
      </trkpt>
      <trkpt lat="43.33214" lon="-0.10714">
        <ele>335.6373291</ele>
        <time>2010-09-19T07:31:21Z</time>
      </trkpt>
      <trkpt lat="43.33246" lon="-0.10731">
        <ele>333.7147217</ele>
        <time>2010-09-19T07:31:26Z</time>
      </trkpt>
      <trkpt lat="43.33253" lon="-0.10735">
        <ele>332.75354</ele>
        <time>2010-09-19T07:31:27Z</time>
      </trkpt>
      <trkpt lat="43.33278" lon="-0.10759">
        <ele>329.8695068</ele>
        <time>2010-09-19T07:31:31Z</time>
      </trkpt>
      <trkpt lat="43.33301" lon="-0.108">
        <ele>325.5435791</ele>
        <time>2010-09-19T07:31:37Z</time>
      </trkpt>
      <trkpt lat="43.33306" lon="-0.10815">
        <ele>321.6983643</ele>
        <time>2010-09-19T07:31:41Z</time>
      </trkpt>
      <trkpt lat="43.33306" lon="-0.10825">
        <ele>319.2950439</ele>
        <time>2010-09-19T07:31:43Z</time>
      </trkpt>
      <trkpt lat="43.33312" lon="-0.10855">
        <ele>316.8917236</ele>
        <time>2010-09-19T07:31:47Z</time>
      </trkpt>
      <trkpt lat="43.33322" lon="-0.10877">
        <ele>314.4884033</ele>
        <time>2010-09-19T07:31:50Z</time>
      </trkpt>
      <trkpt lat="43.33351" lon="-0.10919">
        <ele>312.0852051</ele>
        <time>2010-09-19T07:31:56Z</time>
      </trkpt>
      <trkpt lat="43.3336" lon="-0.10932">
        <ele>311.1237793</ele>
        <time>2010-09-19T07:31:58Z</time>
      </trkpt>
      <trkpt lat="43.33367" lon="-0.10946">
        <ele>311.1237793</ele>
        <time>2010-09-19T07:32:00Z</time>
      </trkpt>
      <trkpt lat="43.33382" lon="-0.1097">
        <ele>308.2398682</ele>
        <time>2010-09-19T07:32:05Z</time>
      </trkpt>
      <trkpt lat="43.33396" lon="-0.10985">
        <ele>307.7592773</ele>
        <time>2010-09-19T07:32:10Z</time>
      </trkpt>
      <trkpt lat="43.33402" lon="-0.10991">
        <ele>308.2398682</ele>
        <time>2010-09-19T07:32:14Z</time>
      </trkpt>
      <trkpt lat="43.33408" lon="-0.10997">
        <ele>307.7592773</ele>
        <time>2010-09-19T07:32:21Z</time>
      </trkpt>
      <trkpt lat="43.3341" lon="-0.11">
        <ele>308.2398682</ele>
        <time>2010-09-19T07:32:26Z</time>
      </trkpt>
      <trkpt lat="43.33414" lon="-0.11007">
        <ele>309.2011719</ele>
        <time>2010-09-19T07:32:35Z</time>
      </trkpt>
      <trkpt lat="43.33415" lon="-0.11008">
        <ele>308.720459</ele>
        <time>2010-09-19T07:32:36Z</time>
      </trkpt>
      <trkpt lat="43.33417" lon="-0.11013">
        <ele>308.720459</ele>
        <time>2010-09-19T07:32:39Z</time>
      </trkpt>
      <trkpt lat="43.33421" lon="-0.11021">
        <ele>307.7592773</ele>
        <time>2010-09-19T07:32:43Z</time>
      </trkpt>
      <trkpt lat="43.33425" lon="-0.11038">
        <ele>308.720459</ele>
        <time>2010-09-19T07:32:49Z</time>
      </trkpt>
      <trkpt lat="43.33424" lon="-0.11041">
        <ele>308.2398682</ele>
        <time>2010-09-19T07:32:50Z</time>
      </trkpt>
      <trkpt lat="43.33421" lon="-0.11058">
        <ele>309.2011719</ele>
        <time>2010-09-19T07:32:55Z</time>
      </trkpt>
      <trkpt lat="43.33413" lon="-0.11071">
        <ele>309.6818848</ele>
        <time>2010-09-19T07:33:01Z</time>
      </trkpt>
      <trkpt lat="43.33407" lon="-0.1107">
        <ele>310.6430664</ele>
        <time>2010-09-19T07:33:05Z</time>
      </trkpt>
      <trkpt lat="43.33396" lon="-0.11074">
        <ele>314.9691162</ele>
        <time>2010-09-19T07:33:12Z</time>
      </trkpt>
      <trkpt lat="43.33387" lon="-0.1108">
        <ele>319.7756348</ele>
        <time>2010-09-19T07:33:20Z</time>
      </trkpt>
      <trkpt lat="43.33381" lon="-0.11087">
        <ele>323.1403809</ele>
        <time>2010-09-19T07:33:28Z</time>
      </trkpt>
      <trkpt lat="43.33372" lon="-0.11094">
        <ele>323.6209717</ele>
        <time>2010-09-19T07:33:36Z</time>
      </trkpt>
      <trkpt lat="43.33363" lon="-0.11096">
        <ele>325.5435791</ele>
        <time>2010-09-19T07:33:43Z</time>
      </trkpt>
      <trkpt lat="43.33354" lon="-0.11099">
        <ele>328.9083252</ele>
        <time>2010-09-19T07:33:51Z</time>
      </trkpt>
      <trkpt lat="43.33343" lon="-0.11102">
        <ele>331.3115234</ele>
        <time>2010-09-19T07:34:00Z</time>
      </trkpt>
      <trkpt lat="43.33332" lon="-0.11105">
        <ele>327.4661865</ele>
        <time>2010-09-19T07:34:09Z</time>
      </trkpt>
      <trkpt lat="43.33326" lon="-0.11106">
        <ele>326.5048828</ele>
        <time>2010-09-19T07:34:15Z</time>
      </trkpt>
      <trkpt lat="43.33319" lon="-0.11108">
        <ele>327.4661865</ele>
        <time>2010-09-19T07:34:21Z</time>
      </trkpt>
      <trkpt lat="43.33311" lon="-0.11109">
        <ele>328.4276123</ele>
        <time>2010-09-19T07:34:28Z</time>
      </trkpt>
      <trkpt lat="43.33302" lon="-0.1111">
        <ele>327.4661865</ele>
        <time>2010-09-19T07:34:33Z</time>
      </trkpt>
      <trkpt lat="43.33293" lon="-0.11112">
        <ele>329.8695068</ele>
        <time>2010-09-19T07:34:39Z</time>
      </trkpt>
      <trkpt lat="43.33285" lon="-0.1111">
        <ele>330.8309326</ele>
        <time>2010-09-19T07:34:46Z</time>
      </trkpt>
      <trkpt lat="43.33273" lon="-0.11112">
        <ele>333.2341309</ele>
        <time>2010-09-19T07:34:54Z</time>
      </trkpt>
      <trkpt lat="43.33271" lon="-0.1111">
        <ele>334.1954346</ele>
        <time>2010-09-19T07:34:57Z</time>
      </trkpt>
      <trkpt lat="43.33271" lon="-0.11101">
        <ele>339.9633789</ele>
        <time>2010-09-19T07:35:04Z</time>
      </trkpt>
      <trkpt lat="43.33271" lon="-0.1109">
        <ele>342.3666992</ele>
        <time>2010-09-19T07:35:11Z</time>
      </trkpt>
      <trkpt lat="43.3327" lon="-0.1108">
        <ele>343.3278809</ele>
        <time>2010-09-19T07:35:16Z</time>
      </trkpt>
      <trkpt lat="43.33263" lon="-0.11072">
        <ele>345.2506104</ele>
        <time>2010-09-19T07:35:23Z</time>
      </trkpt>
      <trkpt lat="43.33256" lon="-0.11068">
        <ele>346.2120361</ele>
        <time>2010-09-19T07:35:28Z</time>
      </trkpt>
      <trkpt lat="43.33247" lon="-0.11066">
        <ele>346.2120361</ele>
        <time>2010-09-19T07:35:35Z</time>
      </trkpt>
      <trkpt lat="43.33245" lon="-0.11065">
        <ele>346.692627</ele>
        <time>2010-09-19T07:35:36Z</time>
      </trkpt>
      <trkpt lat="43.33239" lon="-0.11059">
        <ele>345.2506104</ele>
        <time>2010-09-19T07:35:42Z</time>
      </trkpt>
      <trkpt lat="43.33234" lon="-0.11043">
        <ele>344.2894287</ele>
        <time>2010-09-19T07:35:50Z</time>
      </trkpt>
      <trkpt lat="43.33228" lon="-0.11026">
        <ele>344.2894287</ele>
        <time>2010-09-19T07:36:00Z</time>
      </trkpt>
      <trkpt lat="43.33221" lon="-0.11011">
        <ele>346.2120361</ele>
        <time>2010-09-19T07:36:07Z</time>
      </trkpt>
      <trkpt lat="43.33214" lon="-0.10997">
        <ele>350.5378418</ele>
        <time>2010-09-19T07:36:13Z</time>
      </trkpt>
      <trkpt lat="43.33207" lon="-0.10987">
        <ele>351.0184326</ele>
        <time>2010-09-19T07:36:19Z</time>
      </trkpt>
      <trkpt lat="43.332" lon="-0.10977">
        <ele>351.9798584</ele>
        <time>2010-09-19T07:36:25Z</time>
      </trkpt>
      <trkpt lat="43.33193" lon="-0.10968">
        <ele>353.9025879</ele>
        <time>2010-09-19T07:36:32Z</time>
      </trkpt>
      <trkpt lat="43.3318" lon="-0.10959">
        <ele>352.4605713</ele>
        <time>2010-09-19T07:36:39Z</time>
      </trkpt>
      <trkpt lat="43.33169" lon="-0.10954">
        <ele>353.9025879</ele>
        <time>2010-09-19T07:36:46Z</time>
      </trkpt>
      <trkpt lat="43.33161" lon="-0.10948">
        <ele>354.3831787</ele>
        <time>2010-09-19T07:36:51Z</time>
      </trkpt>
      <trkpt lat="43.33152" lon="-0.10942">
        <ele>353.421875</ele>
        <time>2010-09-19T07:36:56Z</time>
      </trkpt>
      <trkpt lat="43.33135" lon="-0.10931">
        <ele>355.3444824</ele>
        <time>2010-09-19T07:37:04Z</time>
      </trkpt>
      <trkpt lat="43.33122" lon="-0.10923">
        <ele>357.2670898</ele>
        <time>2010-09-19T07:37:10Z</time>
      </trkpt>
      <trkpt lat="43.3311" lon="-0.10916">
        <ele>358.2283936</ele>
        <time>2010-09-19T07:37:16Z</time>
      </trkpt>
      <trkpt lat="43.33103" lon="-0.10906">
        <ele>359.1896973</ele>
        <time>2010-09-19T07:37:22Z</time>
      </trkpt>
      <trkpt lat="43.33094" lon="-0.10899">
        <ele>360.151123</ele>
        <time>2010-09-19T07:37:28Z</time>
      </trkpt>
      <trkpt lat="43.33088" lon="-0.10895">
        <ele>363.0350342</ele>
        <time>2010-09-19T07:37:32Z</time>
      </trkpt>
      <trkpt lat="43.33075" lon="-0.1089">
        <ele>365.4383545</ele>
        <time>2010-09-19T07:37:41Z</time>
      </trkpt>
      <trkpt lat="43.33068" lon="-0.10885">
        <ele>368.3222656</ele>
        <time>2010-09-19T07:37:47Z</time>
      </trkpt>
      <trkpt lat="43.33067" lon="-0.10884">
        <ele>368.8029785</ele>
        <time>2010-09-19T07:37:48Z</time>
      </trkpt>
      <trkpt lat="43.33059" lon="-0.10874">
        <ele>372.6481934</ele>
        <time>2010-09-19T07:37:56Z</time>
      </trkpt>
      <trkpt lat="43.3305" lon="-0.10864">
        <ele>370.7255859</ele>
        <time>2010-09-19T07:38:03Z</time>
      </trkpt>
      <trkpt lat="43.33043" lon="-0.10856">
        <ele>370.7255859</ele>
        <time>2010-09-19T07:38:09Z</time>
      </trkpt>
      <trkpt lat="43.33035" lon="-0.10846">
        <ele>369.2836914</ele>
        <time>2010-09-19T07:38:16Z</time>
      </trkpt>
      <trkpt lat="43.33027" lon="-0.10834">
        <ele>370.244873</ele>
        <time>2010-09-19T07:38:21Z</time>
      </trkpt>
      <trkpt lat="43.33016" lon="-0.10817">
        <ele>367.8415527</ele>
        <time>2010-09-19T07:38:27Z</time>
      </trkpt>
      <trkpt lat="43.33003" lon="-0.10802">
        <ele>367.3609619</ele>
        <time>2010-09-19T07:38:33Z</time>
      </trkpt>
      <trkpt lat="43.3299" lon="-0.10789">
        <ele>369.7642822</ele>
        <time>2010-09-19T07:38:38Z</time>
      </trkpt>
      <trkpt lat="43.3298" lon="-0.10776">
        <ele>369.2836914</ele>
        <time>2010-09-19T07:38:43Z</time>
      </trkpt>
      <trkpt lat="43.32964" lon="-0.1076">
        <ele>372.1674805</ele>
        <time>2010-09-19T07:38:49Z</time>
      </trkpt>
      <trkpt lat="43.32947" lon="-0.10754">
        <ele>374.0900879</ele>
        <time>2010-09-19T07:38:55Z</time>
      </trkpt>
      <trkpt lat="43.32933" lon="-0.10751">
        <ele>374.0900879</ele>
        <time>2010-09-19T07:38:59Z</time>
      </trkpt>
      <trkpt lat="43.32912" lon="-0.10743">
        <ele>374.0900879</ele>
        <time>2010-09-19T07:39:05Z</time>
      </trkpt>
      <trkpt lat="43.32889" lon="-0.10741">
        <ele>369.7642822</ele>
        <time>2010-09-19T07:39:10Z</time>
      </trkpt>
      <trkpt lat="43.32872" lon="-0.10743">
        <ele>368.8029785</ele>
        <time>2010-09-19T07:39:14Z</time>
      </trkpt>
      <trkpt lat="43.32852" lon="-0.10744">
        <ele>368.3222656</ele>
        <time>2010-09-19T07:39:19Z</time>
      </trkpt>
      <trkpt lat="43.32826" lon="-0.10745">
        <ele>367.3609619</ele>
        <time>2010-09-19T07:39:25Z</time>
      </trkpt>
      <trkpt lat="43.32807" lon="-0.10755">
        <ele>365.9189453</ele>
        <time>2010-09-19T07:39:30Z</time>
      </trkpt>
      <trkpt lat="43.32785" lon="-0.10767">
        <ele>367.3609619</ele>
        <time>2010-09-19T07:39:35Z</time>
      </trkpt>
      <trkpt lat="43.3278" lon="-0.1077">
        <ele>367.3609619</ele>
        <time>2010-09-19T07:39:36Z</time>
      </trkpt>
      <trkpt lat="43.32764" lon="-0.10778">
        <ele>367.8415527</ele>
        <time>2010-09-19T07:39:39Z</time>
      </trkpt>
      <trkpt lat="43.32722" lon="-0.10782">
        <ele>367.3609619</ele>
        <time>2010-09-19T07:39:46Z</time>
      </trkpt>
      <trkpt lat="43.32699" lon="-0.10784">
        <ele>364.9576416</ele>
        <time>2010-09-19T07:39:50Z</time>
      </trkpt>
      <trkpt lat="43.32682" lon="-0.10788">
        <ele>363.5157471</ele>
        <time>2010-09-19T07:39:53Z</time>
      </trkpt>
      <trkpt lat="43.32667" lon="-0.1079">
        <ele>363.9963379</ele>
        <time>2010-09-19T07:39:56Z</time>
      </trkpt>
      <trkpt lat="43.32647" lon="-0.10806">
        <ele>367.3609619</ele>
        <time>2010-09-19T07:40:01Z</time>
      </trkpt>
      <trkpt lat="43.32646" lon="-0.10812">
        <ele>368.3222656</ele>
        <time>2010-09-19T07:40:02Z</time>
      </trkpt>
      <trkpt lat="43.32643" lon="-0.10859">
        <ele>373.6094971</ele>
        <time>2010-09-19T07:40:10Z</time>
      </trkpt>
      <trkpt lat="43.32638" lon="-0.10889">
        <ele>376.0128174</ele>
        <time>2010-09-19T07:40:16Z</time>
      </trkpt>
      <trkpt lat="43.32636" lon="-0.10914">
        <ele>376.4935303</ele>
        <time>2010-09-19T07:40:21Z</time>
      </trkpt>
      <trkpt lat="43.32629" lon="-0.1095">
        <ele>377.454834</ele>
        <time>2010-09-19T07:40:29Z</time>
      </trkpt>
      <trkpt lat="43.32627" lon="-0.10973">
        <ele>376.9742432</ele>
        <time>2010-09-19T07:40:34Z</time>
      </trkpt>
      <trkpt lat="43.32639" lon="-0.10984">
        <ele>376.0128174</ele>
        <time>2010-09-19T07:40:38Z</time>
      </trkpt>
      <trkpt lat="43.32661" lon="-0.10992">
        <ele>375.5321045</ele>
        <time>2010-09-19T07:40:44Z</time>
      </trkpt>
      <trkpt lat="43.32681" lon="-0.10997">
        <ele>376.0128174</ele>
        <time>2010-09-19T07:40:50Z</time>
      </trkpt>
      <trkpt lat="43.32699" lon="-0.11003">
        <ele>377.9354248</ele>
        <time>2010-09-19T07:40:55Z</time>
      </trkpt>
      <trkpt lat="43.32725" lon="-0.11014">
        <ele>379.8580322</ele>
        <time>2010-09-19T07:41:01Z</time>
      </trkpt>
      <trkpt lat="43.32749" lon="-0.11022">
        <ele>381.7806396</ele>
        <time>2010-09-19T07:41:06Z</time>
      </trkpt>
      <trkpt lat="43.32774" lon="-0.11029">
        <ele>379.3774414</ele>
        <time>2010-09-19T07:41:11Z</time>
      </trkpt>
      <trkpt lat="43.3279" lon="-0.11034">
        <ele>378.8968506</ele>
        <time>2010-09-19T07:41:14Z</time>
      </trkpt>
      <trkpt lat="43.32812" lon="-0.11044">
        <ele>378.4161377</ele>
        <time>2010-09-19T07:41:18Z</time>
      </trkpt>
      <trkpt lat="43.32839" lon="-0.1106">
        <ele>378.4161377</ele>
        <time>2010-09-19T07:41:23Z</time>
      </trkpt>
      <trkpt lat="43.32851" lon="-0.11061">
        <ele>378.4161377</ele>
        <time>2010-09-19T07:41:25Z</time>
      </trkpt>
      <trkpt lat="43.32881" lon="-0.11059">
        <ele>378.4161377</ele>
        <time>2010-09-19T07:41:30Z</time>
      </trkpt>
      <trkpt lat="43.32886" lon="-0.11058">
        <ele>379.3774414</ele>
        <time>2010-09-19T07:41:31Z</time>
      </trkpt>
      <trkpt lat="43.32906" lon="-0.11067">
        <ele>379.8580322</ele>
        <time>2010-09-19T07:41:35Z</time>
      </trkpt>
      <trkpt lat="43.32942" lon="-0.11085">
        <ele>376.0128174</ele>
        <time>2010-09-19T07:41:40Z</time>
      </trkpt>
      <trkpt lat="43.32955" lon="-0.11094">
        <ele>375.5321045</ele>
        <time>2010-09-19T07:41:42Z</time>
      </trkpt>
      <trkpt lat="43.32984" lon="-0.11124">
        <ele>374.0900879</ele>
        <time>2010-09-19T07:41:47Z</time>
      </trkpt>
      <trkpt lat="43.32999" lon="-0.11145">
        <ele>370.244873</ele>
        <time>2010-09-19T07:41:51Z</time>
      </trkpt>
      <trkpt lat="43.32995" lon="-0.11145">
        <ele>369.2836914</ele>
        <time>2010-09-19T07:41:55Z</time>
      </trkpt>
      <trkpt lat="43.32983" lon="-0.11147">
        <ele>366.880249</ele>
        <time>2010-09-19T07:42:01Z</time>
      </trkpt>
      <trkpt lat="43.32981" lon="-0.11146">
        <ele>366.3995361</ele>
        <time>2010-09-19T07:42:02Z</time>
      </trkpt>
      <trkpt lat="43.32967" lon="-0.11144">
        <ele>363.5157471</ele>
        <time>2010-09-19T07:42:07Z</time>
      </trkpt>
      <trkpt lat="43.32959" lon="-0.11153">
        <ele>361.5931396</ele>
        <time>2010-09-19T07:42:12Z</time>
      </trkpt>
      <trkpt lat="43.32955" lon="-0.11162">
        <ele>362.0737305</ele>
        <time>2010-09-19T07:42:16Z</time>
      </trkpt>
      <trkpt lat="43.32955" lon="-0.11177">
        <ele>361.1124268</ele>
        <time>2010-09-19T07:42:21Z</time>
      </trkpt>
      <trkpt lat="43.32957" lon="-0.11195">
        <ele>360.6317139</ele>
        <time>2010-09-19T07:42:25Z</time>
      </trkpt>
      <trkpt lat="43.32957" lon="-0.11203">
        <ele>359.6704102</ele>
        <time>2010-09-19T07:42:27Z</time>
      </trkpt>
      <trkpt lat="43.32947" lon="-0.11216">
        <ele>353.9025879</ele>
        <time>2010-09-19T07:42:32Z</time>
      </trkpt>
      <trkpt lat="43.3294" lon="-0.11217">
        <ele>351.4991455</ele>
        <time>2010-09-19T07:42:35Z</time>
      </trkpt>
      <trkpt lat="43.32931" lon="-0.11215">
        <ele>350.057251</ele>
        <time>2010-09-19T07:42:38Z</time>
      </trkpt>
      <trkpt lat="43.3291" lon="-0.1122">
        <ele>349.0958252</ele>
        <time>2010-09-19T07:42:44Z</time>
      </trkpt>
      <trkpt lat="43.32889" lon="-0.11229">
        <ele>350.057251</ele>
        <time>2010-09-19T07:42:49Z</time>
      </trkpt>
      <trkpt lat="43.3288" lon="-0.11232">
        <ele>350.057251</ele>
        <time>2010-09-19T07:42:51Z</time>
      </trkpt>
      <trkpt lat="43.32851" lon="-0.11238">
        <ele>348.1346436</ele>
        <time>2010-09-19T07:42:57Z</time>
      </trkpt>
      <trkpt lat="43.3283" lon="-0.11237">
        <ele>346.2120361</ele>
        <time>2010-09-19T07:43:02Z</time>
      </trkpt>
      <trkpt lat="43.32809" lon="-0.11233">
        <ele>345.2506104</ele>
        <time>2010-09-19T07:43:07Z</time>
      </trkpt>
      <trkpt lat="43.32788" lon="-0.11233">
        <ele>342.84729</ele>
        <time>2010-09-19T07:43:12Z</time>
      </trkpt>
      <trkpt lat="43.32769" lon="-0.11232">
        <ele>339.482666</ele>
        <time>2010-09-19T07:43:17Z</time>
      </trkpt>
      <trkpt lat="43.32754" lon="-0.11235">
        <ele>341.8859863</ele>
        <time>2010-09-19T07:43:22Z</time>
      </trkpt>
      <trkpt lat="43.32741" lon="-0.11242">
        <ele>347.6539307</ele>
        <time>2010-09-19T07:43:29Z</time>
      </trkpt>
      <trkpt lat="43.32733" lon="-0.11243">
        <ele>348.1346436</ele>
        <time>2010-09-19T07:43:35Z</time>
      </trkpt>
      <trkpt lat="43.32724" lon="-0.11245">
        <ele>350.5378418</ele>
        <time>2010-09-19T07:43:42Z</time>
      </trkpt>
      <trkpt lat="43.32721" lon="-0.11245">
        <ele>350.5378418</ele>
        <time>2010-09-19T07:43:44Z</time>
      </trkpt>
      <trkpt lat="43.32718" lon="-0.11248">
        <ele>349.5765381</ele>
        <time>2010-09-19T07:43:47Z</time>
      </trkpt>
      <trkpt lat="43.32715" lon="-0.1125">
        <ele>347.6539307</ele>
        <time>2010-09-19T07:43:49Z</time>
      </trkpt>
      <trkpt lat="43.3271" lon="-0.11262">
        <ele>342.3666992</ele>
        <time>2010-09-19T07:43:56Z</time>
      </trkpt>
      <trkpt lat="43.3271" lon="-0.11271">
        <ele>338.0407715</ele>
        <time>2010-09-19T07:44:01Z</time>
      </trkpt>
      <trkpt lat="43.32708" lon="-0.11276">
        <ele>336.598877</ele>
        <time>2010-09-19T07:44:07Z</time>
      </trkpt>
      <trkpt lat="43.32707" lon="-0.11275">
        <ele>335.6373291</ele>
        <time>2010-09-19T07:44:11Z</time>
      </trkpt>
      <trkpt lat="43.32697" lon="-0.11275">
        <ele>334.1954346</ele>
        <time>2010-09-19T07:44:18Z</time>
      </trkpt>
      <trkpt lat="43.32692" lon="-0.11279">
        <ele>339.9633789</ele>
        <time>2010-09-19T07:44:21Z</time>
      </trkpt>
      <trkpt lat="43.32682" lon="-0.11277">
        <ele>340.9246826</ele>
        <time>2010-09-19T07:44:28Z</time>
      </trkpt>
      <trkpt lat="43.32672" lon="-0.11273">
        <ele>347.1732178</ele>
        <time>2010-09-19T07:44:35Z</time>
      </trkpt>
      <trkpt lat="43.32664" lon="-0.11266">
        <ele>354.3831787</ele>
        <time>2010-09-19T07:44:42Z</time>
      </trkpt>
      <trkpt lat="43.3266" lon="-0.11262">
        <ele>362.5543213</ele>
        <time>2010-09-19T07:44:47Z</time>
      </trkpt>
      <trkpt lat="43.32657" lon="-0.11255">
        <ele>360.151123</ele>
        <time>2010-09-19T07:44:51Z</time>
      </trkpt>
      <trkpt lat="43.32645" lon="-0.11258">
        <ele>358.7089844</ele>
        <time>2010-09-19T07:44:57Z</time>
      </trkpt>
      <trkpt lat="43.32637" lon="-0.1126">
        <ele>357.2670898</ele>
        <time>2010-09-19T07:44:59Z</time>
      </trkpt>
      <trkpt lat="43.32612" lon="-0.11271">
        <ele>350.057251</ele>
        <time>2010-09-19T07:45:05Z</time>
      </trkpt>
      <trkpt lat="43.32602" lon="-0.11286">
        <ele>349.0958252</ele>
        <time>2010-09-19T07:45:10Z</time>
      </trkpt>
      <trkpt lat="43.32597" lon="-0.11295">
        <ele>348.6152344</ele>
        <time>2010-09-19T07:45:12Z</time>
      </trkpt>
      <trkpt lat="43.32588" lon="-0.11303">
        <ele>346.2120361</ele>
        <time>2010-09-19T07:45:17Z</time>
      </trkpt>
      <trkpt lat="43.32573" lon="-0.11311">
        <ele>345.7313232</ele>
        <time>2010-09-19T07:45:24Z</time>
      </trkpt>
      <trkpt lat="43.32569" lon="-0.11312">
        <ele>341.4052734</ele>
        <time>2010-09-19T07:45:30Z</time>
      </trkpt>
      <trkpt lat="43.32565" lon="-0.11315">
        <ele>337.5600586</ele>
        <time>2010-09-19T07:45:41Z</time>
      </trkpt>
      <trkpt lat="43.32557" lon="-0.11319">
        <ele>336.1181641</ele>
        <time>2010-09-19T07:45:46Z</time>
      </trkpt>
      <trkpt lat="43.32551" lon="-0.11315">
        <ele>334.6761475</ele>
        <time>2010-09-19T07:45:51Z</time>
      </trkpt>
      <trkpt lat="43.32549" lon="-0.11315">
        <ele>333.7147217</ele>
        <time>2010-09-19T07:45:53Z</time>
      </trkpt>
      <trkpt lat="43.32542" lon="-0.1131">
        <ele>334.1954346</ele>
        <time>2010-09-19T07:45:59Z</time>
      </trkpt>
      <trkpt lat="43.32532" lon="-0.11303">
        <ele>338.0407715</ele>
        <time>2010-09-19T07:46:06Z</time>
      </trkpt>
      <trkpt lat="43.32523" lon="-0.11296">
        <ele>344.2894287</ele>
        <time>2010-09-19T07:46:11Z</time>
      </trkpt>
      <trkpt lat="43.32514" lon="-0.11288">
        <ele>349.5765381</ele>
        <time>2010-09-19T07:46:16Z</time>
      </trkpt>
      <trkpt lat="43.32506" lon="-0.11279">
        <ele>344.2894287</ele>
        <time>2010-09-19T07:46:21Z</time>
      </trkpt>
      <trkpt lat="43.32496" lon="-0.11271">
        <ele>342.3666992</ele>
        <time>2010-09-19T07:46:28Z</time>
      </trkpt>
      <trkpt lat="43.32484" lon="-0.11263">
        <ele>343.8085938</ele>
        <time>2010-09-19T07:46:35Z</time>
      </trkpt>
      <trkpt lat="43.3247" lon="-0.11254">
        <ele>348.6152344</ele>
        <time>2010-09-19T07:46:44Z</time>
      </trkpt>
      <trkpt lat="43.32458" lon="-0.11246">
        <ele>351.0184326</ele>
        <time>2010-09-19T07:46:52Z</time>
      </trkpt>
      <trkpt lat="43.32448" lon="-0.11238">
        <ele>352.4605713</ele>
        <time>2010-09-19T07:46:58Z</time>
      </trkpt>
      <trkpt lat="43.32438" lon="-0.11231">
        <ele>350.5378418</ele>
        <time>2010-09-19T07:47:05Z</time>
      </trkpt>
      <trkpt lat="43.32429" lon="-0.11227">
        <ele>352.4605713</ele>
        <time>2010-09-19T07:47:13Z</time>
      </trkpt>
      <trkpt lat="43.32424" lon="-0.11221">
        <ele>351.4991455</ele>
        <time>2010-09-19T07:47:20Z</time>
      </trkpt>
      <trkpt lat="43.32415" lon="-0.11215">
        <ele>353.421875</ele>
        <time>2010-09-19T07:47:27Z</time>
      </trkpt>
      <trkpt lat="43.3241" lon="-0.11211">
        <ele>354.8637695</ele>
        <time>2010-09-19T07:47:31Z</time>
      </trkpt>
      <trkpt lat="43.32399" lon="-0.11205">
        <ele>354.3831787</ele>
        <time>2010-09-19T07:47:39Z</time>
      </trkpt>
      <trkpt lat="43.3239" lon="-0.11199">
        <ele>352.9411621</ele>
        <time>2010-09-19T07:47:46Z</time>
      </trkpt>
      <trkpt lat="43.32383" lon="-0.11193">
        <ele>352.9411621</ele>
        <time>2010-09-19T07:47:52Z</time>
      </trkpt>
      <trkpt lat="43.32375" lon="-0.11189">
        <ele>354.8637695</ele>
        <time>2010-09-19T07:47:58Z</time>
      </trkpt>
      <trkpt lat="43.32365" lon="-0.11183">
        <ele>354.3831787</ele>
        <time>2010-09-19T07:48:04Z</time>
      </trkpt>
      <trkpt lat="43.32354" lon="-0.11174">
        <ele>357.2670898</ele>
        <time>2010-09-19T07:48:11Z</time>
      </trkpt>
      <trkpt lat="43.32341" lon="-0.11166">
        <ele>361.5931396</ele>
        <time>2010-09-19T07:48:19Z</time>
      </trkpt>
      <trkpt lat="43.32334" lon="-0.11163">
        <ele>361.5931396</ele>
        <time>2010-09-19T07:48:25Z</time>
      </trkpt>
      <trkpt lat="43.32328" lon="-0.11159">
        <ele>362.0737305</ele>
        <time>2010-09-19T07:48:29Z</time>
      </trkpt>
      <trkpt lat="43.32319" lon="-0.11156">
        <ele>363.0350342</ele>
        <time>2010-09-19T07:48:34Z</time>
      </trkpt>
      <trkpt lat="43.32302" lon="-0.11152">
        <ele>363.0350342</ele>
        <time>2010-09-19T07:48:42Z</time>
      </trkpt>
      <trkpt lat="43.32283" lon="-0.11148">
        <ele>363.0350342</ele>
        <time>2010-09-19T07:48:49Z</time>
      </trkpt>
      <trkpt lat="43.32268" lon="-0.1114">
        <ele>363.5157471</ele>
        <time>2010-09-19T07:48:55Z</time>
      </trkpt>
      <trkpt lat="43.32254" lon="-0.11132">
        <ele>364.4769287</ele>
        <time>2010-09-19T07:49:01Z</time>
      </trkpt>
      <trkpt lat="43.32233" lon="-0.11121">
        <ele>364.4769287</ele>
        <time>2010-09-19T07:49:08Z</time>
      </trkpt>
      <trkpt lat="43.32214" lon="-0.1111">
        <ele>365.4383545</ele>
        <time>2010-09-19T07:49:15Z</time>
      </trkpt>
      <trkpt lat="43.32195" lon="-0.11096">
        <ele>365.9189453</ele>
        <time>2010-09-19T07:49:23Z</time>
      </trkpt>
      <trkpt lat="43.32174" lon="-0.11083">
        <ele>366.3995361</ele>
        <time>2010-09-19T07:49:31Z</time>
      </trkpt>
      <trkpt lat="43.32149" lon="-0.11068">
        <ele>367.8415527</ele>
        <time>2010-09-19T07:49:40Z</time>
      </trkpt>
      <trkpt lat="43.32124" lon="-0.11055">
        <ele>367.8415527</ele>
        <time>2010-09-19T07:49:48Z</time>
      </trkpt>
      <trkpt lat="43.32099" lon="-0.1104">
        <ele>368.8029785</ele>
        <time>2010-09-19T07:49:57Z</time>
      </trkpt>
      <trkpt lat="43.32073" lon="-0.11025">
        <ele>368.8029785</ele>
        <time>2010-09-19T07:50:06Z</time>
      </trkpt>
      <trkpt lat="43.32061" lon="-0.1101">
        <ele>368.8029785</ele>
        <time>2010-09-19T07:50:12Z</time>
      </trkpt>
      <trkpt lat="43.32054" lon="-0.10999">
        <ele>368.3222656</ele>
        <time>2010-09-19T07:50:16Z</time>
      </trkpt>
      <trkpt lat="43.32046" lon="-0.10999">
        <ele>367.8415527</ele>
        <time>2010-09-19T07:50:21Z</time>
      </trkpt>
      <trkpt lat="43.32034" lon="-0.11003">
        <ele>369.7642822</ele>
        <time>2010-09-19T07:50:28Z</time>
      </trkpt>
      <trkpt lat="43.32029" lon="-0.11001">
        <ele>372.1674805</ele>
        <time>2010-09-19T07:50:30Z</time>
      </trkpt>
      <trkpt lat="43.32021" lon="-0.11005">
        <ele>370.244873</ele>
        <time>2010-09-19T07:50:34Z</time>
      </trkpt>
      <trkpt lat="43.32009" lon="-0.1101">
        <ele>371.2062988</ele>
        <time>2010-09-19T07:50:40Z</time>
      </trkpt>
      <trkpt lat="43.32003" lon="-0.11011">
        <ele>376.9742432</ele>
        <time>2010-09-19T07:50:46Z</time>
      </trkpt>
      <trkpt lat="43.31999" lon="-0.11013">
        <ele>374.5708008</ele>
        <time>2010-09-19T07:50:53Z</time>
      </trkpt>
      <trkpt lat="43.31998" lon="-0.11013">
        <ele>371.2062988</ele>
        <time>2010-09-19T07:51:02Z</time>
      </trkpt>
      <trkpt lat="43.32001" lon="-0.1101">
        <ele>368.3222656</ele>
        <time>2010-09-19T07:51:32Z</time>
      </trkpt>
      <trkpt lat="43.31998" lon="-0.11011">
        <ele>366.3995361</ele>
        <time>2010-09-19T07:51:48Z</time>
      </trkpt>
      <trkpt lat="43.31997" lon="-0.1101">
        <ele>369.7642822</ele>
        <time>2010-09-19T07:52:37Z</time>
      </trkpt>
      <trkpt lat="43.31997" lon="-0.11009">
        <ele>374.0900879</ele>
        <time>2010-09-19T07:53:23Z</time>
      </trkpt>
      <trkpt lat="43.31997" lon="-0.11008">
        <ele>375.0515137</ele>
        <time>2010-09-19T07:53:54Z</time>
      </trkpt>
      <trkpt lat="43.31996" lon="-0.1101">
        <ele>376.0128174</ele>
        <time>2010-09-19T07:53:58Z</time>
      </trkpt>
      <trkpt lat="43.31999" lon="-0.1103">
        <ele>374.0900879</ele>
        <time>2010-09-19T07:54:04Z</time>
      </trkpt>
      <trkpt lat="43.32002" lon="-0.11039">
        <ele>375.0515137</ele>
        <time>2010-09-19T07:54:06Z</time>
      </trkpt>
      <trkpt lat="43.32016" lon="-0.1107">
        <ele>370.244873</ele>
        <time>2010-09-19T07:54:10Z</time>
      </trkpt>
      <trkpt lat="43.32033" lon="-0.11098">
        <ele>365.9189453</ele>
        <time>2010-09-19T07:54:13Z</time>
      </trkpt>
      <trkpt lat="43.32045" lon="-0.11113">
        <ele>365.4383545</ele>
        <time>2010-09-19T07:54:15Z</time>
      </trkpt>
      <trkpt lat="43.32091" lon="-0.11153">
        <ele>362.0737305</ele>
        <time>2010-09-19T07:54:21Z</time>
      </trkpt>
      <trkpt lat="43.32097" lon="-0.11159">
        <ele>362.0737305</ele>
        <time>2010-09-19T07:54:22Z</time>
      </trkpt>
      <trkpt lat="43.32149" lon="-0.11197">
        <ele>359.1896973</ele>
        <time>2010-09-19T07:54:29Z</time>
      </trkpt>
      <trkpt lat="43.32187" lon="-0.11228">
        <ele>356.3057861</ele>
        <time>2010-09-19T07:54:35Z</time>
      </trkpt>
      <trkpt lat="43.32232" lon="-0.11252">
        <ele>352.4605713</ele>
        <time>2010-09-19T07:54:41Z</time>
      </trkpt>
      <trkpt lat="43.32269" lon="-0.11274">
        <ele>348.6152344</ele>
        <time>2010-09-19T07:54:46Z</time>
      </trkpt>
      <trkpt lat="43.32284" lon="-0.11286">
        <ele>346.2120361</ele>
        <time>2010-09-19T07:54:48Z</time>
      </trkpt>
      <trkpt lat="43.32306" lon="-0.11313">
        <ele>339.0020752</ele>
        <time>2010-09-19T07:54:52Z</time>
      </trkpt>
      <trkpt lat="43.32322" lon="-0.11342">
        <ele>333.2341309</ele>
        <time>2010-09-19T07:54:56Z</time>
      </trkpt>
      <trkpt lat="43.32312" lon="-0.11367">
        <ele>327.9467773</ele>
        <time>2010-09-19T07:55:00Z</time>
      </trkpt>
      <trkpt lat="43.32297" lon="-0.11384">
        <ele>326.0241699</ele>
        <time>2010-09-19T07:55:02Z</time>
      </trkpt>
      <trkpt lat="43.32274" lon="-0.11412">
        <ele>322.1789551</ele>
        <time>2010-09-19T07:55:05Z</time>
      </trkpt>
      <trkpt lat="43.32241" lon="-0.11457">
        <ele>313.0465088</ele>
        <time>2010-09-19T07:55:10Z</time>
      </trkpt>
      <trkpt lat="43.32218" lon="-0.11508">
        <ele>311.6044922</ele>
        <time>2010-09-19T07:55:15Z</time>
      </trkpt>
      <trkpt lat="43.3222" lon="-0.11541">
        <ele>315.4498291</ele>
        <time>2010-09-19T07:55:19Z</time>
      </trkpt>
      <trkpt lat="43.32228" lon="-0.11559">
        <ele>314.9691162</ele>
        <time>2010-09-19T07:55:23Z</time>
      </trkpt>
      <trkpt lat="43.32247" lon="-0.11575">
        <ele>314.9691162</ele>
        <time>2010-09-19T07:55:29Z</time>
      </trkpt>
      <trkpt lat="43.32287" lon="-0.116">
        <ele>314.9691162</ele>
        <time>2010-09-19T07:55:37Z</time>
      </trkpt>
      <trkpt lat="43.32326" lon="-0.11628">
        <ele>315.9304199</ele>
        <time>2010-09-19T07:55:45Z</time>
      </trkpt>
      <trkpt lat="43.32358" lon="-0.1165">
        <ele>315.9304199</ele>
        <time>2010-09-19T07:55:52Z</time>
      </trkpt>
      <trkpt lat="43.32395" lon="-0.11672">
        <ele>316.4110107</ele>
        <time>2010-09-19T07:55:59Z</time>
      </trkpt>
      <trkpt lat="43.3245" lon="-0.11686">
        <ele>316.4110107</ele>
        <time>2010-09-19T07:56:08Z</time>
      </trkpt>
      <trkpt lat="43.32495" lon="-0.11696">
        <ele>314.4884033</ele>
        <time>2010-09-19T07:56:15Z</time>
      </trkpt>
      <trkpt lat="43.32546" lon="-0.11711">
        <ele>315.4498291</ele>
        <time>2010-09-19T07:56:23Z</time>
      </trkpt>
      <trkpt lat="43.32581" lon="-0.11728">
        <ele>315.4498291</ele>
        <time>2010-09-19T07:56:30Z</time>
      </trkpt>
      <trkpt lat="43.32631" lon="-0.11751">
        <ele>315.4498291</ele>
        <time>2010-09-19T07:56:39Z</time>
      </trkpt>
      <trkpt lat="43.32657" lon="-0.11777">
        <ele>316.4110107</ele>
        <time>2010-09-19T07:56:45Z</time>
      </trkpt>
      <trkpt lat="43.32679" lon="-0.11799">
        <ele>318.3336182</ele>
        <time>2010-09-19T07:56:51Z</time>
      </trkpt>
      <trkpt lat="43.327" lon="-0.11821">
        <ele>321.2177734</ele>
        <time>2010-09-19T07:56:58Z</time>
      </trkpt>
      <trkpt lat="43.3271" lon="-0.11842">
        <ele>321.6983643</ele>
        <time>2010-09-19T07:57:03Z</time>
      </trkpt>
      <trkpt lat="43.32711" lon="-0.11872">
        <ele>322.659668</ele>
        <time>2010-09-19T07:57:09Z</time>
      </trkpt>
      <trkpt lat="43.32714" lon="-0.11914">
        <ele>324.5822754</ele>
        <time>2010-09-19T07:57:18Z</time>
      </trkpt>
      <trkpt lat="43.32711" lon="-0.11941">
        <ele>326.5048828</ele>
        <time>2010-09-19T07:57:25Z</time>
      </trkpt>
      <trkpt lat="43.32705" lon="-0.11976">
        <ele>327.4661865</ele>
        <time>2010-09-19T07:57:34Z</time>
      </trkpt>
      <trkpt lat="43.32698" lon="-0.12017">
        <ele>330.8309326</ele>
        <time>2010-09-19T07:57:45Z</time>
      </trkpt>
      <trkpt lat="43.32694" lon="-0.12048">
        <ele>333.2341309</ele>
        <time>2010-09-19T07:57:54Z</time>
      </trkpt>
      <trkpt lat="43.3269" lon="-0.12073">
        <ele>335.6373291</ele>
        <time>2010-09-19T07:58:01Z</time>
      </trkpt>
      <trkpt lat="43.32685" lon="-0.12103">
        <ele>338.0407715</ele>
        <time>2010-09-19T07:58:10Z</time>
      </trkpt>
      <trkpt lat="43.32682" lon="-0.12128">
        <ele>339.9633789</ele>
        <time>2010-09-19T07:58:18Z</time>
      </trkpt>
      <trkpt lat="43.32678" lon="-0.12157">
        <ele>341.8859863</ele>
        <time>2010-09-19T07:58:27Z</time>
      </trkpt>
      <trkpt lat="43.32679" lon="-0.12191">
        <ele>344.2894287</ele>
        <time>2010-09-19T07:58:38Z</time>
      </trkpt>
      <trkpt lat="43.3268" lon="-0.12196">
        <ele>346.2120361</ele>
        <time>2010-09-19T07:58:40Z</time>
      </trkpt>
      <trkpt lat="43.32689" lon="-0.12196">
        <ele>347.6539307</ele>
        <time>2010-09-19T07:58:45Z</time>
      </trkpt>
      <trkpt lat="43.32709" lon="-0.12183">
        <ele>345.2506104</ele>
        <time>2010-09-19T07:58:50Z</time>
      </trkpt>
      <trkpt lat="43.32738" lon="-0.12173">
        <ele>343.8085938</ele>
        <time>2010-09-19T07:58:55Z</time>
      </trkpt>
      <trkpt lat="43.32791" lon="-0.1216">
        <ele>342.3666992</ele>
        <time>2010-09-19T07:59:03Z</time>
      </trkpt>
      <trkpt lat="43.32824" lon="-0.12161">
        <ele>342.3666992</ele>
        <time>2010-09-19T07:59:09Z</time>
      </trkpt>
      <trkpt lat="43.32853" lon="-0.12167">
        <ele>339.9633789</ele>
        <time>2010-09-19T07:59:13Z</time>
      </trkpt>
      <trkpt lat="43.32871" lon="-0.12169">
        <ele>338.5214844</ele>
        <time>2010-09-19T07:59:15Z</time>
      </trkpt>
      <trkpt lat="43.32908" lon="-0.12154">
        <ele>335.6373291</ele>
        <time>2010-09-19T07:59:19Z</time>
      </trkpt>
      <trkpt lat="43.32916" lon="-0.12147">
        <ele>335.6373291</ele>
        <time>2010-09-19T07:59:20Z</time>
      </trkpt>
      <trkpt lat="43.32952" lon="-0.12118">
        <ele>336.598877</ele>
        <time>2010-09-19T07:59:25Z</time>
      </trkpt>
      <trkpt lat="43.32994" lon="-0.12102">
        <ele>336.1181641</ele>
        <time>2010-09-19T07:59:31Z</time>
      </trkpt>
      <trkpt lat="43.33034" lon="-0.1209">
        <ele>334.6761475</ele>
        <time>2010-09-19T07:59:37Z</time>
      </trkpt>
      <trkpt lat="43.3308" lon="-0.12085">
        <ele>332.75354</ele>
        <time>2010-09-19T07:59:43Z</time>
      </trkpt>
      <trkpt lat="43.33126" lon="-0.12082">
        <ele>329.8695068</ele>
        <time>2010-09-19T07:59:48Z</time>
      </trkpt>
      <trkpt lat="43.33159" lon="-0.1206">
        <ele>326.9855957</ele>
        <time>2010-09-19T07:59:52Z</time>
      </trkpt>
      <trkpt lat="43.3321" lon="-0.12012">
        <ele>322.659668</ele>
        <time>2010-09-19T07:59:58Z</time>
      </trkpt>
      <trkpt lat="43.3323" lon="-0.11998">
        <ele>321.2177734</ele>
        <time>2010-09-19T08:00:00Z</time>
      </trkpt>
      <trkpt lat="43.33271" lon="-0.11992">
        <ele>321.2177734</ele>
        <time>2010-09-19T08:00:04Z</time>
      </trkpt>
      <trkpt lat="43.33279" lon="-0.11994">
        <ele>322.1789551</ele>
        <time>2010-09-19T08:00:05Z</time>
      </trkpt>
      <trkpt lat="43.33306" lon="-0.12004">
        <ele>324.1015625</ele>
        <time>2010-09-19T08:00:09Z</time>
      </trkpt>
      <trkpt lat="43.33322" lon="-0.12003">
        <ele>325.0629883</ele>
        <time>2010-09-19T08:00:12Z</time>
      </trkpt>
      <trkpt lat="43.33347" lon="-0.11998">
        <ele>326.5048828</ele>
        <time>2010-09-19T08:00:18Z</time>
      </trkpt>
      <trkpt lat="43.33353" lon="-0.11997">
        <ele>326.9855957</ele>
        <time>2010-09-19T08:00:20Z</time>
      </trkpt>
      <trkpt lat="43.33357" lon="-0.11978">
        <ele>326.0241699</ele>
        <time>2010-09-19T08:00:24Z</time>
      </trkpt>
      <trkpt lat="43.33361" lon="-0.11946">
        <ele>322.659668</ele>
        <time>2010-09-19T08:00:28Z</time>
      </trkpt>
      <trkpt lat="43.33363" lon="-0.11936">
        <ele>322.1789551</ele>
        <time>2010-09-19T08:00:29Z</time>
      </trkpt>
      <trkpt lat="43.33386" lon="-0.11886">
        <ele>317.3724365</ele>
        <time>2010-09-19T08:00:34Z</time>
      </trkpt>
      <trkpt lat="43.33439" lon="-0.11806">
        <ele>313.0465088</ele>
        <time>2010-09-19T08:00:42Z</time>
      </trkpt>
      <trkpt lat="43.33506" lon="-0.11708">
        <ele>310.1624756</ele>
        <time>2010-09-19T08:00:52Z</time>
      </trkpt>
      <trkpt lat="43.33553" lon="-0.11637">
        <ele>306.7978516</ele>
        <time>2010-09-19T08:01:00Z</time>
      </trkpt>
      <trkpt lat="43.33564" lon="-0.11616">
        <ele>305.8366699</ele>
        <time>2010-09-19T08:01:03Z</time>
      </trkpt>
      <trkpt lat="43.33575" lon="-0.11608">
        <ele>306.3172607</ele>
        <time>2010-09-19T08:01:07Z</time>
      </trkpt>
      <trkpt lat="43.33579" lon="-0.11613">
        <ele>307.7592773</ele>
        <time>2010-09-19T08:01:09Z</time>
      </trkpt>
      <trkpt lat="43.33595" lon="-0.11648">
        <ele>311.1237793</ele>
        <time>2010-09-19T08:01:18Z</time>
      </trkpt>
      <trkpt lat="43.3361" lon="-0.11687">
        <ele>314.0078125</ele>
        <time>2010-09-19T08:01:28Z</time>
      </trkpt>
      <trkpt lat="43.33625" lon="-0.11725">
        <ele>317.3724365</ele>
        <time>2010-09-19T08:01:38Z</time>
      </trkpt>
      <trkpt lat="43.33634" lon="-0.11756">
        <ele>320.2563477</ele>
        <time>2010-09-19T08:01:47Z</time>
      </trkpt>
      <trkpt lat="43.33645" lon="-0.11785">
        <ele>322.659668</ele>
        <time>2010-09-19T08:01:56Z</time>
      </trkpt>
      <trkpt lat="43.33655" lon="-0.11796">
        <ele>323.6209717</ele>
        <time>2010-09-19T08:02:01Z</time>
      </trkpt>
      <trkpt lat="43.33662" lon="-0.11796">
        <ele>324.5822754</ele>
        <time>2010-09-19T08:02:05Z</time>
      </trkpt>
      <trkpt lat="43.33676" lon="-0.11785">
        <ele>327.4661865</ele>
        <time>2010-09-19T08:02:13Z</time>
      </trkpt>
      <trkpt lat="43.33692" lon="-0.11771">
        <ele>323.6209717</ele>
        <time>2010-09-19T08:02:18Z</time>
      </trkpt>
      <trkpt lat="43.33708" lon="-0.11761">
        <ele>319.2950439</ele>
        <time>2010-09-19T08:02:22Z</time>
      </trkpt>
      <trkpt lat="43.33721" lon="-0.1175">
        <ele>314.0078125</ele>
        <time>2010-09-19T08:02:26Z</time>
      </trkpt>
      <trkpt lat="43.33738" lon="-0.11728">
        <ele>309.6818848</ele>
        <time>2010-09-19T08:02:32Z</time>
      </trkpt>
      <trkpt lat="43.33752" lon="-0.11704">
        <ele>306.7978516</ele>
        <time>2010-09-19T08:02:37Z</time>
      </trkpt>
      <trkpt lat="43.33772" lon="-0.11665">
        <ele>312.0852051</ele>
        <time>2010-09-19T08:02:44Z</time>
      </trkpt>
      <trkpt lat="43.33788" lon="-0.11645">
        <ele>314.9691162</ele>
        <time>2010-09-19T08:02:49Z</time>
      </trkpt>
      <trkpt lat="43.33816" lon="-0.11623">
        <ele>317.8530273</ele>
        <time>2010-09-19T08:02:57Z</time>
      </trkpt>
      <trkpt lat="43.33836" lon="-0.11605">
        <ele>315.4498291</ele>
        <time>2010-09-19T08:03:02Z</time>
      </trkpt>
      <trkpt lat="43.33862" lon="-0.11585">
        <ele>315.4498291</ele>
        <time>2010-09-19T08:03:08Z</time>
      </trkpt>
      <trkpt lat="43.33883" lon="-0.1157">
        <ele>317.8530273</ele>
        <time>2010-09-19T08:03:14Z</time>
      </trkpt>
      <trkpt lat="43.3392" lon="-0.11557">
        <ele>317.8530273</ele>
        <time>2010-09-19T08:03:22Z</time>
      </trkpt>
      <trkpt lat="43.33954" lon="-0.11548">
        <ele>317.3724365</ele>
        <time>2010-09-19T08:03:29Z</time>
      </trkpt>
      <trkpt lat="43.3398" lon="-0.11546">
        <ele>317.3724365</ele>
        <time>2010-09-19T08:03:36Z</time>
      </trkpt>
      <trkpt lat="43.34003" lon="-0.11545">
        <ele>318.8143311</ele>
        <time>2010-09-19T08:03:43Z</time>
      </trkpt>
      <trkpt lat="43.34023" lon="-0.11548">
        <ele>321.2177734</ele>
        <time>2010-09-19T08:03:50Z</time>
      </trkpt>
      <trkpt lat="43.34051" lon="-0.11557">
        <ele>322.1789551</ele>
        <time>2010-09-19T08:03:58Z</time>
      </trkpt>
      <trkpt lat="43.34074" lon="-0.11567">
        <ele>323.6209717</ele>
        <time>2010-09-19T08:04:05Z</time>
      </trkpt>
      <trkpt lat="43.34094" lon="-0.11575">
        <ele>324.5822754</ele>
        <time>2010-09-19T08:04:11Z</time>
      </trkpt>
      <trkpt lat="43.34115" lon="-0.11581">
        <ele>325.5435791</ele>
        <time>2010-09-19T08:04:18Z</time>
      </trkpt>
      <trkpt lat="43.34129" lon="-0.11588">
        <ele>325.5435791</ele>
        <time>2010-09-19T08:04:23Z</time>
      </trkpt>
      <trkpt lat="43.34148" lon="-0.11596">
        <ele>326.9855957</ele>
        <time>2010-09-19T08:04:30Z</time>
      </trkpt>
      <trkpt lat="43.3416" lon="-0.11601">
        <ele>326.9855957</ele>
        <time>2010-09-19T08:04:35Z</time>
      </trkpt>
      <trkpt lat="43.34169" lon="-0.11604">
        <ele>327.9467773</ele>
        <time>2010-09-19T08:04:40Z</time>
      </trkpt>
      <trkpt lat="43.34182" lon="-0.11612">
        <ele>330.3502197</ele>
        <time>2010-09-19T08:04:46Z</time>
      </trkpt>
      <trkpt lat="43.34202" lon="-0.11621">
        <ele>330.8309326</ele>
        <time>2010-09-19T08:04:54Z</time>
      </trkpt>
      <trkpt lat="43.34213" lon="-0.11629">
        <ele>331.7921143</ele>
        <time>2010-09-19T08:05:00Z</time>
      </trkpt>
      <trkpt lat="43.34218" lon="-0.11633">
        <ele>331.7921143</ele>
        <time>2010-09-19T08:05:04Z</time>
      </trkpt>
      <trkpt lat="43.34229" lon="-0.11637">
        <ele>330.8309326</ele>
        <time>2010-09-19T08:05:10Z</time>
      </trkpt>
      <trkpt lat="43.3424" lon="-0.11641">
        <ele>330.3502197</ele>
        <time>2010-09-19T08:05:15Z</time>
      </trkpt>
      <trkpt lat="43.34261" lon="-0.1165">
        <ele>327.4661865</ele>
        <time>2010-09-19T08:05:20Z</time>
      </trkpt>
      <trkpt lat="43.34271" lon="-0.11654">
        <ele>326.0241699</ele>
        <time>2010-09-19T08:05:22Z</time>
      </trkpt>
      <trkpt lat="43.34289" lon="-0.11679">
        <ele>323.6209717</ele>
        <time>2010-09-19T08:05:27Z</time>
      </trkpt>
      <trkpt lat="43.34293" lon="-0.11685">
        <ele>322.659668</ele>
        <time>2010-09-19T08:05:28Z</time>
      </trkpt>
      <trkpt lat="43.34312" lon="-0.11697">
        <ele>321.2177734</ele>
        <time>2010-09-19T08:05:32Z</time>
      </trkpt>
      <trkpt lat="43.34334" lon="-0.11685">
        <ele>318.3336182</ele>
        <time>2010-09-19T08:05:35Z</time>
      </trkpt>
      <trkpt lat="43.34341" lon="-0.1168">
        <ele>317.8530273</ele>
        <time>2010-09-19T08:05:36Z</time>
      </trkpt>
      <trkpt lat="43.34372" lon="-0.11658">
        <ele>314.0078125</ele>
        <time>2010-09-19T08:05:40Z</time>
      </trkpt>
      <trkpt lat="43.34396" lon="-0.11645">
        <ele>313.0465088</ele>
        <time>2010-09-19T08:05:45Z</time>
      </trkpt>
      <trkpt lat="43.3441" lon="-0.11639">
        <ele>314.9691162</ele>
        <time>2010-09-19T08:05:50Z</time>
      </trkpt>
      <trkpt lat="43.34435" lon="-0.11626">
        <ele>313.5272217</ele>
        <time>2010-09-19T08:05:58Z</time>
      </trkpt>
      <trkpt lat="43.34465" lon="-0.11613">
        <ele>313.0465088</ele>
        <time>2010-09-19T08:06:06Z</time>
      </trkpt>
      <trkpt lat="43.34493" lon="-0.11601">
        <ele>313.5272217</ele>
        <time>2010-09-19T08:06:13Z</time>
      </trkpt>
      <trkpt lat="43.34515" lon="-0.11593">
        <ele>314.9691162</ele>
        <time>2010-09-19T08:06:20Z</time>
      </trkpt>
      <trkpt lat="43.34535" lon="-0.11594">
        <ele>315.4498291</ele>
        <time>2010-09-19T08:06:26Z</time>
      </trkpt>
      <trkpt lat="43.34547" lon="-0.11601">
        <ele>315.4498291</ele>
        <time>2010-09-19T08:06:29Z</time>
      </trkpt>
      <trkpt lat="43.34565" lon="-0.11606">
        <ele>315.4498291</ele>
        <time>2010-09-19T08:06:33Z</time>
      </trkpt>
      <trkpt lat="43.34582" lon="-0.11604">
        <ele>315.9304199</ele>
        <time>2010-09-19T08:06:37Z</time>
      </trkpt>
      <trkpt lat="43.34591" lon="-0.11605">
        <ele>315.9304199</ele>
        <time>2010-09-19T08:06:39Z</time>
      </trkpt>
      <trkpt lat="43.3461" lon="-0.11612">
        <ele>316.8917236</ele>
        <time>2010-09-19T08:06:43Z</time>
      </trkpt>
      <trkpt lat="43.34636" lon="-0.11608">
        <ele>314.0078125</ele>
        <time>2010-09-19T08:06:48Z</time>
      </trkpt>
      <trkpt lat="43.34676" lon="-0.116">
        <ele>312.5657959</ele>
        <time>2010-09-19T08:06:55Z</time>
      </trkpt>
      <trkpt lat="43.34704" lon="-0.11597">
        <ele>312.0852051</ele>
        <time>2010-09-19T08:07:01Z</time>
      </trkpt>
      <trkpt lat="43.34709" lon="-0.11596">
        <ele>312.0852051</ele>
        <time>2010-09-19T08:07:02Z</time>
      </trkpt>
      <trkpt lat="43.34721" lon="-0.11585">
        <ele>310.1624756</ele>
        <time>2010-09-19T08:07:06Z</time>
      </trkpt>
      <trkpt lat="43.3472" lon="-0.11578">
        <ele>309.6818848</ele>
        <time>2010-09-19T08:07:07Z</time>
      </trkpt>
      <trkpt lat="43.34714" lon="-0.11528">
        <ele>304.8752441</ele>
        <time>2010-09-19T08:07:12Z</time>
      </trkpt>
      <trkpt lat="43.34707" lon="-0.1145">
        <ele>297.6654053</ele>
        <time>2010-09-19T08:07:18Z</time>
      </trkpt>
      <trkpt lat="43.34698" lon="-0.11392">
        <ele>293.3393555</ele>
        <time>2010-09-19T08:07:22Z</time>
      </trkpt>
      <trkpt lat="43.34686" lon="-0.11304">
        <ele>286.1295166</ele>
        <time>2010-09-19T08:07:28Z</time>
      </trkpt>
      <trkpt lat="43.34686" lon="-0.11258">
        <ele>281.8035889</ele>
        <time>2010-09-19T08:07:31Z</time>
      </trkpt>
      <trkpt lat="43.34697" lon="-0.11192">
        <ele>276.5163574</ele>
        <time>2010-09-19T08:07:36Z</time>
      </trkpt>
      <trkpt lat="43.347" lon="-0.11182">
        <ele>275.5550537</ele>
        <time>2010-09-19T08:07:37Z</time>
      </trkpt>
      <trkpt lat="43.3472" lon="-0.11162">
        <ele>274.59375</ele>
        <time>2010-09-19T08:07:41Z</time>
      </trkpt>
      <trkpt lat="43.34727" lon="-0.11161">
        <ele>274.1130371</ele>
        <time>2010-09-19T08:07:42Z</time>
      </trkpt>
      <trkpt lat="43.34777" lon="-0.11161">
        <ele>273.1518555</ele>
        <time>2010-09-19T08:07:50Z</time>
      </trkpt>
      <trkpt lat="43.34835" lon="-0.11154">
        <ele>272.6711426</ele>
        <time>2010-09-19T08:07:59Z</time>
      </trkpt>
      <trkpt lat="43.34863" lon="-0.1115">
        <ele>273.1518555</ele>
        <time>2010-09-19T08:08:05Z</time>
      </trkpt>
      <trkpt lat="43.34868" lon="-0.1115">
        <ele>274.1130371</ele>
        <time>2010-09-19T08:08:09Z</time>
      </trkpt>
      <trkpt lat="43.34866" lon="-0.11164">
        <ele>290.4555664</ele>
        <time>2010-09-19T08:08:38Z</time>
      </trkpt>
      <trkpt lat="43.3487" lon="-0.11161">
        <ele>286.1295166</ele>
        <time>2010-09-19T08:08:48Z</time>
      </trkpt>
      <trkpt lat="43.34886" lon="-0.11159">
        <ele>283.2456055</ele>
        <time>2010-09-19T08:08:54Z</time>
      </trkpt>
      <trkpt lat="43.34912" lon="-0.1116">
        <ele>281.8035889</ele>
        <time>2010-09-19T08:09:00Z</time>
      </trkpt>
      <trkpt lat="43.34961" lon="-0.1116">
        <ele>278.4389648</ele>
        <time>2010-09-19T08:09:10Z</time>
      </trkpt>
      <trkpt lat="43.34996" lon="-0.1116">
        <ele>277.958252</ele>
        <time>2010-09-19T08:09:18Z</time>
      </trkpt>
      <trkpt lat="43.35032" lon="-0.11163">
        <ele>279.4002686</ele>
        <time>2010-09-19T08:09:26Z</time>
      </trkpt>
      <trkpt lat="43.35068" lon="-0.11164">
        <ele>280.8424072</ele>
        <time>2010-09-19T08:09:34Z</time>
      </trkpt>
      <trkpt lat="43.35104" lon="-0.11165">
        <ele>282.2843018</ele>
        <time>2010-09-19T08:09:42Z</time>
      </trkpt>
      <trkpt lat="43.35151" lon="-0.11167">
        <ele>282.7650146</ele>
        <time>2010-09-19T08:09:52Z</time>
      </trkpt>
      <trkpt lat="43.35211" lon="-0.1117">
        <ele>282.2843018</ele>
        <time>2010-09-19T08:10:04Z</time>
      </trkpt>
      <trkpt lat="43.35267" lon="-0.11172">
        <ele>281.322998</ele>
        <time>2010-09-19T08:10:14Z</time>
      </trkpt>
      <trkpt lat="43.3531" lon="-0.11173">
        <ele>280.3616943</ele>
        <time>2010-09-19T08:10:22Z</time>
      </trkpt>
      <trkpt lat="43.35368" lon="-0.11176">
        <ele>280.3616943</ele>
        <time>2010-09-19T08:10:32Z</time>
      </trkpt>
      <trkpt lat="43.35421" lon="-0.11183">
        <ele>279.8808594</ele>
        <time>2010-09-19T08:10:41Z</time>
      </trkpt>
      <trkpt lat="43.35486" lon="-0.11189">
        <ele>278.9196777</ele>
        <time>2010-09-19T08:10:52Z</time>
      </trkpt>
      <trkpt lat="43.3553" lon="-0.11197">
        <ele>276.9970703</ele>
        <time>2010-09-19T08:10:59Z</time>
      </trkpt>
      <trkpt lat="43.35602" lon="-0.11217">
        <ele>276.5163574</ele>
        <time>2010-09-19T08:11:10Z</time>
      </trkpt>
      <trkpt lat="43.35668" lon="-0.11236">
        <ele>276.5163574</ele>
        <time>2010-09-19T08:11:21Z</time>
      </trkpt>
      <trkpt lat="43.3571" lon="-0.11254">
        <ele>276.9970703</ele>
        <time>2010-09-19T08:11:28Z</time>
      </trkpt>
      <trkpt lat="43.35758" lon="-0.11278">
        <ele>277.958252</ele>
        <time>2010-09-19T08:11:37Z</time>
      </trkpt>
      <trkpt lat="43.35796" lon="-0.11295">
        <ele>279.4002686</ele>
        <time>2010-09-19T08:11:45Z</time>
      </trkpt>
      <trkpt lat="43.35839" lon="-0.11315">
        <ele>278.9196777</ele>
        <time>2010-09-19T08:11:54Z</time>
      </trkpt>
      <trkpt lat="43.35845" lon="-0.11318">
        <ele>278.9196777</ele>
        <time>2010-09-19T08:11:55Z</time>
      </trkpt>
      <trkpt lat="43.35863" lon="-0.11341">
        <ele>279.8808594</ele>
        <time>2010-09-19T08:12:00Z</time>
      </trkpt>
      <trkpt lat="43.35878" lon="-0.11373">
        <ele>281.8035889</ele>
        <time>2010-09-19T08:12:07Z</time>
      </trkpt>
      <trkpt lat="43.35891" lon="-0.11369">
        <ele>280.8424072</ele>
        <time>2010-09-19T08:12:11Z</time>
      </trkpt>
      <trkpt lat="43.35895" lon="-0.11365">
        <ele>280.3616943</ele>
        <time>2010-09-19T08:12:12Z</time>
      </trkpt>
      <trkpt lat="43.35927" lon="-0.11335">
        <ele>275.0744629</ele>
        <time>2010-09-19T08:12:18Z</time>
      </trkpt>
      <trkpt lat="43.35967" lon="-0.11307">
        <ele>272.1904297</ele>
        <time>2010-09-19T08:12:24Z</time>
      </trkpt>
      <trkpt lat="43.35975" lon="-0.11304">
        <ele>271.7097168</ele>
        <time>2010-09-19T08:12:25Z</time>
      </trkpt>
      <trkpt lat="43.36028" lon="-0.11297">
        <ele>271.229126</ele>
        <time>2010-09-19T08:12:32Z</time>
      </trkpt>
      <trkpt lat="43.36072" lon="-0.11298">
        <ele>269.7871094</ele>
        <time>2010-09-19T08:12:38Z</time>
      </trkpt>
      <trkpt lat="43.36098" lon="-0.11293">
        <ele>270.2677002</ele>
        <time>2010-09-19T08:12:42Z</time>
      </trkpt>
      <trkpt lat="43.36127" lon="-0.11283">
        <ele>270.7484131</ele>
        <time>2010-09-19T08:12:47Z</time>
      </trkpt>
      <trkpt lat="43.36175" lon="-0.1129">
        <ele>271.7097168</ele>
        <time>2010-09-19T08:12:55Z</time>
      </trkpt>
      <trkpt lat="43.3622" lon="-0.113">
        <ele>270.2677002</ele>
        <time>2010-09-19T08:13:01Z</time>
      </trkpt>
      <trkpt lat="43.36285" lon="-0.11306">
        <ele>268.8258057</ele>
        <time>2010-09-19T08:13:09Z</time>
      </trkpt>
      <trkpt lat="43.3635" lon="-0.11304">
        <ele>267.3839111</ele>
        <time>2010-09-19T08:13:17Z</time>
      </trkpt>
      <trkpt lat="43.36397" lon="-0.11306">
        <ele>267.3839111</ele>
        <time>2010-09-19T08:13:23Z</time>
      </trkpt>
      <trkpt lat="43.36447" lon="-0.11306">
        <ele>266.4224854</ele>
        <time>2010-09-19T08:13:30Z</time>
      </trkpt>
      <trkpt lat="43.36484" lon="-0.11293">
        <ele>264.4998779</ele>
        <time>2010-09-19T08:13:35Z</time>
      </trkpt>
      <trkpt lat="43.36491" lon="-0.11291">
        <ele>264.0192871</ele>
        <time>2010-09-19T08:13:36Z</time>
      </trkpt>
      <trkpt lat="43.36514" lon="-0.11297">
        <ele>264.4998779</ele>
        <time>2010-09-19T08:13:40Z</time>
      </trkpt>
      <trkpt lat="43.36515" lon="-0.11315">
        <ele>265.4613037</ele>
        <time>2010-09-19T08:13:43Z</time>
      </trkpt>
      <trkpt lat="43.36513" lon="-0.1132">
        <ele>265.4613037</ele>
        <time>2010-09-19T08:13:44Z</time>
      </trkpt>
      <trkpt lat="43.36491" lon="-0.11376">
        <ele>267.3839111</ele>
        <time>2010-09-19T08:13:55Z</time>
      </trkpt>
      <trkpt lat="43.36467" lon="-0.11426">
        <ele>270.2677002</ele>
        <time>2010-09-19T08:14:06Z</time>
      </trkpt>
      <trkpt lat="43.36448" lon="-0.11466">
        <ele>272.6711426</ele>
        <time>2010-09-19T08:14:15Z</time>
      </trkpt>
      <trkpt lat="43.36431" lon="-0.11516">
        <ele>275.0744629</ele>
        <time>2010-09-19T08:14:26Z</time>
      </trkpt>
      <trkpt lat="43.36423" lon="-0.11546">
        <ele>276.5163574</ele>
        <time>2010-09-19T08:14:34Z</time>
      </trkpt>
      <trkpt lat="43.36414" lon="-0.11574">
        <ele>277.958252</ele>
        <time>2010-09-19T08:14:42Z</time>
      </trkpt>
      <trkpt lat="43.36403" lon="-0.11602">
        <ele>279.8808594</ele>
        <time>2010-09-19T08:14:50Z</time>
      </trkpt>
      <trkpt lat="43.3639" lon="-0.11631">
        <ele>277.4776611</ele>
        <time>2010-09-19T08:14:58Z</time>
      </trkpt>
      <trkpt lat="43.36378" lon="-0.1166">
        <ele>280.3616943</ele>
        <time>2010-09-19T08:15:07Z</time>
      </trkpt>
      <trkpt lat="43.36371" lon="-0.11685">
        <ele>283.7261963</ele>
        <time>2010-09-19T08:15:15Z</time>
      </trkpt>
      <trkpt lat="43.36364" lon="-0.11709">
        <ele>286.1295166</ele>
        <time>2010-09-19T08:15:23Z</time>
      </trkpt>
      <trkpt lat="43.36355" lon="-0.11734">
        <ele>287.5714111</ele>
        <time>2010-09-19T08:15:31Z</time>
      </trkpt>
      <trkpt lat="43.36345" lon="-0.11759">
        <ele>289.0135498</ele>
        <time>2010-09-19T08:15:39Z</time>
      </trkpt>
      <trkpt lat="43.36338" lon="-0.11784">
        <ele>290.9361572</ele>
        <time>2010-09-19T08:15:47Z</time>
      </trkpt>
      <trkpt lat="43.36341" lon="-0.11797">
        <ele>292.3781738</ele>
        <time>2010-09-19T08:15:52Z</time>
      </trkpt>
      <trkpt lat="43.36344" lon="-0.118">
        <ele>293.3393555</ele>
        <time>2010-09-19T08:15:54Z</time>
      </trkpt>
      <trkpt lat="43.36357" lon="-0.11797">
        <ele>295.7426758</ele>
        <time>2010-09-19T08:16:01Z</time>
      </trkpt>
      <trkpt lat="43.36375" lon="-0.11775">
        <ele>296.7041016</ele>
        <time>2010-09-19T08:16:11Z</time>
      </trkpt>
      <trkpt lat="43.36378" lon="-0.11771">
        <ele>297.1846924</ele>
        <time>2010-09-19T08:16:13Z</time>
      </trkpt>
      <trkpt lat="43.36386" lon="-0.1177">
        <ele>298.626709</ele>
        <time>2010-09-19T08:16:19Z</time>
      </trkpt>
      <trkpt lat="43.36387" lon="-0.1177">
        <ele>298.626709</ele>
        <time>2010-09-19T08:16:24Z</time>
      </trkpt>
      <trkpt lat="43.36387" lon="-0.11771">
        <ele>299.5880127</ele>
        <time>2010-09-19T08:16:30Z</time>
      </trkpt>
      <trkpt lat="43.36386" lon="-0.11773">
        <ele>298.1461182</ele>
        <time>2010-09-19T08:19:45Z</time>
      </trkpt>
      <trkpt lat="43.36387" lon="-0.11765">
        <ele>296.7041016</ele>
        <time>2010-09-19T08:19:50Z</time>
      </trkpt>
      <trkpt lat="43.36388" lon="-0.11762">
        <ele>296.2235107</ele>
        <time>2010-09-19T08:19:51Z</time>
      </trkpt>
      <trkpt lat="43.36401" lon="-0.1175">
        <ele>296.2235107</ele>
        <time>2010-09-19T08:19:56Z</time>
      </trkpt>
      <trkpt lat="43.36423" lon="-0.11741">
        <ele>296.7041016</ele>
        <time>2010-09-19T08:20:02Z</time>
      </trkpt>
      <trkpt lat="43.36449" lon="-0.11727">
        <ele>297.1846924</ele>
        <time>2010-09-19T08:20:10Z</time>
      </trkpt>
      <trkpt lat="43.36471" lon="-0.11715">
        <ele>297.1846924</ele>
        <time>2010-09-19T08:20:17Z</time>
      </trkpt>
      <trkpt lat="43.36486" lon="-0.11716">
        <ele>299.1072998</ele>
        <time>2010-09-19T08:20:22Z</time>
      </trkpt>
      <trkpt lat="43.36504" lon="-0.11721">
        <ele>302.4719238</ele>
        <time>2010-09-19T08:20:30Z</time>
      </trkpt>
      <trkpt lat="43.36518" lon="-0.11725">
        <ele>303.9139404</ele>
        <time>2010-09-19T08:20:36Z</time>
      </trkpt>
      <trkpt lat="43.36543" lon="-0.11735">
        <ele>304.8752441</ele>
        <time>2010-09-19T08:20:45Z</time>
      </trkpt>
      <trkpt lat="43.36562" lon="-0.11746">
        <ele>306.7978516</ele>
        <time>2010-09-19T08:20:51Z</time>
      </trkpt>
      <trkpt lat="43.36579" lon="-0.11759">
        <ele>308.720459</ele>
        <time>2010-09-19T08:20:57Z</time>
      </trkpt>
      <trkpt lat="43.36605" lon="-0.11775">
        <ele>307.2785645</ele>
        <time>2010-09-19T08:21:04Z</time>
      </trkpt>
      <trkpt lat="43.3663" lon="-0.11791">
        <ele>306.3172607</ele>
        <time>2010-09-19T08:21:10Z</time>
      </trkpt>
      <trkpt lat="43.36645" lon="-0.11804">
        <ele>307.2785645</ele>
        <time>2010-09-19T08:21:15Z</time>
      </trkpt>
      <trkpt lat="43.36659" lon="-0.11815">
        <ele>308.720459</ele>
        <time>2010-09-19T08:21:21Z</time>
      </trkpt>
      <trkpt lat="43.36674" lon="-0.11826">
        <ele>309.6818848</ele>
        <time>2010-09-19T08:21:27Z</time>
      </trkpt>
      <trkpt lat="43.36693" lon="-0.11836">
        <ele>310.6430664</ele>
        <time>2010-09-19T08:21:34Z</time>
      </trkpt>
      <trkpt lat="43.36706" lon="-0.11843">
        <ele>311.6044922</ele>
        <time>2010-09-19T08:21:39Z</time>
      </trkpt>
      <trkpt lat="43.3672" lon="-0.11854">
        <ele>313.5272217</ele>
        <time>2010-09-19T08:21:45Z</time>
      </trkpt>
      <trkpt lat="43.36734" lon="-0.11864">
        <ele>314.9691162</ele>
        <time>2010-09-19T08:21:51Z</time>
      </trkpt>
      <trkpt lat="43.36751" lon="-0.11874">
        <ele>316.4110107</ele>
        <time>2010-09-19T08:21:57Z</time>
      </trkpt>
      <trkpt lat="43.36772" lon="-0.1189">
        <ele>318.8143311</ele>
        <time>2010-09-19T08:22:05Z</time>
      </trkpt>
      <trkpt lat="43.36781" lon="-0.11898">
        <ele>320.2563477</ele>
        <time>2010-09-19T08:22:10Z</time>
      </trkpt>
      <trkpt lat="43.36794" lon="-0.11909">
        <ele>317.8530273</ele>
        <time>2010-09-19T08:22:14Z</time>
      </trkpt>
      <trkpt lat="43.36814" lon="-0.11928">
        <ele>315.4498291</ele>
        <time>2010-09-19T08:22:18Z</time>
      </trkpt>
      <trkpt lat="43.36846" lon="-0.11966">
        <ele>312.0852051</ele>
        <time>2010-09-19T08:22:24Z</time>
      </trkpt>
      <trkpt lat="43.36871" lon="-0.12007">
        <ele>308.720459</ele>
        <time>2010-09-19T08:22:29Z</time>
      </trkpt>
      <trkpt lat="43.3689" lon="-0.12055">
        <ele>306.3172607</ele>
        <time>2010-09-19T08:22:34Z</time>
      </trkpt>
      <trkpt lat="43.36905" lon="-0.12116">
        <ele>305.8366699</ele>
        <time>2010-09-19T08:22:40Z</time>
      </trkpt>
      <trkpt lat="43.36916" lon="-0.12154">
        <ele>306.7978516</ele>
        <time>2010-09-19T08:22:45Z</time>
      </trkpt>
      <trkpt lat="43.36912" lon="-0.12174">
        <ele>307.2785645</ele>
        <time>2010-09-19T08:22:49Z</time>
      </trkpt>
      <trkpt lat="43.36905" lon="-0.12179">
        <ele>308.720459</ele>
        <time>2010-09-19T08:22:52Z</time>
      </trkpt>
      <trkpt lat="43.3689" lon="-0.12181">
        <ele>311.1237793</ele>
        <time>2010-09-19T08:23:00Z</time>
      </trkpt>
      <trkpt lat="43.3687" lon="-0.12189">
        <ele>315.4498291</ele>
        <time>2010-09-19T08:23:10Z</time>
      </trkpt>
      <trkpt lat="43.36857" lon="-0.12193">
        <ele>318.3336182</ele>
        <time>2010-09-19T08:23:18Z</time>
      </trkpt>
      <trkpt lat="43.36846" lon="-0.12198">
        <ele>319.2950439</ele>
        <time>2010-09-19T08:23:25Z</time>
      </trkpt>
      <trkpt lat="43.36837" lon="-0.12204">
        <ele>321.2177734</ele>
        <time>2010-09-19T08:23:32Z</time>
      </trkpt>
      <trkpt lat="43.36825" lon="-0.1221">
        <ele>323.1403809</ele>
        <time>2010-09-19T08:23:39Z</time>
      </trkpt>
      <trkpt lat="43.36814" lon="-0.12217">
        <ele>325.0629883</ele>
        <time>2010-09-19T08:23:46Z</time>
      </trkpt>
      <trkpt lat="43.36799" lon="-0.1222">
        <ele>326.9855957</ele>
        <time>2010-09-19T08:23:53Z</time>
      </trkpt>
      <trkpt lat="43.36795" lon="-0.12232">
        <ele>327.9467773</ele>
        <time>2010-09-19T08:23:58Z</time>
      </trkpt>
      <trkpt lat="43.36795" lon="-0.12235">
        <ele>328.4276123</ele>
        <time>2010-09-19T08:23:59Z</time>
      </trkpt>
      <trkpt lat="43.36796" lon="-0.12259">
        <ele>326.9855957</ele>
        <time>2010-09-19T08:24:05Z</time>
      </trkpt>
      <trkpt lat="43.36793" lon="-0.12284">
        <ele>326.9855957</ele>
        <time>2010-09-19T08:24:11Z</time>
      </trkpt>
      <trkpt lat="43.36783" lon="-0.12314">
        <ele>326.0241699</ele>
        <time>2010-09-19T08:24:17Z</time>
      </trkpt>
      <trkpt lat="43.3677" lon="-0.12332">
        <ele>325.0629883</ele>
        <time>2010-09-19T08:24:22Z</time>
      </trkpt>
      <trkpt lat="43.36758" lon="-0.12339">
        <ele>325.0629883</ele>
        <time>2010-09-19T08:24:26Z</time>
      </trkpt>
      <trkpt lat="43.36746" lon="-0.12347">
        <ele>326.9855957</ele>
        <time>2010-09-19T08:24:31Z</time>
      </trkpt>
      <trkpt lat="43.36734" lon="-0.1236">
        <ele>326.9855957</ele>
        <time>2010-09-19T08:24:35Z</time>
      </trkpt>
      <trkpt lat="43.3672" lon="-0.12369">
        <ele>329.388916</ele>
        <time>2010-09-19T08:24:40Z</time>
      </trkpt>
      <trkpt lat="43.36714" lon="-0.12377">
        <ele>332.2728271</ele>
        <time>2010-09-19T08:24:45Z</time>
      </trkpt>
      <trkpt lat="43.36712" lon="-0.12377">
        <ele>333.7147217</ele>
        <time>2010-09-19T08:24:51Z</time>
      </trkpt>
      <trkpt lat="43.36713" lon="-0.12376">
        <ele>334.1954346</ele>
        <time>2010-09-19T08:24:53Z</time>
      </trkpt>
      <trkpt lat="43.36717" lon="-0.12372">
        <ele>334.1954346</ele>
        <time>2010-09-19T08:24:57Z</time>
      </trkpt>
      <trkpt lat="43.36727" lon="-0.1237">
        <ele>331.7921143</ele>
        <time>2010-09-19T08:25:03Z</time>
      </trkpt>
      <trkpt lat="43.3673" lon="-0.12376">
        <ele>331.3115234</ele>
        <time>2010-09-19T08:25:05Z</time>
      </trkpt>
      <trkpt lat="43.36738" lon="-0.12383">
        <ele>328.9083252</ele>
        <time>2010-09-19T08:25:08Z</time>
      </trkpt>
      <trkpt lat="43.3675" lon="-0.12381">
        <ele>326.5048828</ele>
        <time>2010-09-19T08:25:11Z</time>
      </trkpt>
      <trkpt lat="43.36765" lon="-0.1236">
        <ele>322.659668</ele>
        <time>2010-09-19T08:25:18Z</time>
      </trkpt>
      <trkpt lat="43.36777" lon="-0.12345">
        <ele>320.2563477</ele>
        <time>2010-09-19T08:25:23Z</time>
      </trkpt>
      <trkpt lat="43.36787" lon="-0.1233">
        <ele>320.7370605</ele>
        <time>2010-09-19T08:25:28Z</time>
      </trkpt>
      <trkpt lat="43.36795" lon="-0.12316">
        <ele>320.7370605</ele>
        <time>2010-09-19T08:25:33Z</time>
      </trkpt>
      <trkpt lat="43.36798" lon="-0.12314">
        <ele>319.2950439</ele>
        <time>2010-09-19T08:25:35Z</time>
      </trkpt>
      <trkpt lat="43.36815" lon="-0.1231">
        <ele>314.0078125</ele>
        <time>2010-09-19T08:25:40Z</time>
      </trkpt>
      <trkpt lat="43.3682" lon="-0.1231">
        <ele>312.5657959</ele>
        <time>2010-09-19T08:25:41Z</time>
      </trkpt>
      <trkpt lat="43.36836" lon="-0.12313">
        <ele>308.720459</ele>
        <time>2010-09-19T08:25:45Z</time>
      </trkpt>
      <trkpt lat="43.36849" lon="-0.12327">
        <ele>304.8752441</ele>
        <time>2010-09-19T08:25:51Z</time>
      </trkpt>
      <trkpt lat="43.36859" lon="-0.12334">
        <ele>300.0687256</ele>
        <time>2010-09-19T08:25:56Z</time>
      </trkpt>
      <trkpt lat="43.36864" lon="-0.12338">
        <ele>298.626709</ele>
        <time>2010-09-19T08:25:59Z</time>
      </trkpt>
      <trkpt lat="43.36872" lon="-0.12355">
        <ele>296.7041016</ele>
        <time>2010-09-19T08:26:04Z</time>
      </trkpt>
      <trkpt lat="43.36879" lon="-0.12373">
        <ele>295.2619629</ele>
        <time>2010-09-19T08:26:08Z</time>
      </trkpt>
      <trkpt lat="43.36884" lon="-0.1239">
        <ele>293.3393555</ele>
        <time>2010-09-19T08:26:13Z</time>
      </trkpt>
      <trkpt lat="43.36885" lon="-0.12395">
        <ele>293.3393555</ele>
        <time>2010-09-19T08:26:14Z</time>
      </trkpt>
      <trkpt lat="43.36877" lon="-0.12412">
        <ele>289.0135498</ele>
        <time>2010-09-19T08:26:19Z</time>
      </trkpt>
      <trkpt lat="43.36875" lon="-0.12416">
        <ele>287.5714111</ele>
        <time>2010-09-19T08:26:21Z</time>
      </trkpt>
      <trkpt lat="43.3686" lon="-0.12437">
        <ele>283.7261963</ele>
        <time>2010-09-19T08:26:28Z</time>
      </trkpt>
      <trkpt lat="43.36847" lon="-0.1245">
        <ele>283.2456055</ele>
        <time>2010-09-19T08:26:33Z</time>
      </trkpt>
      <trkpt lat="43.36836" lon="-0.12469">
        <ele>284.2069092</ele>
        <time>2010-09-19T08:26:38Z</time>
      </trkpt>
      <trkpt lat="43.36826" lon="-0.1249">
        <ele>284.6876221</ele>
        <time>2010-09-19T08:26:41Z</time>
      </trkpt>
      <trkpt lat="43.3682" lon="-0.12516">
        <ele>283.2456055</ele>
        <time>2010-09-19T08:26:43Z</time>
      </trkpt>
      <trkpt lat="43.36808" lon="-0.12575">
        <ele>278.9196777</ele>
        <time>2010-09-19T08:26:48Z</time>
      </trkpt>
      <trkpt lat="43.3679" lon="-0.12651">
        <ele>275.5550537</ele>
        <time>2010-09-19T08:26:54Z</time>
      </trkpt>
      <trkpt lat="43.36784" lon="-0.12676">
        <ele>275.5550537</ele>
        <time>2010-09-19T08:26:57Z</time>
      </trkpt>
      <trkpt lat="43.36786" lon="-0.12691">
        <ele>276.5163574</ele>
        <time>2010-09-19T08:27:01Z</time>
      </trkpt>
      <trkpt lat="43.36797" lon="-0.12683">
        <ele>268.8258057</ele>
        <time>2010-09-19T08:27:03Z</time>
      </trkpt>
      <trkpt lat="43.3681" lon="-0.12675">
        <ele>262.5771484</ele>
        <time>2010-09-19T08:27:06Z</time>
      </trkpt>
      <trkpt lat="43.36833" lon="-0.12683">
        <ele>261.6159668</ele>
        <time>2010-09-19T08:27:10Z</time>
      </trkpt>
      <trkpt lat="43.36877" lon="-0.12713">
        <ele>258.7319336</ele>
        <time>2010-09-19T08:27:17Z</time>
      </trkpt>
      <trkpt lat="43.36911" lon="-0.12737">
        <ele>256.8093262</ele>
        <time>2010-09-19T08:27:23Z</time>
      </trkpt>
      <trkpt lat="43.36938" lon="-0.12756">
        <ele>256.3287354</ele>
        <time>2010-09-19T08:27:29Z</time>
      </trkpt>
      <trkpt lat="43.36953" lon="-0.12769">
        <ele>256.8093262</ele>
        <time>2010-09-19T08:27:33Z</time>
      </trkpt>
      <trkpt lat="43.36952" lon="-0.12785">
        <ele>256.8093262</ele>
        <time>2010-09-19T08:27:37Z</time>
      </trkpt>
      <trkpt lat="43.36948" lon="-0.12804">
        <ele>257.770752</ele>
        <time>2010-09-19T08:27:41Z</time>
      </trkpt>
      <trkpt lat="43.36959" lon="-0.12819">
        <ele>258.7319336</ele>
        <time>2010-09-19T08:27:45Z</time>
      </trkpt>
      <trkpt lat="43.36978" lon="-0.12865">
        <ele>259.2126465</ele>
        <time>2010-09-19T08:27:54Z</time>
      </trkpt>
      <trkpt lat="43.36999" lon="-0.12916">
        <ele>259.2126465</ele>
        <time>2010-09-19T08:28:03Z</time>
      </trkpt>
      <trkpt lat="43.37003" lon="-0.12926">
        <ele>259.2126465</ele>
        <time>2010-09-19T08:28:05Z</time>
      </trkpt>
      <trkpt lat="43.37017" lon="-0.12937">
        <ele>259.2126465</ele>
        <time>2010-09-19T08:28:09Z</time>
      </trkpt>
      <trkpt lat="43.37025" lon="-0.12932">
        <ele>259.2126465</ele>
        <time>2010-09-19T08:28:11Z</time>
      </trkpt>
      <trkpt lat="43.37041" lon="-0.1292">
        <ele>259.6933594</ele>
        <time>2010-09-19T08:28:15Z</time>
      </trkpt>
      <trkpt lat="43.37067" lon="-0.12914">
        <ele>259.2126465</ele>
        <time>2010-09-19T08:28:21Z</time>
      </trkpt>
      <trkpt lat="43.37117" lon="-0.1291">
        <ele>259.2126465</ele>
        <time>2010-09-19T08:28:31Z</time>
      </trkpt>
      <trkpt lat="43.37152" lon="-0.12892">
        <ele>258.7319336</ele>
        <time>2010-09-19T08:28:38Z</time>
      </trkpt>
      <trkpt lat="43.3719" lon="-0.12885">
        <ele>258.2513428</ele>
        <time>2010-09-19T08:28:45Z</time>
      </trkpt>
      <trkpt lat="43.37206" lon="-0.12884">
        <ele>258.2513428</ele>
        <time>2010-09-19T08:28:48Z</time>
      </trkpt>
      <trkpt lat="43.37227" lon="-0.1289">
        <ele>257.770752</ele>
        <time>2010-09-19T08:28:52Z</time>
      </trkpt>
      <trkpt lat="43.37248" lon="-0.12909">
        <ele>258.2513428</ele>
        <time>2010-09-19T08:28:57Z</time>
      </trkpt>
      <trkpt lat="43.37261" lon="-0.12928">
        <ele>258.2513428</ele>
        <time>2010-09-19T08:29:01Z</time>
      </trkpt>
      <trkpt lat="43.37279" lon="-0.1294">
        <ele>258.2513428</ele>
        <time>2010-09-19T08:29:05Z</time>
      </trkpt>
      <trkpt lat="43.37284" lon="-0.1294">
        <ele>258.2513428</ele>
        <time>2010-09-19T08:29:06Z</time>
      </trkpt>
      <trkpt lat="43.37326" lon="-0.12944">
        <ele>259.6933594</ele>
        <time>2010-09-19T08:29:15Z</time>
      </trkpt>
      <trkpt lat="43.37367" lon="-0.12951">
        <ele>260.654541</ele>
        <time>2010-09-19T08:29:25Z</time>
      </trkpt>
      <trkpt lat="43.37381" lon="-0.12952">
        <ele>260.654541</ele>
        <time>2010-09-19T08:29:28Z</time>
      </trkpt>
      <trkpt lat="43.37412" lon="-0.12938">
        <ele>260.654541</ele>
        <time>2010-09-19T08:29:35Z</time>
      </trkpt>
      <trkpt lat="43.37434" lon="-0.12925">
        <ele>260.1739502</ele>
        <time>2010-09-19T08:29:40Z</time>
      </trkpt>
      <trkpt lat="43.37468" lon="-0.1292">
        <ele>259.6933594</ele>
        <time>2010-09-19T08:29:47Z</time>
      </trkpt>
      <trkpt lat="43.37498" lon="-0.12924">
        <ele>259.6933594</ele>
        <time>2010-09-19T08:29:53Z</time>
      </trkpt>
      <trkpt lat="43.37542" lon="-0.12941">
        <ele>259.6933594</ele>
        <time>2010-09-19T08:30:02Z</time>
      </trkpt>
      <trkpt lat="43.37571" lon="-0.12959">
        <ele>259.6933594</ele>
        <time>2010-09-19T08:30:08Z</time>
      </trkpt>
      <trkpt lat="43.37587" lon="-0.12985">
        <ele>259.6933594</ele>
        <time>2010-09-19T08:30:13Z</time>
      </trkpt>
      <trkpt lat="43.37592" lon="-0.13003">
        <ele>259.6933594</ele>
        <time>2010-09-19T08:30:16Z</time>
      </trkpt>
      <trkpt lat="43.376" lon="-0.13018">
        <ele>260.1739502</ele>
        <time>2010-09-19T08:30:19Z</time>
      </trkpt>
      <trkpt lat="43.37619" lon="-0.13029">
        <ele>262.0965576</ele>
        <time>2010-09-19T08:30:24Z</time>
      </trkpt>
      <trkpt lat="43.37627" lon="-0.13028">
        <ele>262.5771484</ele>
        <time>2010-09-19T08:30:26Z</time>
      </trkpt>
      <trkpt lat="43.3765" lon="-0.13031">
        <ele>263.5385742</ele>
        <time>2010-09-19T08:30:33Z</time>
      </trkpt>
      <trkpt lat="43.37663" lon="-0.13048">
        <ele>264.4998779</ele>
        <time>2010-09-19T08:30:39Z</time>
      </trkpt>
      <trkpt lat="43.37667" lon="-0.13065">
        <ele>265.4613037</ele>
        <time>2010-09-19T08:30:44Z</time>
      </trkpt>
      <trkpt lat="43.37664" lon="-0.13091">
        <ele>266.4224854</ele>
        <time>2010-09-19T08:30:51Z</time>
      </trkpt>
      <trkpt lat="43.37663" lon="-0.13118">
        <ele>267.864502</ele>
        <time>2010-09-19T08:30:58Z</time>
      </trkpt>
      <trkpt lat="43.37661" lon="-0.13152">
        <ele>267.3839111</ele>
        <time>2010-09-19T08:31:07Z</time>
      </trkpt>
      <trkpt lat="43.37656" lon="-0.13172">
        <ele>268.3450928</ele>
        <time>2010-09-19T08:31:13Z</time>
      </trkpt>
      <trkpt lat="43.37641" lon="-0.13186">
        <ele>270.2677002</ele>
        <time>2010-09-19T08:31:18Z</time>
      </trkpt>
      <trkpt lat="43.37617" lon="-0.13206">
        <ele>268.3450928</ele>
        <time>2010-09-19T08:31:25Z</time>
      </trkpt>
      <trkpt lat="43.37585" lon="-0.13231">
        <ele>270.7484131</ele>
        <time>2010-09-19T08:31:33Z</time>
      </trkpt>
      <trkpt lat="43.37544" lon="-0.13262">
        <ele>271.7097168</ele>
        <time>2010-09-19T08:31:42Z</time>
      </trkpt>
      <trkpt lat="43.37509" lon="-0.13297">
        <ele>271.229126</ele>
        <time>2010-09-19T08:31:50Z</time>
      </trkpt>
      <trkpt lat="43.37477" lon="-0.13343">
        <ele>270.2677002</ele>
        <time>2010-09-19T08:31:58Z</time>
      </trkpt>
      <trkpt lat="43.3744" lon="-0.13389">
        <ele>269.7871094</ele>
        <time>2010-09-19T08:32:07Z</time>
      </trkpt>
      <trkpt lat="43.37429" lon="-0.13405">
        <ele>269.7871094</ele>
        <time>2010-09-19T08:32:10Z</time>
      </trkpt>
      <trkpt lat="43.3742" lon="-0.13429">
        <ele>270.7484131</ele>
        <time>2010-09-19T08:32:15Z</time>
      </trkpt>
      <trkpt lat="43.37418" lon="-0.13449">
        <ele>273.1518555</ele>
        <time>2010-09-19T08:32:20Z</time>
      </trkpt>
      <trkpt lat="43.37419" lon="-0.13479">
        <ele>276.5163574</ele>
        <time>2010-09-19T08:32:27Z</time>
      </trkpt>
      <trkpt lat="43.37419" lon="-0.135">
        <ele>280.8424072</ele>
        <time>2010-09-19T08:32:33Z</time>
      </trkpt>
      <trkpt lat="43.37421" lon="-0.13528">
        <ele>280.3616943</ele>
        <time>2010-09-19T08:32:40Z</time>
      </trkpt>
      <trkpt lat="43.37422" lon="-0.13563">
        <ele>280.3616943</ele>
        <time>2010-09-19T08:32:49Z</time>
      </trkpt>
      <trkpt lat="43.37415" lon="-0.13573">
        <ele>279.8808594</ele>
        <time>2010-09-19T08:32:53Z</time>
      </trkpt>
      <trkpt lat="43.37398" lon="-0.13587">
        <ele>280.8424072</ele>
        <time>2010-09-19T08:33:01Z</time>
      </trkpt>
      <trkpt lat="43.37389" lon="-0.13595">
        <ele>281.322998</ele>
        <time>2010-09-19T08:33:06Z</time>
      </trkpt>
      <trkpt lat="43.3738" lon="-0.13613">
        <ele>283.2456055</ele>
        <time>2010-09-19T08:33:12Z</time>
      </trkpt>
      <trkpt lat="43.37381" lon="-0.13635">
        <ele>284.2069092</ele>
        <time>2010-09-19T08:33:18Z</time>
      </trkpt>
      <trkpt lat="43.37388" lon="-0.13655">
        <ele>286.6102295</ele>
        <time>2010-09-19T08:33:24Z</time>
      </trkpt>
      <trkpt lat="43.37395" lon="-0.13674">
        <ele>289.0135498</ele>
        <time>2010-09-19T08:33:30Z</time>
      </trkpt>
      <trkpt lat="43.37402" lon="-0.13694">
        <ele>290.9361572</ele>
        <time>2010-09-19T08:33:37Z</time>
      </trkpt>
      <trkpt lat="43.37408" lon="-0.13714">
        <ele>293.8200684</ele>
        <time>2010-09-19T08:33:43Z</time>
      </trkpt>
      <trkpt lat="43.37414" lon="-0.13734">
        <ele>297.1846924</ele>
        <time>2010-09-19T08:33:50Z</time>
      </trkpt>
      <trkpt lat="43.3742" lon="-0.13755">
        <ele>298.626709</ele>
        <time>2010-09-19T08:33:57Z</time>
      </trkpt>
      <trkpt lat="43.37425" lon="-0.13772">
        <ele>301.991333</ele>
        <time>2010-09-19T08:34:03Z</time>
      </trkpt>
      <trkpt lat="43.37433" lon="-0.1379">
        <ele>301.5106201</ele>
        <time>2010-09-19T08:34:10Z</time>
      </trkpt>
      <trkpt lat="43.37442" lon="-0.13805">
        <ele>303.4332275</ele>
        <time>2010-09-19T08:34:18Z</time>
      </trkpt>
      <trkpt lat="43.37451" lon="-0.13818">
        <ele>305.8366699</ele>
        <time>2010-09-19T08:34:25Z</time>
      </trkpt>
      <trkpt lat="43.37458" lon="-0.13833">
        <ele>305.8366699</ele>
        <time>2010-09-19T08:34:32Z</time>
      </trkpt>
      <trkpt lat="43.37458" lon="-0.13849">
        <ele>304.3946533</ele>
        <time>2010-09-19T08:34:39Z</time>
      </trkpt>
      <trkpt lat="43.37451" lon="-0.13863">
        <ele>305.8366699</ele>
        <time>2010-09-19T08:34:46Z</time>
      </trkpt>
      <trkpt lat="43.37442" lon="-0.13878">
        <ele>304.8752441</ele>
        <time>2010-09-19T08:34:52Z</time>
      </trkpt>
      <trkpt lat="43.37432" lon="-0.13898">
        <ele>306.3172607</ele>
        <time>2010-09-19T08:34:58Z</time>
      </trkpt>
      <trkpt lat="43.37423" lon="-0.13926">
        <ele>309.6818848</ele>
        <time>2010-09-19T08:35:06Z</time>
      </trkpt>
      <trkpt lat="43.37418" lon="-0.13947">
        <ele>314.0078125</ele>
        <time>2010-09-19T08:35:13Z</time>
      </trkpt>
      <trkpt lat="43.37421" lon="-0.1396">
        <ele>314.4884033</ele>
        <time>2010-09-19T08:35:19Z</time>
      </trkpt>
      <trkpt lat="43.37426" lon="-0.1398">
        <ele>317.3724365</ele>
        <time>2010-09-19T08:35:27Z</time>
      </trkpt>
      <trkpt lat="43.37432" lon="-0.13997">
        <ele>317.8530273</ele>
        <time>2010-09-19T08:35:34Z</time>
      </trkpt>
      <trkpt lat="43.37436" lon="-0.14012">
        <ele>317.8530273</ele>
        <time>2010-09-19T08:35:40Z</time>
      </trkpt>
      <trkpt lat="43.37439" lon="-0.14017">
        <ele>317.3724365</ele>
        <time>2010-09-19T08:35:42Z</time>
      </trkpt>
      <trkpt lat="43.37443" lon="-0.14029">
        <ele>318.3336182</ele>
        <time>2010-09-19T08:35:46Z</time>
      </trkpt>
      <trkpt lat="43.37451" lon="-0.14046">
        <ele>321.6983643</ele>
        <time>2010-09-19T08:35:53Z</time>
      </trkpt>
      <trkpt lat="43.37458" lon="-0.14063">
        <ele>319.7756348</ele>
        <time>2010-09-19T08:36:00Z</time>
      </trkpt>
      <trkpt lat="43.37469" lon="-0.14087">
        <ele>319.7756348</ele>
        <time>2010-09-19T08:36:10Z</time>
      </trkpt>
      <trkpt lat="43.37477" lon="-0.14099">
        <ele>321.6983643</ele>
        <time>2010-09-19T08:36:17Z</time>
      </trkpt>
      <trkpt lat="43.37484" lon="-0.14111">
        <ele>323.6209717</ele>
        <time>2010-09-19T08:36:24Z</time>
      </trkpt>
      <trkpt lat="43.37486" lon="-0.14127">
        <ele>324.5822754</ele>
        <time>2010-09-19T08:36:31Z</time>
      </trkpt>
      <trkpt lat="43.37484" lon="-0.14141">
        <ele>326.9855957</ele>
        <time>2010-09-19T08:36:38Z</time>
      </trkpt>
      <trkpt lat="43.37482" lon="-0.14161">
        <ele>329.8695068</ele>
        <time>2010-09-19T08:36:49Z</time>
      </trkpt>
      <trkpt lat="43.37481" lon="-0.1418">
        <ele>332.75354</ele>
        <time>2010-09-19T08:36:59Z</time>
      </trkpt>
      <trkpt lat="43.37482" lon="-0.14193">
        <ele>335.1567383</ele>
        <time>2010-09-19T08:37:07Z</time>
      </trkpt>
      <trkpt lat="43.37482" lon="-0.14198">
        <ele>336.1181641</ele>
        <time>2010-09-19T08:37:10Z</time>
      </trkpt>
      <trkpt lat="43.37482" lon="-0.14216">
        <ele>339.9633789</ele>
        <time>2010-09-19T08:37:21Z</time>
      </trkpt>
      <trkpt lat="43.37482" lon="-0.14231">
        <ele>340.9246826</ele>
        <time>2010-09-19T08:37:30Z</time>
      </trkpt>
      <trkpt lat="43.37483" lon="-0.14245">
        <ele>340.9246826</ele>
        <time>2010-09-19T08:37:37Z</time>
      </trkpt>
      <trkpt lat="43.37487" lon="-0.14265">
        <ele>343.3278809</ele>
        <time>2010-09-19T08:37:47Z</time>
      </trkpt>
      <trkpt lat="43.37492" lon="-0.14283">
        <ele>345.2506104</ele>
        <time>2010-09-19T08:37:57Z</time>
      </trkpt>
      <trkpt lat="43.37486" lon="-0.14293">
        <ele>345.7313232</ele>
        <time>2010-09-19T08:38:03Z</time>
      </trkpt>
      <trkpt lat="43.37473" lon="-0.14304">
        <ele>343.8085938</ele>
        <time>2010-09-19T08:38:11Z</time>
      </trkpt>
      <trkpt lat="43.37453" lon="-0.1432">
        <ele>342.84729</ele>
        <time>2010-09-19T08:38:20Z</time>
      </trkpt>
      <trkpt lat="43.37431" lon="-0.14336">
        <ele>343.8085938</ele>
        <time>2010-09-19T08:38:29Z</time>
      </trkpt>
      <trkpt lat="43.37415" lon="-0.14349">
        <ele>343.3278809</ele>
        <time>2010-09-19T08:38:37Z</time>
      </trkpt>
      <trkpt lat="43.37403" lon="-0.1436">
        <ele>343.8085938</ele>
        <time>2010-09-19T08:38:43Z</time>
      </trkpt>
      <trkpt lat="43.37392" lon="-0.1437">
        <ele>342.84729</ele>
        <time>2010-09-19T08:38:48Z</time>
      </trkpt>
      <trkpt lat="43.37371" lon="-0.14392">
        <ele>341.4052734</ele>
        <time>2010-09-19T08:38:55Z</time>
      </trkpt>
      <trkpt lat="43.37349" lon="-0.14412">
        <ele>339.482666</ele>
        <time>2010-09-19T08:39:00Z</time>
      </trkpt>
      <trkpt lat="43.37319" lon="-0.14434">
        <ele>336.598877</ele>
        <time>2010-09-19T08:39:05Z</time>
      </trkpt>
      <trkpt lat="43.3728" lon="-0.14475">
        <ele>331.7921143</ele>
        <time>2010-09-19T08:39:11Z</time>
      </trkpt>
      <trkpt lat="43.37272" lon="-0.14501">
        <ele>329.388916</ele>
        <time>2010-09-19T08:39:15Z</time>
      </trkpt>
      <trkpt lat="43.37273" lon="-0.14521">
        <ele>327.9467773</ele>
        <time>2010-09-19T08:39:18Z</time>
      </trkpt>
      <trkpt lat="43.37269" lon="-0.14528">
        <ele>327.4661865</ele>
        <time>2010-09-19T08:39:19Z</time>
      </trkpt>
      <trkpt lat="43.37245" lon="-0.14544">
        <ele>324.1015625</ele>
        <time>2010-09-19T08:39:24Z</time>
      </trkpt>
      <trkpt lat="43.3724" lon="-0.14541">
        <ele>323.6209717</ele>
        <time>2010-09-19T08:39:25Z</time>
      </trkpt>
      <trkpt lat="43.37208" lon="-0.14519">
        <ele>319.7756348</ele>
        <time>2010-09-19T08:39:30Z</time>
      </trkpt>
      <trkpt lat="43.3718" lon="-0.14493">
        <ele>314.9691162</ele>
        <time>2010-09-19T08:39:34Z</time>
      </trkpt>
      <trkpt lat="43.3715" lon="-0.14461">
        <ele>309.6818848</ele>
        <time>2010-09-19T08:39:38Z</time>
      </trkpt>
      <trkpt lat="43.371" lon="-0.1439">
        <ele>299.5880127</ele>
        <time>2010-09-19T08:39:45Z</time>
      </trkpt>
      <trkpt lat="43.37072" lon="-0.14348">
        <ele>297.1846924</ele>
        <time>2010-09-19T08:39:49Z</time>
      </trkpt>
      <trkpt lat="43.3706" lon="-0.14326">
        <ele>296.7041016</ele>
        <time>2010-09-19T08:39:51Z</time>
      </trkpt>
      <trkpt lat="43.3704" lon="-0.1427">
        <ele>296.7041016</ele>
        <time>2010-09-19T08:39:56Z</time>
      </trkpt>
      <trkpt lat="43.37023" lon="-0.14221">
        <ele>294.3007813</ele>
        <time>2010-09-19T08:40:00Z</time>
      </trkpt>
      <trkpt lat="43.37006" lon="-0.1416">
        <ele>293.3393555</ele>
        <time>2010-09-19T08:40:05Z</time>
      </trkpt>
      <trkpt lat="43.36983" lon="-0.14081">
        <ele>289.4941406</ele>
        <time>2010-09-19T08:40:11Z</time>
      </trkpt>
      <trkpt lat="43.36957" lon="-0.14004">
        <ele>286.6102295</ele>
        <time>2010-09-19T08:40:17Z</time>
      </trkpt>
      <trkpt lat="43.36932" lon="-0.13936">
        <ele>284.2069092</ele>
        <time>2010-09-19T08:40:23Z</time>
      </trkpt>
      <trkpt lat="43.36928" lon="-0.13926">
        <ele>283.7261963</ele>
        <time>2010-09-19T08:40:25Z</time>
      </trkpt>
      <trkpt lat="43.36925" lon="-0.13929">
        <ele>283.7261963</ele>
        <time>2010-09-19T08:40:29Z</time>
      </trkpt>
      <trkpt lat="43.36925" lon="-0.1394">
        <ele>283.7261963</ele>
        <time>2010-09-19T08:40:34Z</time>
      </trkpt>
      <trkpt lat="43.36916" lon="-0.13958">
        <ele>283.7261963</ele>
        <time>2010-09-19T08:40:40Z</time>
      </trkpt>
      <trkpt lat="43.36903" lon="-0.1398">
        <ele>283.2456055</ele>
        <time>2010-09-19T08:40:46Z</time>
      </trkpt>
      <trkpt lat="43.36893" lon="-0.13989">
        <ele>283.7261963</ele>
        <time>2010-09-19T08:40:50Z</time>
      </trkpt>
      <trkpt lat="43.3688" lon="-0.14008">
        <ele>285.1682129</ele>
        <time>2010-09-19T08:40:59Z</time>
      </trkpt>
      <trkpt lat="43.36877" lon="-0.14033">
        <ele>285.1682129</ele>
        <time>2010-09-19T08:41:06Z</time>
      </trkpt>
      <trkpt lat="43.36879" lon="-0.14064">
        <ele>286.6102295</ele>
        <time>2010-09-19T08:41:14Z</time>
      </trkpt>
      <trkpt lat="43.36876" lon="-0.14076">
        <ele>287.5714111</ele>
        <time>2010-09-19T08:41:18Z</time>
      </trkpt>
      <trkpt lat="43.36867" lon="-0.14075">
        <ele>289.4941406</ele>
        <time>2010-09-19T08:41:23Z</time>
      </trkpt>
      <trkpt lat="43.36862" lon="-0.14065">
        <ele>290.4555664</ele>
        <time>2010-09-19T08:41:27Z</time>
      </trkpt>
      <trkpt lat="43.36847" lon="-0.14048">
        <ele>293.3393555</ele>
        <time>2010-09-19T08:41:36Z</time>
      </trkpt>
      <trkpt lat="43.36831" lon="-0.14043">
        <ele>294.3007813</ele>
        <time>2010-09-19T08:41:43Z</time>
      </trkpt>
      <trkpt lat="43.36808" lon="-0.14045">
        <ele>295.2619629</ele>
        <time>2010-09-19T08:41:51Z</time>
      </trkpt>
      <trkpt lat="43.36783" lon="-0.14055">
        <ele>296.2235107</ele>
        <time>2010-09-19T08:41:59Z</time>
      </trkpt>
      <trkpt lat="43.36756" lon="-0.14065">
        <ele>295.7426758</ele>
        <time>2010-09-19T08:42:06Z</time>
      </trkpt>
      <trkpt lat="43.36752" lon="-0.14067">
        <ele>295.2619629</ele>
        <time>2010-09-19T08:42:07Z</time>
      </trkpt>
      <trkpt lat="43.36725" lon="-0.14069">
        <ele>292.8587646</ele>
        <time>2010-09-19T08:42:12Z</time>
      </trkpt>
      <trkpt lat="43.36703" lon="-0.14053">
        <ele>289.4941406</ele>
        <time>2010-09-19T08:42:16Z</time>
      </trkpt>
      <trkpt lat="43.36692" lon="-0.14039">
        <ele>287.0908203</ele>
        <time>2010-09-19T08:42:18Z</time>
      </trkpt>
      <trkpt lat="43.3668" lon="-0.14025">
        <ele>285.1682129</ele>
        <time>2010-09-19T08:42:20Z</time>
      </trkpt>
      <trkpt lat="43.36656" lon="-0.13975">
        <ele>281.322998</ele>
        <time>2010-09-19T08:42:25Z</time>
      </trkpt>
      <trkpt lat="43.36649" lon="-0.13939">
        <ele>279.8808594</ele>
        <time>2010-09-19T08:42:28Z</time>
      </trkpt>
      <trkpt lat="43.36648" lon="-0.13865">
        <ele>276.5163574</ele>
        <time>2010-09-19T08:42:34Z</time>
      </trkpt>
      <trkpt lat="43.3665" lon="-0.13807">
        <ele>275.0744629</ele>
        <time>2010-09-19T08:42:39Z</time>
      </trkpt>
      <trkpt lat="43.36638" lon="-0.13768">
        <ele>274.1130371</ele>
        <time>2010-09-19T08:42:43Z</time>
      </trkpt>
      <trkpt lat="43.36619" lon="-0.13753">
        <ele>273.6324463</ele>
        <time>2010-09-19T08:42:46Z</time>
      </trkpt>
      <trkpt lat="43.36611" lon="-0.13751">
        <ele>273.6324463</ele>
        <time>2010-09-19T08:42:47Z</time>
      </trkpt>
      <trkpt lat="43.36558" lon="-0.13741">
        <ele>273.6324463</ele>
        <time>2010-09-19T08:42:55Z</time>
      </trkpt>
      <trkpt lat="43.36492" lon="-0.13727">
        <ele>272.6711426</ele>
        <time>2010-09-19T08:43:05Z</time>
      </trkpt>
      <trkpt lat="43.36455" lon="-0.13714">
        <ele>273.1518555</ele>
        <time>2010-09-19T08:43:11Z</time>
      </trkpt>
      <trkpt lat="43.36409" lon="-0.13688">
        <ele>273.1518555</ele>
        <time>2010-09-19T08:43:19Z</time>
      </trkpt>
      <trkpt lat="43.36379" lon="-0.13678">
        <ele>274.1130371</ele>
        <time>2010-09-19T08:43:24Z</time>
      </trkpt>
      <trkpt lat="43.3635" lon="-0.13678">
        <ele>274.59375</ele>
        <time>2010-09-19T08:43:29Z</time>
      </trkpt>
      <trkpt lat="43.36301" lon="-0.13682">
        <ele>274.59375</ele>
        <time>2010-09-19T08:43:37Z</time>
      </trkpt>
      <trkpt lat="43.36267" lon="-0.13685">
        <ele>275.0744629</ele>
        <time>2010-09-19T08:43:43Z</time>
      </trkpt>
      <trkpt lat="43.36261" lon="-0.13685">
        <ele>275.0744629</ele>
        <time>2010-09-19T08:43:44Z</time>
      </trkpt>
      <trkpt lat="43.36223" lon="-0.13697">
        <ele>275.5550537</ele>
        <time>2010-09-19T08:43:51Z</time>
      </trkpt>
      <trkpt lat="43.36182" lon="-0.13714">
        <ele>277.958252</ele>
        <time>2010-09-19T08:43:59Z</time>
      </trkpt>
      <trkpt lat="43.36146" lon="-0.13737">
        <ele>278.9196777</ele>
        <time>2010-09-19T08:44:06Z</time>
      </trkpt>
      <trkpt lat="43.36109" lon="-0.13763">
        <ele>279.4002686</ele>
        <time>2010-09-19T08:44:13Z</time>
      </trkpt>
      <trkpt lat="43.36072" lon="-0.13792">
        <ele>282.2843018</ele>
        <time>2010-09-19T08:44:21Z</time>
      </trkpt>
      <trkpt lat="43.36033" lon="-0.1382">
        <ele>282.2843018</ele>
        <time>2010-09-19T08:44:29Z</time>
      </trkpt>
      <trkpt lat="43.36001" lon="-0.13844">
        <ele>280.8424072</ele>
        <time>2010-09-19T08:44:35Z</time>
      </trkpt>
      <trkpt lat="43.35972" lon="-0.13866">
        <ele>282.7650146</ele>
        <time>2010-09-19T08:44:41Z</time>
      </trkpt>
      <trkpt lat="43.35937" lon="-0.13892">
        <ele>284.2069092</ele>
        <time>2010-09-19T08:44:49Z</time>
      </trkpt>
      <trkpt lat="43.35923" lon="-0.13903">
        <ele>285.6488037</ele>
        <time>2010-09-19T08:44:53Z</time>
      </trkpt>
      <trkpt lat="43.35901" lon="-0.13901">
        <ele>284.2069092</ele>
        <time>2010-09-19T08:44:58Z</time>
      </trkpt>
      <trkpt lat="43.35873" lon="-0.13897">
        <ele>283.2456055</ele>
        <time>2010-09-19T08:45:04Z</time>
      </trkpt>
      <trkpt lat="43.3584" lon="-0.13897">
        <ele>282.7650146</ele>
        <time>2010-09-19T08:45:11Z</time>
      </trkpt>
      <trkpt lat="43.35805" lon="-0.13901">
        <ele>283.7261963</ele>
        <time>2010-09-19T08:45:19Z</time>
      </trkpt>
      <trkpt lat="43.35786" lon="-0.1391">
        <ele>284.6876221</ele>
        <time>2010-09-19T08:45:25Z</time>
      </trkpt>
      <trkpt lat="43.35769" lon="-0.1392">
        <ele>285.6488037</ele>
        <time>2010-09-19T08:45:31Z</time>
      </trkpt>
      <trkpt lat="43.3575" lon="-0.13927">
        <ele>286.6102295</ele>
        <time>2010-09-19T08:45:38Z</time>
      </trkpt>
      <trkpt lat="43.35732" lon="-0.13933">
        <ele>288.0522461</ele>
        <time>2010-09-19T08:45:45Z</time>
      </trkpt>
      <trkpt lat="43.35717" lon="-0.13938">
        <ele>289.0135498</ele>
        <time>2010-09-19T08:45:50Z</time>
      </trkpt>
      <trkpt lat="43.35689" lon="-0.1394">
        <ele>289.9748535</ele>
        <time>2010-09-19T08:45:58Z</time>
      </trkpt>
      <trkpt lat="43.35664" lon="-0.13941">
        <ele>289.0135498</ele>
        <time>2010-09-19T08:46:03Z</time>
      </trkpt>
      <trkpt lat="43.35619" lon="-0.1394">
        <ele>289.0135498</ele>
        <time>2010-09-19T08:46:11Z</time>
      </trkpt>
      <trkpt lat="43.35571" lon="-0.13938">
        <ele>289.4941406</ele>
        <time>2010-09-19T08:46:20Z</time>
      </trkpt>
      <trkpt lat="43.35553" lon="-0.13936">
        <ele>289.4941406</ele>
        <time>2010-09-19T08:46:24Z</time>
      </trkpt>
      <trkpt lat="43.35513" lon="-0.13919">
        <ele>290.9361572</ele>
        <time>2010-09-19T08:46:33Z</time>
      </trkpt>
      <trkpt lat="43.35485" lon="-0.13906">
        <ele>292.8587646</ele>
        <time>2010-09-19T08:46:40Z</time>
      </trkpt>
      <trkpt lat="43.35448" lon="-0.13897">
        <ele>292.8587646</ele>
        <time>2010-09-19T08:46:48Z</time>
      </trkpt>
      <trkpt lat="43.35411" lon="-0.139">
        <ele>292.8587646</ele>
        <time>2010-09-19T08:46:56Z</time>
      </trkpt>
      <trkpt lat="43.35398" lon="-0.13903">
        <ele>293.3393555</ele>
        <time>2010-09-19T08:46:59Z</time>
      </trkpt>
      <trkpt lat="43.35393" lon="-0.1389">
        <ele>293.8200684</ele>
        <time>2010-09-19T08:47:03Z</time>
      </trkpt>
      <trkpt lat="43.35404" lon="-0.13865">
        <ele>293.3393555</ele>
        <time>2010-09-19T08:47:07Z</time>
      </trkpt>
      <trkpt lat="43.35411" lon="-0.13848">
        <ele>293.3393555</ele>
        <time>2010-09-19T08:47:09Z</time>
      </trkpt>
      <trkpt lat="43.35435" lon="-0.13789">
        <ele>292.3781738</ele>
        <time>2010-09-19T08:47:15Z</time>
      </trkpt>
      <trkpt lat="43.35457" lon="-0.13723">
        <ele>289.4941406</ele>
        <time>2010-09-19T08:47:21Z</time>
      </trkpt>
      <trkpt lat="43.35481" lon="-0.13683">
        <ele>286.6102295</ele>
        <time>2010-09-19T08:47:25Z</time>
      </trkpt>
      <trkpt lat="43.35506" lon="-0.13654">
        <ele>286.6102295</ele>
        <time>2010-09-19T08:47:29Z</time>
      </trkpt>
      <trkpt lat="43.35521" lon="-0.13639">
        <ele>286.1295166</ele>
        <time>2010-09-19T08:47:32Z</time>
      </trkpt>
      <trkpt lat="43.35548" lon="-0.13611">
        <ele>286.1295166</ele>
        <time>2010-09-19T08:47:39Z</time>
      </trkpt>
      <trkpt lat="43.35558" lon="-0.136">
        <ele>286.6102295</ele>
        <time>2010-09-19T08:47:44Z</time>
      </trkpt>
      <trkpt lat="43.35567" lon="-0.1359">
        <ele>287.5714111</ele>
        <time>2010-09-19T08:47:50Z</time>
      </trkpt>
      <trkpt lat="43.35577" lon="-0.13581">
        <ele>289.4941406</ele>
        <time>2010-09-19T08:47:57Z</time>
      </trkpt>
      <trkpt lat="43.35586" lon="-0.13572">
        <ele>292.3781738</ele>
        <time>2010-09-19T08:48:04Z</time>
      </trkpt>
      <trkpt lat="43.35594" lon="-0.13566">
        <ele>293.8200684</ele>
        <time>2010-09-19T08:48:10Z</time>
      </trkpt>
      <trkpt lat="43.356" lon="-0.13557">
        <ele>296.7041016</ele>
        <time>2010-09-19T08:48:16Z</time>
      </trkpt>
      <trkpt lat="43.35609" lon="-0.13547">
        <ele>299.1072998</ele>
        <time>2010-09-19T08:48:23Z</time>
      </trkpt>
      <trkpt lat="43.35617" lon="-0.13536">
        <ele>302.9525146</ele>
        <time>2010-09-19T08:48:31Z</time>
      </trkpt>
      <trkpt lat="43.35618" lon="-0.13527">
        <ele>305.355957</ele>
        <time>2010-09-19T08:48:36Z</time>
      </trkpt>
      <trkpt lat="43.35621" lon="-0.13513">
        <ele>306.7978516</ele>
        <time>2010-09-19T08:48:42Z</time>
      </trkpt>
      <trkpt lat="43.35621" lon="-0.13501">
        <ele>308.2398682</ele>
        <time>2010-09-19T08:48:49Z</time>
      </trkpt>
      <trkpt lat="43.35615" lon="-0.13488">
        <ele>310.6430664</ele>
        <time>2010-09-19T08:48:58Z</time>
      </trkpt>
      <trkpt lat="43.35611" lon="-0.13481">
        <ele>312.0852051</ele>
        <time>2010-09-19T08:49:04Z</time>
      </trkpt>
      <trkpt lat="43.35606" lon="-0.13476">
        <ele>312.5657959</ele>
        <time>2010-09-19T08:49:10Z</time>
      </trkpt>
      <trkpt lat="43.35601" lon="-0.1347">
        <ele>314.0078125</ele>
        <time>2010-09-19T08:49:16Z</time>
      </trkpt>
      <trkpt lat="43.35598" lon="-0.13461">
        <ele>310.6430664</ele>
        <time>2010-09-19T08:49:23Z</time>
      </trkpt>
      <trkpt lat="43.35594" lon="-0.13453">
        <ele>307.2785645</ele>
        <time>2010-09-19T08:49:30Z</time>
      </trkpt>
      <trkpt lat="43.35587" lon="-0.13443">
        <ele>309.2011719</ele>
        <time>2010-09-19T08:49:37Z</time>
      </trkpt>
      <trkpt lat="43.3558" lon="-0.13435">
        <ele>312.5657959</ele>
        <time>2010-09-19T08:49:44Z</time>
      </trkpt>
      <trkpt lat="43.35574" lon="-0.13426">
        <ele>318.8143311</ele>
        <time>2010-09-19T08:49:51Z</time>
      </trkpt>
      <trkpt lat="43.35568" lon="-0.13416">
        <ele>318.3336182</ele>
        <time>2010-09-19T08:49:56Z</time>
      </trkpt>
      <trkpt lat="43.35556" lon="-0.13399">
        <ele>314.9691162</ele>
        <time>2010-09-19T08:50:02Z</time>
      </trkpt>
      <trkpt lat="43.35549" lon="-0.13387">
        <ele>314.9691162</ele>
        <time>2010-09-19T08:50:08Z</time>
      </trkpt>
      <trkpt lat="43.35539" lon="-0.13369">
        <ele>311.6044922</ele>
        <time>2010-09-19T08:50:16Z</time>
      </trkpt>
      <trkpt lat="43.35531" lon="-0.13353">
        <ele>314.0078125</ele>
        <time>2010-09-19T08:50:24Z</time>
      </trkpt>
      <trkpt lat="43.35526" lon="-0.13338">
        <ele>315.9304199</ele>
        <time>2010-09-19T08:50:31Z</time>
      </trkpt>
      <trkpt lat="43.35522" lon="-0.13324">
        <ele>317.3724365</ele>
        <time>2010-09-19T08:50:38Z</time>
      </trkpt>
      <trkpt lat="43.35519" lon="-0.13314">
        <ele>321.2177734</ele>
        <time>2010-09-19T08:50:45Z</time>
      </trkpt>
      <trkpt lat="43.35517" lon="-0.13302">
        <ele>321.2177734</ele>
        <time>2010-09-19T08:50:52Z</time>
      </trkpt>
      <trkpt lat="43.35515" lon="-0.13293">
        <ele>323.1403809</ele>
        <time>2010-09-19T08:50:58Z</time>
      </trkpt>
      <trkpt lat="43.35515" lon="-0.13284">
        <ele>324.1015625</ele>
        <time>2010-09-19T08:51:03Z</time>
      </trkpt>
      <trkpt lat="43.3551" lon="-0.13272">
        <ele>326.0241699</ele>
        <time>2010-09-19T08:51:10Z</time>
      </trkpt>
      <trkpt lat="43.35503" lon="-0.13257">
        <ele>327.4661865</ele>
        <time>2010-09-19T08:51:16Z</time>
      </trkpt>
      <trkpt lat="43.35495" lon="-0.13243">
        <ele>326.5048828</ele>
        <time>2010-09-19T08:51:21Z</time>
      </trkpt>
      <trkpt lat="43.3548" lon="-0.13229">
        <ele>326.9855957</ele>
        <time>2010-09-19T08:51:27Z</time>
      </trkpt>
      <trkpt lat="43.35461" lon="-0.13222">
        <ele>330.8309326</ele>
        <time>2010-09-19T08:51:32Z</time>
      </trkpt>
      <trkpt lat="43.35438" lon="-0.13221">
        <ele>331.3115234</ele>
        <time>2010-09-19T08:51:36Z</time>
      </trkpt>
      <trkpt lat="43.35399" lon="-0.13224">
        <ele>330.3502197</ele>
        <time>2010-09-19T08:51:41Z</time>
      </trkpt>
      <trkpt lat="43.35358" lon="-0.13229">
        <ele>328.9083252</ele>
        <time>2010-09-19T08:51:46Z</time>
      </trkpt>
      <trkpt lat="43.35332" lon="-0.13218">
        <ele>326.9855957</ele>
        <time>2010-09-19T08:51:50Z</time>
      </trkpt>
      <trkpt lat="43.35318" lon="-0.13204">
        <ele>328.9083252</ele>
        <time>2010-09-19T08:51:53Z</time>
      </trkpt>
      <trkpt lat="43.35298" lon="-0.13189">
        <ele>331.3115234</ele>
        <time>2010-09-19T08:51:59Z</time>
      </trkpt>
      <trkpt lat="43.35277" lon="-0.13174">
        <ele>332.2728271</ele>
        <time>2010-09-19T08:52:06Z</time>
      </trkpt>
      <trkpt lat="43.35249" lon="-0.13154">
        <ele>333.2341309</ele>
        <time>2010-09-19T08:52:16Z</time>
      </trkpt>
      <trkpt lat="43.35226" lon="-0.13136">
        <ele>334.6761475</ele>
        <time>2010-09-19T08:52:25Z</time>
      </trkpt>
      <trkpt lat="43.35206" lon="-0.13116">
        <ele>336.1181641</ele>
        <time>2010-09-19T08:52:34Z</time>
      </trkpt>
      <trkpt lat="43.3519" lon="-0.13091">
        <ele>338.5214844</ele>
        <time>2010-09-19T08:52:43Z</time>
      </trkpt>
      <trkpt lat="43.35185" lon="-0.1307">
        <ele>341.8859863</ele>
        <time>2010-09-19T08:52:50Z</time>
      </trkpt>
      <trkpt lat="43.35177" lon="-0.13042">
        <ele>344.7700195</ele>
        <time>2010-09-19T08:52:59Z</time>
      </trkpt>
      <trkpt lat="43.3517" lon="-0.13009">
        <ele>347.1732178</ele>
        <time>2010-09-19T08:53:09Z</time>
      </trkpt>
      <trkpt lat="43.35163" lon="-0.12975">
        <ele>349.5765381</ele>
        <time>2010-09-19T08:53:19Z</time>
      </trkpt>
      <trkpt lat="43.35161" lon="-0.12971">
        <ele>349.5765381</ele>
        <time>2010-09-19T08:53:21Z</time>
      </trkpt>
      <trkpt lat="43.35152" lon="-0.12978">
        <ele>348.6152344</ele>
        <time>2010-09-19T08:53:25Z</time>
      </trkpt>
      <trkpt lat="43.35147" lon="-0.12986">
        <ele>347.1732178</ele>
        <time>2010-09-19T08:53:28Z</time>
      </trkpt>
      <trkpt lat="43.35121" lon="-0.1299">
        <ele>343.8085938</ele>
        <time>2010-09-19T08:53:34Z</time>
      </trkpt>
      <trkpt lat="43.35085" lon="-0.1299">
        <ele>339.482666</ele>
        <time>2010-09-19T08:53:39Z</time>
      </trkpt>
      <trkpt lat="43.35078" lon="-0.12991">
        <ele>338.0407715</ele>
        <time>2010-09-19T08:53:40Z</time>
      </trkpt>
      <trkpt lat="43.35049" lon="-0.12999">
        <ele>333.2341309</ele>
        <time>2010-09-19T08:53:44Z</time>
      </trkpt>
      <trkpt lat="43.35037" lon="-0.13005">
        <ele>330.8309326</ele>
        <time>2010-09-19T08:53:47Z</time>
      </trkpt>
      <trkpt lat="43.35033" lon="-0.13006">
        <ele>330.3502197</ele>
        <time>2010-09-19T08:53:49Z</time>
      </trkpt>
      <trkpt lat="43.35026" lon="-0.13">
        <ele>329.388916</ele>
        <time>2010-09-19T08:53:54Z</time>
      </trkpt>
      <trkpt lat="43.3502" lon="-0.12998">
        <ele>329.8695068</ele>
        <time>2010-09-19T08:53:58Z</time>
      </trkpt>
      <trkpt lat="43.35017" lon="-0.12993">
        <ele>331.7921143</ele>
        <time>2010-09-19T08:54:02Z</time>
      </trkpt>
      <trkpt lat="43.35016" lon="-0.12979">
        <ele>334.6761475</ele>
        <time>2010-09-19T08:54:10Z</time>
      </trkpt>
      <trkpt lat="43.35015" lon="-0.12969">
        <ele>337.5600586</ele>
        <time>2010-09-19T08:54:17Z</time>
      </trkpt>
      <trkpt lat="43.35015" lon="-0.12962">
        <ele>340.9246826</ele>
        <time>2010-09-19T08:54:23Z</time>
      </trkpt>
      <trkpt lat="43.35013" lon="-0.12956">
        <ele>343.3278809</ele>
        <time>2010-09-19T08:54:28Z</time>
      </trkpt>
      <trkpt lat="43.35012" lon="-0.1295">
        <ele>343.8085938</ele>
        <time>2010-09-19T08:54:37Z</time>
      </trkpt>
      <trkpt lat="43.3501" lon="-0.1294">
        <ele>344.7700195</ele>
        <time>2010-09-19T08:54:44Z</time>
      </trkpt>
      <trkpt lat="43.35005" lon="-0.12928">
        <ele>345.7313232</ele>
        <time>2010-09-19T08:54:50Z</time>
      </trkpt>
      <trkpt lat="43.35003" lon="-0.12921">
        <ele>347.1732178</ele>
        <time>2010-09-19T08:54:57Z</time>
      </trkpt>
      <trkpt lat="43.35002" lon="-0.1292">
        <ele>346.692627</ele>
        <time>2010-09-19T08:55:03Z</time>
      </trkpt>
      <trkpt lat="43.35" lon="-0.12918">
        <ele>346.692627</ele>
        <time>2010-09-19T08:55:10Z</time>
      </trkpt>
      <trkpt lat="43.34999" lon="-0.12914">
        <ele>347.6539307</ele>
        <time>2010-09-19T08:55:12Z</time>
      </trkpt>
      <trkpt lat="43.34999" lon="-0.12903">
        <ele>349.5765381</ele>
        <time>2010-09-19T08:55:16Z</time>
      </trkpt>
      <trkpt lat="43.34994" lon="-0.12886">
        <ele>349.5765381</ele>
        <time>2010-09-19T08:55:25Z</time>
      </trkpt>
      <trkpt lat="43.34987" lon="-0.12871">
        <ele>350.057251</ele>
        <time>2010-09-19T08:55:32Z</time>
      </trkpt>
      <trkpt lat="43.34981" lon="-0.12853">
        <ele>349.5765381</ele>
        <time>2010-09-19T08:55:40Z</time>
      </trkpt>
      <trkpt lat="43.34979" lon="-0.12841">
        <ele>350.5378418</ele>
        <time>2010-09-19T08:55:46Z</time>
      </trkpt>
      <trkpt lat="43.34976" lon="-0.1283">
        <ele>351.4991455</ele>
        <time>2010-09-19T08:55:52Z</time>
      </trkpt>
      <trkpt lat="43.34972" lon="-0.12816">
        <ele>351.4991455</ele>
        <time>2010-09-19T08:55:59Z</time>
      </trkpt>
      <trkpt lat="43.34969" lon="-0.12795">
        <ele>352.4605713</ele>
        <time>2010-09-19T08:56:08Z</time>
      </trkpt>
      <trkpt lat="43.34967" lon="-0.12778">
        <ele>353.9025879</ele>
        <time>2010-09-19T08:56:15Z</time>
      </trkpt>
      <trkpt lat="43.34964" lon="-0.12761">
        <ele>355.3444824</ele>
        <time>2010-09-19T08:56:22Z</time>
      </trkpt>
      <trkpt lat="43.3496" lon="-0.12752">
        <ele>354.8637695</ele>
        <time>2010-09-19T08:56:27Z</time>
      </trkpt>
      <trkpt lat="43.34946" lon="-0.12747">
        <ele>354.3831787</ele>
        <time>2010-09-19T08:56:35Z</time>
      </trkpt>
      <trkpt lat="43.34944" lon="-0.12744">
        <ele>352.9411621</ele>
        <time>2010-09-19T08:56:39Z</time>
      </trkpt>
      <trkpt lat="43.34944" lon="-0.12744">
        <ele>351.4991455</ele>
        <time>2010-09-19T08:56:46Z</time>
      </trkpt>
      <trkpt lat="43.34943" lon="-0.12744">
        <ele>349.0958252</ele>
        <time>2010-09-19T08:57:47Z</time>
      </trkpt>
      <trkpt lat="43.34943" lon="-0.12744">
        <ele>349.5765381</ele>
        <time>2010-09-19T08:58:06Z</time>
      </trkpt>
      <trkpt lat="43.34944" lon="-0.12743">
        <ele>349.5765381</ele>
        <time>2010-09-19T08:58:18Z</time>
      </trkpt>
      <trkpt lat="43.34944" lon="-0.12744">
        <ele>349.5765381</ele>
        <time>2010-09-19T08:58:31Z</time>
      </trkpt>
      <trkpt lat="43.34944" lon="-0.12746">
        <ele>350.5378418</ele>
        <time>2010-09-19T08:59:25Z</time>
      </trkpt>
      <trkpt lat="43.34944" lon="-0.12746">
        <ele>350.5378418</ele>
        <time>2010-09-19T09:00:01Z</time>
      </trkpt>
      <trkpt lat="43.34944" lon="-0.12745">
        <ele>351.4991455</ele>
        <time>2010-09-19T09:00:18Z</time>
      </trkpt>
      <trkpt lat="43.34943" lon="-0.12747">
        <ele>351.4991455</ele>
        <time>2010-09-19T09:00:38Z</time>
      </trkpt>
      <trkpt lat="43.34939" lon="-0.12748">
        <ele>351.0184326</ele>
        <time>2010-09-19T09:00:44Z</time>
      </trkpt>
      <trkpt lat="43.34937" lon="-0.12747">
        <ele>351.9798584</ele>
        <time>2010-09-19T09:00:51Z</time>
      </trkpt>
      <trkpt lat="43.34934" lon="-0.12747">
        <ele>351.9798584</ele>
        <time>2010-09-19T09:00:57Z</time>
      </trkpt>
      <trkpt lat="43.34931" lon="-0.12747">
        <ele>351.9798584</ele>
        <time>2010-09-19T09:00:59Z</time>
      </trkpt>
      <trkpt lat="43.34912" lon="-0.12741">
        <ele>351.9798584</ele>
        <time>2010-09-19T09:01:07Z</time>
      </trkpt>
      <trkpt lat="43.34889" lon="-0.12737">
        <ele>352.4605713</ele>
        <time>2010-09-19T09:01:14Z</time>
      </trkpt>
      <trkpt lat="43.34858" lon="-0.12729">
        <ele>351.9798584</ele>
        <time>2010-09-19T09:01:23Z</time>
      </trkpt>
      <trkpt lat="43.34828" lon="-0.12723">
        <ele>351.9798584</ele>
        <time>2010-09-19T09:01:31Z</time>
      </trkpt>
      <trkpt lat="43.34801" lon="-0.12717">
        <ele>351.9798584</ele>
        <time>2010-09-19T09:01:38Z</time>
      </trkpt>
      <trkpt lat="43.34764" lon="-0.12706">
        <ele>352.4605713</ele>
        <time>2010-09-19T09:01:48Z</time>
      </trkpt>
      <trkpt lat="43.34726" lon="-0.127">
        <ele>353.421875</ele>
        <time>2010-09-19T09:01:58Z</time>
      </trkpt>
      <trkpt lat="43.34682" lon="-0.127">
        <ele>353.421875</ele>
        <time>2010-09-19T09:02:09Z</time>
      </trkpt>
      <trkpt lat="43.34641" lon="-0.12704">
        <ele>353.421875</ele>
        <time>2010-09-19T09:02:19Z</time>
      </trkpt>
      <trkpt lat="43.34614" lon="-0.1271">
        <ele>354.3831787</ele>
        <time>2010-09-19T09:02:25Z</time>
      </trkpt>
      <trkpt lat="43.34582" lon="-0.1271">
        <ele>355.3444824</ele>
        <time>2010-09-19T09:02:33Z</time>
      </trkpt>
      <trkpt lat="43.34565" lon="-0.12707">
        <ele>355.3444824</ele>
        <time>2010-09-19T09:02:37Z</time>
      </trkpt>
      <trkpt lat="43.34535" lon="-0.12696">
        <ele>356.3057861</ele>
        <time>2010-09-19T09:02:44Z</time>
      </trkpt>
      <trkpt lat="43.34511" lon="-0.12692">
        <ele>357.2670898</ele>
        <time>2010-09-19T09:02:50Z</time>
      </trkpt>
      <trkpt lat="43.34484" lon="-0.12683">
        <ele>357.7478027</ele>
        <time>2010-09-19T09:02:57Z</time>
      </trkpt>
      <trkpt lat="43.34467" lon="-0.12686">
        <ele>358.2283936</ele>
        <time>2010-09-19T09:03:02Z</time>
      </trkpt>
      <trkpt lat="43.34449" lon="-0.12706">
        <ele>359.1896973</ele>
        <time>2010-09-19T09:03:08Z</time>
      </trkpt>
      <trkpt lat="43.34429" lon="-0.12727">
        <ele>360.6317139</ele>
        <time>2010-09-19T09:03:15Z</time>
      </trkpt>
      <trkpt lat="43.34396" lon="-0.12759">
        <ele>363.0350342</ele>
        <time>2010-09-19T09:03:25Z</time>
      </trkpt>
      <trkpt lat="43.34366" lon="-0.12789">
        <ele>365.4383545</ele>
        <time>2010-09-19T09:03:34Z</time>
      </trkpt>
      <trkpt lat="43.34331" lon="-0.12823">
        <ele>366.880249</ele>
        <time>2010-09-19T09:03:44Z</time>
      </trkpt>
      <trkpt lat="43.34293" lon="-0.12859">
        <ele>367.8415527</ele>
        <time>2010-09-19T09:03:54Z</time>
      </trkpt>
      <trkpt lat="43.34266" lon="-0.12884">
        <ele>367.8415527</ele>
        <time>2010-09-19T09:04:01Z</time>
      </trkpt>
      <trkpt lat="43.34231" lon="-0.12916">
        <ele>367.3609619</ele>
        <time>2010-09-19T09:04:09Z</time>
      </trkpt>
      <trkpt lat="43.34184" lon="-0.12953">
        <ele>365.4383545</ele>
        <time>2010-09-19T09:04:18Z</time>
      </trkpt>
      <trkpt lat="43.34173" lon="-0.12961">
        <ele>365.4383545</ele>
        <time>2010-09-19T09:04:20Z</time>
      </trkpt>
      <trkpt lat="43.34163" lon="-0.12983">
        <ele>364.4769287</ele>
        <time>2010-09-19T09:04:24Z</time>
      </trkpt>
      <trkpt lat="43.34167" lon="-0.13004">
        <ele>363.9963379</ele>
        <time>2010-09-19T09:04:27Z</time>
      </trkpt>
      <trkpt lat="43.3417" lon="-0.13063">
        <ele>363.0350342</ele>
        <time>2010-09-19T09:04:35Z</time>
      </trkpt>
      <trkpt lat="43.34172" lon="-0.13124">
        <ele>362.5543213</ele>
        <time>2010-09-19T09:04:43Z</time>
      </trkpt>
      <trkpt lat="43.34174" lon="-0.13176">
        <ele>361.5931396</ele>
        <time>2010-09-19T09:04:50Z</time>
      </trkpt>
      <trkpt lat="43.34181" lon="-0.13201">
        <ele>360.6317139</ele>
        <time>2010-09-19T09:04:54Z</time>
      </trkpt>
      <trkpt lat="43.342" lon="-0.13235">
        <ele>360.6317139</ele>
        <time>2010-09-19T09:05:00Z</time>
      </trkpt>
      <trkpt lat="43.34212" lon="-0.13273">
        <ele>360.6317139</ele>
        <time>2010-09-19T09:05:06Z</time>
      </trkpt>
      <trkpt lat="43.34213" lon="-0.13279">
        <ele>360.6317139</ele>
        <time>2010-09-19T09:05:07Z</time>
      </trkpt>
      <trkpt lat="43.34221" lon="-0.13324">
        <ele>362.5543213</ele>
        <time>2010-09-19T09:05:15Z</time>
      </trkpt>
      <trkpt lat="43.3423" lon="-0.13349">
        <ele>363.5157471</ele>
        <time>2010-09-19T09:05:21Z</time>
      </trkpt>
      <trkpt lat="43.34247" lon="-0.13372">
        <ele>363.9963379</ele>
        <time>2010-09-19T09:05:27Z</time>
      </trkpt>
      <trkpt lat="43.34272" lon="-0.13394">
        <ele>363.0350342</ele>
        <time>2010-09-19T09:05:34Z</time>
      </trkpt>
      <trkpt lat="43.34295" lon="-0.13416">
        <ele>363.5157471</ele>
        <time>2010-09-19T09:05:40Z</time>
      </trkpt>
      <trkpt lat="43.34305" lon="-0.13427">
        <ele>363.5157471</ele>
        <time>2010-09-19T09:05:43Z</time>
      </trkpt>
      <trkpt lat="43.34302" lon="-0.13434">
        <ele>364.4769287</ele>
        <time>2010-09-19T09:05:47Z</time>
      </trkpt>
      <trkpt lat="43.34292" lon="-0.13432">
        <ele>364.9576416</ele>
        <time>2010-09-19T09:05:52Z</time>
      </trkpt>
      <trkpt lat="43.34272" lon="-0.13447">
        <ele>365.4383545</ele>
        <time>2010-09-19T09:06:00Z</time>
      </trkpt>
      <trkpt lat="43.34252" lon="-0.13465">
        <ele>365.9189453</ele>
        <time>2010-09-19T09:06:07Z</time>
      </trkpt>
      <trkpt lat="43.34225" lon="-0.13491">
        <ele>365.4383545</ele>
        <time>2010-09-19T09:06:15Z</time>
      </trkpt>
      <trkpt lat="43.34221" lon="-0.13494">
        <ele>365.4383545</ele>
        <time>2010-09-19T09:06:16Z</time>
      </trkpt>
      <trkpt lat="43.34204" lon="-0.13499">
        <ele>365.4383545</ele>
        <time>2010-09-19T09:06:20Z</time>
      </trkpt>
      <trkpt lat="43.34189" lon="-0.13511">
        <ele>365.4383545</ele>
        <time>2010-09-19T09:06:25Z</time>
      </trkpt>
      <trkpt lat="43.34169" lon="-0.13567">
        <ele>362.5543213</ele>
        <time>2010-09-19T09:06:34Z</time>
      </trkpt>
      <trkpt lat="43.34157" lon="-0.13594">
        <ele>360.6317139</ele>
        <time>2010-09-19T09:06:38Z</time>
      </trkpt>
      <trkpt lat="43.34142" lon="-0.13644">
        <ele>357.2670898</ele>
        <time>2010-09-19T09:06:44Z</time>
      </trkpt>
      <trkpt lat="43.34142" lon="-0.13678">
        <ele>353.9025879</ele>
        <time>2010-09-19T09:06:48Z</time>
      </trkpt>
      <trkpt lat="43.34147" lon="-0.13695">
        <ele>352.9411621</ele>
        <time>2010-09-19T09:06:50Z</time>
      </trkpt>
      <trkpt lat="43.34163" lon="-0.13722">
        <ele>350.057251</ele>
        <time>2010-09-19T09:06:55Z</time>
      </trkpt>
      <trkpt lat="43.34168" lon="-0.13725">
        <ele>349.0958252</ele>
        <time>2010-09-19T09:06:56Z</time>
      </trkpt>
      <trkpt lat="43.34197" lon="-0.13726">
        <ele>349.5765381</ele>
        <time>2010-09-19T09:07:01Z</time>
      </trkpt>
      <trkpt lat="43.34214" lon="-0.13729">
        <ele>350.057251</ele>
        <time>2010-09-19T09:07:04Z</time>
      </trkpt>
      <trkpt lat="43.34241" lon="-0.13725">
        <ele>349.5765381</ele>
        <time>2010-09-19T09:07:09Z</time>
      </trkpt>
      <trkpt lat="43.34262" lon="-0.13715">
        <ele>349.5765381</ele>
        <time>2010-09-19T09:07:13Z</time>
      </trkpt>
      <trkpt lat="43.343" lon="-0.13707">
        <ele>345.2506104</ele>
        <time>2010-09-19T09:07:19Z</time>
      </trkpt>
      <trkpt lat="43.3433" lon="-0.13717">
        <ele>341.8859863</ele>
        <time>2010-09-19T09:07:23Z</time>
      </trkpt>
      <trkpt lat="43.34363" lon="-0.13732">
        <ele>337.5600586</ele>
        <time>2010-09-19T09:07:27Z</time>
      </trkpt>
      <trkpt lat="43.34387" lon="-0.13738">
        <ele>333.2341309</ele>
        <time>2010-09-19T09:07:31Z</time>
      </trkpt>
      <trkpt lat="43.3439" lon="-0.13748">
        <ele>330.8309326</ele>
        <time>2010-09-19T09:07:35Z</time>
      </trkpt>
      <trkpt lat="43.34386" lon="-0.13751">
        <ele>330.3502197</ele>
        <time>2010-09-19T09:07:37Z</time>
      </trkpt>
      <trkpt lat="43.34366" lon="-0.13763">
        <ele>329.388916</ele>
        <time>2010-09-19T09:07:42Z</time>
      </trkpt>
      <trkpt lat="43.34347" lon="-0.13785">
        <ele>328.9083252</ele>
        <time>2010-09-19T09:07:47Z</time>
      </trkpt>
      <trkpt lat="43.34345" lon="-0.13798">
        <ele>326.5048828</ele>
        <time>2010-09-19T09:07:50Z</time>
      </trkpt>
      <trkpt lat="43.34355" lon="-0.13831">
        <ele>319.2950439</ele>
        <time>2010-09-19T09:07:54Z</time>
      </trkpt>
      <trkpt lat="43.34369" lon="-0.13892">
        <ele>310.6430664</ele>
        <time>2010-09-19T09:07:59Z</time>
      </trkpt>
      <trkpt lat="43.34382" lon="-0.1394">
        <ele>305.355957</ele>
        <time>2010-09-19T09:08:04Z</time>
      </trkpt>
      <trkpt lat="43.34386" lon="-0.13951">
        <ele>303.4332275</ele>
        <time>2010-09-19T09:08:07Z</time>
      </trkpt>
      <trkpt lat="43.34389" lon="-0.13962">
        <ele>303.4332275</ele>
        <time>2010-09-19T09:08:12Z</time>
      </trkpt>
      <trkpt lat="43.34386" lon="-0.13976">
        <ele>305.355957</ele>
        <time>2010-09-19T09:08:17Z</time>
      </trkpt>
      <trkpt lat="43.34383" lon="-0.13997">
        <ele>306.3172607</ele>
        <time>2010-09-19T09:08:23Z</time>
      </trkpt>
      <trkpt lat="43.3438" lon="-0.14031">
        <ele>306.7978516</ele>
        <time>2010-09-19T09:08:30Z</time>
      </trkpt>
      <trkpt lat="43.34376" lon="-0.14091">
        <ele>308.2398682</ele>
        <time>2010-09-19T09:08:41Z</time>
      </trkpt>
      <trkpt lat="43.3437" lon="-0.1411">
        <ele>310.1624756</ele>
        <time>2010-09-19T09:08:46Z</time>
      </trkpt>
      <trkpt lat="43.34362" lon="-0.14124">
        <ele>311.6044922</ele>
        <time>2010-09-19T09:08:50Z</time>
      </trkpt>
      <trkpt lat="43.34352" lon="-0.14133">
        <ele>314.0078125</ele>
        <time>2010-09-19T09:08:57Z</time>
      </trkpt>
      <trkpt lat="43.3434" lon="-0.14132">
        <ele>315.9304199</ele>
        <time>2010-09-19T09:09:04Z</time>
      </trkpt>
      <trkpt lat="43.34322" lon="-0.14133">
        <ele>316.8917236</ele>
        <time>2010-09-19T09:09:11Z</time>
      </trkpt>
      <trkpt lat="43.34304" lon="-0.14132">
        <ele>314.0078125</ele>
        <time>2010-09-19T09:09:17Z</time>
      </trkpt>
      <trkpt lat="43.34278" lon="-0.14125">
        <ele>313.5272217</ele>
        <time>2010-09-19T09:09:24Z</time>
      </trkpt>
      <trkpt lat="43.34258" lon="-0.1412">
        <ele>314.4884033</ele>
        <time>2010-09-19T09:09:30Z</time>
      </trkpt>
      <trkpt lat="43.34236" lon="-0.14115">
        <ele>314.9691162</ele>
        <time>2010-09-19T09:09:37Z</time>
      </trkpt>
      <trkpt lat="43.34207" lon="-0.14109">
        <ele>314.9691162</ele>
        <time>2010-09-19T09:09:44Z</time>
      </trkpt>
      <trkpt lat="43.34182" lon="-0.14105">
        <ele>316.4110107</ele>
        <time>2010-09-19T09:09:50Z</time>
      </trkpt>
      <trkpt lat="43.34155" lon="-0.1411">
        <ele>318.3336182</ele>
        <time>2010-09-19T09:09:57Z</time>
      </trkpt>
      <trkpt lat="43.34131" lon="-0.14112">
        <ele>320.2563477</ele>
        <time>2010-09-19T09:10:04Z</time>
      </trkpt>
      <trkpt lat="43.34104" lon="-0.14125">
        <ele>320.2563477</ele>
        <time>2010-09-19T09:10:11Z</time>
      </trkpt>
      <trkpt lat="43.34079" lon="-0.14136">
        <ele>320.2563477</ele>
        <time>2010-09-19T09:10:17Z</time>
      </trkpt>
      <trkpt lat="43.34059" lon="-0.14145">
        <ele>322.1789551</ele>
        <time>2010-09-19T09:10:23Z</time>
      </trkpt>
      <trkpt lat="43.34036" lon="-0.14157">
        <ele>323.6209717</ele>
        <time>2010-09-19T09:10:30Z</time>
      </trkpt>
      <trkpt lat="43.34017" lon="-0.14168">
        <ele>328.9083252</ele>
        <time>2010-09-19T09:10:36Z</time>
      </trkpt>
      <trkpt lat="43.34004" lon="-0.14173">
        <ele>330.3502197</ele>
        <time>2010-09-19T09:10:40Z</time>
      </trkpt>
      <trkpt lat="43.33991" lon="-0.14182">
        <ele>327.4661865</ele>
        <time>2010-09-19T09:10:44Z</time>
      </trkpt>
      <trkpt lat="43.33977" lon="-0.14187">
        <ele>326.9855957</ele>
        <time>2010-09-19T09:10:48Z</time>
      </trkpt>
      <trkpt lat="43.33962" lon="-0.14182">
        <ele>326.0241699</ele>
        <time>2010-09-19T09:10:53Z</time>
      </trkpt>
      <trkpt lat="43.33945" lon="-0.14189">
        <ele>326.5048828</ele>
        <time>2010-09-19T09:10:58Z</time>
      </trkpt>
      <trkpt lat="43.33927" lon="-0.14198">
        <ele>329.388916</ele>
        <time>2010-09-19T09:11:04Z</time>
      </trkpt>
      <trkpt lat="43.33915" lon="-0.14201">
        <ele>329.388916</ele>
        <time>2010-09-19T09:11:08Z</time>
      </trkpt>
      <trkpt lat="43.33906" lon="-0.1421">
        <ele>329.8695068</ele>
        <time>2010-09-19T09:11:13Z</time>
      </trkpt>
      <trkpt lat="43.33891" lon="-0.14227">
        <ele>334.1954346</ele>
        <time>2010-09-19T09:11:18Z</time>
      </trkpt>
      <trkpt lat="43.33877" lon="-0.14247">
        <ele>336.1181641</ele>
        <time>2010-09-19T09:11:23Z</time>
      </trkpt>
      <trkpt lat="43.3387" lon="-0.14264">
        <ele>335.6373291</ele>
        <time>2010-09-19T09:11:28Z</time>
      </trkpt>
      <trkpt lat="43.33859" lon="-0.14281">
        <ele>336.1181641</ele>
        <time>2010-09-19T09:11:34Z</time>
      </trkpt>
      <trkpt lat="43.33844" lon="-0.14294">
        <ele>335.1567383</ele>
        <time>2010-09-19T09:11:41Z</time>
      </trkpt>
      <trkpt lat="43.33825" lon="-0.14307">
        <ele>333.2341309</ele>
        <time>2010-09-19T09:11:49Z</time>
      </trkpt>
      <trkpt lat="43.33802" lon="-0.14324">
        <ele>332.2728271</ele>
        <time>2010-09-19T09:11:57Z</time>
      </trkpt>
      <trkpt lat="43.33781" lon="-0.14339">
        <ele>332.75354</ele>
        <time>2010-09-19T09:12:05Z</time>
      </trkpt>
      <trkpt lat="43.33759" lon="-0.14353">
        <ele>332.2728271</ele>
        <time>2010-09-19T09:12:14Z</time>
      </trkpt>
      <trkpt lat="43.3374" lon="-0.14365">
        <ele>332.2728271</ele>
        <time>2010-09-19T09:12:22Z</time>
      </trkpt>
      <trkpt lat="43.33721" lon="-0.14376">
        <ele>332.2728271</ele>
        <time>2010-09-19T09:12:30Z</time>
      </trkpt>
      <trkpt lat="43.33714" lon="-0.14368">
        <ele>331.7921143</ele>
        <time>2010-09-19T09:12:34Z</time>
      </trkpt>
      <trkpt lat="43.33713" lon="-0.14364">
        <ele>331.7921143</ele>
        <time>2010-09-19T09:12:35Z</time>
      </trkpt>
      <trkpt lat="43.33709" lon="-0.14339">
        <ele>331.3115234</ele>
        <time>2010-09-19T09:12:41Z</time>
      </trkpt>
      <trkpt lat="43.33699" lon="-0.14336">
        <ele>330.8309326</ele>
        <time>2010-09-19T09:12:45Z</time>
      </trkpt>
      <trkpt lat="43.33676" lon="-0.14355">
        <ele>331.7921143</ele>
        <time>2010-09-19T09:12:54Z</time>
      </trkpt>
      <trkpt lat="43.33651" lon="-0.14378">
        <ele>333.2341309</ele>
        <time>2010-09-19T09:13:05Z</time>
      </trkpt>
      <trkpt lat="43.33637" lon="-0.14389">
        <ele>333.7147217</ele>
        <time>2010-09-19T09:13:11Z</time>
      </trkpt>
      <trkpt lat="43.33617" lon="-0.14407">
        <ele>334.6761475</ele>
        <time>2010-09-19T09:13:20Z</time>
      </trkpt>
      <trkpt lat="43.33592" lon="-0.14429">
        <ele>335.6373291</ele>
        <time>2010-09-19T09:13:31Z</time>
      </trkpt>
      <trkpt lat="43.33577" lon="-0.14441">
        <ele>337.5600586</ele>
        <time>2010-09-19T09:13:39Z</time>
      </trkpt>
      <trkpt lat="43.33563" lon="-0.1445">
        <ele>339.482666</ele>
        <time>2010-09-19T09:13:46Z</time>
      </trkpt>
      <trkpt lat="43.33555" lon="-0.14458">
        <ele>340.9246826</ele>
        <time>2010-09-19T09:13:52Z</time>
      </trkpt>
      <trkpt lat="43.33548" lon="-0.14466">
        <ele>342.84729</ele>
        <time>2010-09-19T09:13:57Z</time>
      </trkpt>
      <trkpt lat="43.3354" lon="-0.14465">
        <ele>343.8085938</ele>
        <time>2010-09-19T09:14:02Z</time>
      </trkpt>
      <trkpt lat="43.33529" lon="-0.14459">
        <ele>346.2120361</ele>
        <time>2010-09-19T09:14:07Z</time>
      </trkpt>
      <trkpt lat="43.33512" lon="-0.14448">
        <ele>349.0958252</ele>
        <time>2010-09-19T09:14:13Z</time>
      </trkpt>
      <trkpt lat="43.33494" lon="-0.14436">
        <ele>350.057251</ele>
        <time>2010-09-19T09:14:19Z</time>
      </trkpt>
      <trkpt lat="43.3347" lon="-0.14422">
        <ele>347.6539307</ele>
        <time>2010-09-19T09:14:25Z</time>
      </trkpt>
      <trkpt lat="43.33442" lon="-0.14408">
        <ele>347.1732178</ele>
        <time>2010-09-19T09:14:31Z</time>
      </trkpt>
      <trkpt lat="43.33424" lon="-0.14402">
        <ele>347.1732178</ele>
        <time>2010-09-19T09:14:37Z</time>
      </trkpt>
      <trkpt lat="43.33406" lon="-0.14397">
        <ele>347.6539307</ele>
        <time>2010-09-19T09:14:44Z</time>
      </trkpt>
      <trkpt lat="43.33386" lon="-0.14394">
        <ele>347.6539307</ele>
        <time>2010-09-19T09:14:52Z</time>
      </trkpt>
      <trkpt lat="43.33365" lon="-0.14394">
        <ele>347.1732178</ele>
        <time>2010-09-19T09:15:00Z</time>
      </trkpt>
      <trkpt lat="43.33363" lon="-0.14392">
        <ele>347.1732178</ele>
        <time>2010-09-19T09:15:01Z</time>
      </trkpt>
      <trkpt lat="43.33356" lon="-0.14367">
        <ele>346.2120361</ele>
        <time>2010-09-19T09:15:07Z</time>
      </trkpt>
      <trkpt lat="43.33349" lon="-0.14333">
        <ele>344.2894287</ele>
        <time>2010-09-19T09:15:12Z</time>
      </trkpt>
      <trkpt lat="43.33338" lon="-0.14281">
        <ele>341.8859863</ele>
        <time>2010-09-19T09:15:18Z</time>
      </trkpt>
      <trkpt lat="43.3332" lon="-0.1423">
        <ele>339.0020752</ele>
        <time>2010-09-19T09:15:24Z</time>
      </trkpt>
      <trkpt lat="43.33303" lon="-0.14171">
        <ele>336.598877</ele>
        <time>2010-09-19T09:15:30Z</time>
      </trkpt>
      <trkpt lat="43.333" lon="-0.14163">
        <ele>336.1181641</ele>
        <time>2010-09-19T09:15:31Z</time>
      </trkpt>
      <trkpt lat="43.33292" lon="-0.14138">
        <ele>336.598877</ele>
        <time>2010-09-19T09:15:36Z</time>
      </trkpt>
      <trkpt lat="43.33301" lon="-0.14121">
        <ele>336.1181641</ele>
        <time>2010-09-19T09:15:40Z</time>
      </trkpt>
      <trkpt lat="43.33314" lon="-0.14099">
        <ele>336.598877</ele>
        <time>2010-09-19T09:15:44Z</time>
      </trkpt>
      <trkpt lat="43.33324" lon="-0.14075">
        <ele>336.1181641</ele>
        <time>2010-09-19T09:15:48Z</time>
      </trkpt>
      <trkpt lat="43.33333" lon="-0.14047">
        <ele>334.6761475</ele>
        <time>2010-09-19T09:15:52Z</time>
      </trkpt>
      <trkpt lat="43.33346" lon="-0.14002">
        <ele>331.3115234</ele>
        <time>2010-09-19T09:15:58Z</time>
      </trkpt>
      <trkpt lat="43.33352" lon="-0.13987">
        <ele>330.8309326</ele>
        <time>2010-09-19T09:16:00Z</time>
      </trkpt>
      <trkpt lat="43.33371" lon="-0.13951">
        <ele>331.3115234</ele>
        <time>2010-09-19T09:16:05Z</time>
      </trkpt>
      <trkpt lat="43.33384" lon="-0.13934">
        <ele>330.8309326</ele>
        <time>2010-09-19T09:16:08Z</time>
      </trkpt>
      <trkpt lat="43.33412" lon="-0.13917">
        <ele>331.3115234</ele>
        <time>2010-09-19T09:16:13Z</time>
      </trkpt>
      <trkpt lat="43.33457" lon="-0.13898">
        <ele>329.388916</ele>
        <time>2010-09-19T09:16:20Z</time>
      </trkpt>
      <trkpt lat="43.33497" lon="-0.13879">
        <ele>326.9855957</ele>
        <time>2010-09-19T09:16:26Z</time>
      </trkpt>
      <trkpt lat="43.33544" lon="-0.13855">
        <ele>324.5822754</ele>
        <time>2010-09-19T09:16:33Z</time>
      </trkpt>
      <trkpt lat="43.33583" lon="-0.13828">
        <ele>324.5822754</ele>
        <time>2010-09-19T09:16:39Z</time>
      </trkpt>
      <trkpt lat="43.33602" lon="-0.13803">
        <ele>326.5048828</ele>
        <time>2010-09-19T09:16:44Z</time>
      </trkpt>
      <trkpt lat="43.33612" lon="-0.13797">
        <ele>329.388916</ele>
        <time>2010-09-19T09:16:49Z</time>
      </trkpt>
      <trkpt lat="43.33621" lon="-0.13789">
        <ele>333.2341309</ele>
        <time>2010-09-19T09:16:55Z</time>
      </trkpt>
      <trkpt lat="43.33635" lon="-0.13784">
        <ele>335.1567383</ele>
        <time>2010-09-19T09:17:01Z</time>
      </trkpt>
      <trkpt lat="43.33647" lon="-0.13779">
        <ele>337.0794678</ele>
        <time>2010-09-19T09:17:07Z</time>
      </trkpt>
      <trkpt lat="43.33667" lon="-0.13771">
        <ele>340.4440918</ele>
        <time>2010-09-19T09:17:17Z</time>
      </trkpt>
      <trkpt lat="43.33681" lon="-0.13758">
        <ele>343.3278809</ele>
        <time>2010-09-19T09:17:26Z</time>
      </trkpt>
      <trkpt lat="43.33688" lon="-0.13747">
        <ele>344.7700195</ele>
        <time>2010-09-19T09:17:32Z</time>
      </trkpt>
      <trkpt lat="43.33695" lon="-0.13737">
        <ele>346.2120361</ele>
        <time>2010-09-19T09:17:39Z</time>
      </trkpt>
      <trkpt lat="43.33706" lon="-0.13723">
        <ele>348.1346436</ele>
        <time>2010-09-19T09:17:48Z</time>
      </trkpt>
      <trkpt lat="43.33715" lon="-0.13711">
        <ele>350.057251</ele>
        <time>2010-09-19T09:17:56Z</time>
      </trkpt>
      <trkpt lat="43.33721" lon="-0.13701">
        <ele>350.057251</ele>
        <time>2010-09-19T09:18:03Z</time>
      </trkpt>
      <trkpt lat="43.33722" lon="-0.13688">
        <ele>351.9798584</ele>
        <time>2010-09-19T09:18:10Z</time>
      </trkpt>
      <trkpt lat="43.33721" lon="-0.1367">
        <ele>354.3831787</ele>
        <time>2010-09-19T09:18:18Z</time>
      </trkpt>
      <trkpt lat="43.3372" lon="-0.13658">
        <ele>355.3444824</ele>
        <time>2010-09-19T09:18:23Z</time>
      </trkpt>
      <trkpt lat="43.33716" lon="-0.13643">
        <ele>355.8251953</ele>
        <time>2010-09-19T09:18:28Z</time>
      </trkpt>
      <trkpt lat="43.33705" lon="-0.13615">
        <ele>357.7478027</ele>
        <time>2010-09-19T09:18:36Z</time>
      </trkpt>
      <trkpt lat="43.33696" lon="-0.13601">
        <ele>359.1896973</ele>
        <time>2010-09-19T09:18:42Z</time>
      </trkpt>
      <trkpt lat="43.33685" lon="-0.13591">
        <ele>361.5931396</ele>
        <time>2010-09-19T09:18:49Z</time>
      </trkpt>
      <trkpt lat="43.33672" lon="-0.13578">
        <ele>364.4769287</ele>
        <time>2010-09-19T09:18:58Z</time>
      </trkpt>
      <trkpt lat="43.3366" lon="-0.13566">
        <ele>365.9189453</ele>
        <time>2010-09-19T09:19:05Z</time>
      </trkpt>
      <trkpt lat="43.3365" lon="-0.13556">
        <ele>367.3609619</ele>
        <time>2010-09-19T09:19:12Z</time>
      </trkpt>
      <trkpt lat="43.33643" lon="-0.13548">
        <ele>366.880249</ele>
        <time>2010-09-19T09:19:17Z</time>
      </trkpt>
      <trkpt lat="43.3363" lon="-0.13536">
        <ele>363.9963379</ele>
        <time>2010-09-19T09:19:24Z</time>
      </trkpt>
      <trkpt lat="43.33619" lon="-0.13524">
        <ele>361.5931396</ele>
        <time>2010-09-19T09:19:31Z</time>
      </trkpt>
      <trkpt lat="43.33606" lon="-0.1351">
        <ele>361.1124268</ele>
        <time>2010-09-19T09:19:37Z</time>
      </trkpt>
      <trkpt lat="43.33597" lon="-0.13497">
        <ele>361.1124268</ele>
        <time>2010-09-19T09:19:42Z</time>
      </trkpt>
      <trkpt lat="43.33587" lon="-0.13476">
        <ele>361.5931396</ele>
        <time>2010-09-19T09:19:47Z</time>
      </trkpt>
      <trkpt lat="43.33577" lon="-0.13455">
        <ele>362.5543213</ele>
        <time>2010-09-19T09:19:51Z</time>
      </trkpt>
      <trkpt lat="43.33559" lon="-0.13418">
        <ele>363.5157471</ele>
        <time>2010-09-19T09:19:57Z</time>
      </trkpt>
      <trkpt lat="43.33556" lon="-0.13412">
        <ele>363.5157471</ele>
        <time>2010-09-19T09:19:58Z</time>
      </trkpt>
      <trkpt lat="43.33546" lon="-0.13381">
        <ele>365.9189453</ele>
        <time>2010-09-19T09:20:03Z</time>
      </trkpt>
      <trkpt lat="43.33536" lon="-0.13355">
        <ele>366.880249</ele>
        <time>2010-09-19T09:20:08Z</time>
      </trkpt>
      <trkpt lat="43.3352" lon="-0.13324">
        <ele>366.880249</ele>
        <time>2010-09-19T09:20:15Z</time>
      </trkpt>
      <trkpt lat="43.33509" lon="-0.13297">
        <ele>367.3609619</ele>
        <time>2010-09-19T09:20:21Z</time>
      </trkpt>
      <trkpt lat="43.33493" lon="-0.1325">
        <ele>368.3222656</ele>
        <time>2010-09-19T09:20:31Z</time>
      </trkpt>
      <trkpt lat="43.33477" lon="-0.13207">
        <ele>370.244873</ele>
        <time>2010-09-19T09:20:40Z</time>
      </trkpt>
      <trkpt lat="43.33469" lon="-0.13173">
        <ele>369.2836914</ele>
        <time>2010-09-19T09:20:47Z</time>
      </trkpt>
      <trkpt lat="43.33459" lon="-0.13139">
        <ele>368.8029785</ele>
        <time>2010-09-19T09:20:54Z</time>
      </trkpt>
      <trkpt lat="43.33449" lon="-0.1314">
        <ele>368.3222656</ele>
        <time>2010-09-19T09:20:58Z</time>
      </trkpt>
      <trkpt lat="43.33424" lon="-0.13153">
        <ele>369.7642822</ele>
        <time>2010-09-19T09:21:06Z</time>
      </trkpt>
      <trkpt lat="43.33392" lon="-0.1317">
        <ele>370.7255859</ele>
        <time>2010-09-19T09:21:17Z</time>
      </trkpt>
      <trkpt lat="43.33363" lon="-0.13182">
        <ele>371.6868896</ele>
        <time>2010-09-19T09:21:26Z</time>
      </trkpt>
      <trkpt lat="43.33328" lon="-0.13198">
        <ele>372.6481934</ele>
        <time>2010-09-19T09:21:37Z</time>
      </trkpt>
      <trkpt lat="43.33297" lon="-0.13211">
        <ele>373.1289063</ele>
        <time>2010-09-19T09:21:46Z</time>
      </trkpt>
      <trkpt lat="43.3327" lon="-0.13221">
        <ele>374.0900879</ele>
        <time>2010-09-19T09:21:55Z</time>
      </trkpt>
      <trkpt lat="43.33253" lon="-0.13229">
        <ele>374.0900879</ele>
        <time>2010-09-19T09:22:02Z</time>
      </trkpt>
      <trkpt lat="43.33231" lon="-0.1324">
        <ele>375.0515137</ele>
        <time>2010-09-19T09:22:11Z</time>
      </trkpt>
      <trkpt lat="43.33211" lon="-0.13257">
        <ele>375.5321045</ele>
        <time>2010-09-19T09:22:20Z</time>
      </trkpt>
      <trkpt lat="43.33194" lon="-0.13278">
        <ele>375.0515137</ele>
        <time>2010-09-19T09:22:28Z</time>
      </trkpt>
      <trkpt lat="43.33184" lon="-0.13295">
        <ele>375.0515137</ele>
        <time>2010-09-19T09:22:33Z</time>
      </trkpt>
      <trkpt lat="43.33171" lon="-0.13316">
        <ele>375.0515137</ele>
        <time>2010-09-19T09:22:39Z</time>
      </trkpt>
      <trkpt lat="43.33164" lon="-0.13338">
        <ele>375.0515137</ele>
        <time>2010-09-19T09:22:45Z</time>
      </trkpt>
      <trkpt lat="43.33157" lon="-0.13374">
        <ele>373.6094971</ele>
        <time>2010-09-19T09:22:53Z</time>
      </trkpt>
      <trkpt lat="43.33151" lon="-0.13408">
        <ele>371.6868896</ele>
        <time>2010-09-19T09:22:59Z</time>
      </trkpt>
      <trkpt lat="43.33142" lon="-0.13439">
        <ele>371.6868896</ele>
        <time>2010-09-19T09:23:04Z</time>
      </trkpt>
      <trkpt lat="43.33134" lon="-0.13465">
        <ele>371.2062988</ele>
        <time>2010-09-19T09:23:09Z</time>
      </trkpt>
      <trkpt lat="43.33119" lon="-0.13483">
        <ele>371.2062988</ele>
        <time>2010-09-19T09:23:14Z</time>
      </trkpt>
      <trkpt lat="43.33106" lon="-0.13478">
        <ele>370.7255859</ele>
        <time>2010-09-19T09:23:17Z</time>
      </trkpt>
      <trkpt lat="43.33085" lon="-0.13466">
        <ele>370.7255859</ele>
        <time>2010-09-19T09:23:22Z</time>
      </trkpt>
      <trkpt lat="43.33054" lon="-0.13447">
        <ele>370.7255859</ele>
        <time>2010-09-19T09:23:30Z</time>
      </trkpt>
      <trkpt lat="43.33021" lon="-0.13428">
        <ele>369.7642822</ele>
        <time>2010-09-19T09:23:38Z</time>
      </trkpt>
      <trkpt lat="43.33014" lon="-0.13424">
        <ele>369.2836914</ele>
        <time>2010-09-19T09:23:40Z</time>
      </trkpt>
      <trkpt lat="43.32997" lon="-0.13411">
        <ele>370.244873</ele>
        <time>2010-09-19T09:23:45Z</time>
      </trkpt>
      <trkpt lat="43.3299" lon="-0.1341">
        <ele>370.7255859</ele>
        <time>2010-09-19T09:23:47Z</time>
      </trkpt>
      <trkpt lat="43.32951" lon="-0.13413">
        <ele>371.6868896</ele>
        <time>2010-09-19T09:23:57Z</time>
      </trkpt>
      <trkpt lat="43.32937" lon="-0.13405">
        <ele>372.1674805</ele>
        <time>2010-09-19T09:24:01Z</time>
      </trkpt>
      <trkpt lat="43.32932" lon="-0.13387">
        <ele>373.6094971</ele>
        <time>2010-09-19T09:24:04Z</time>
      </trkpt>
      <trkpt lat="43.32932" lon="-0.1338">
        <ele>373.6094971</ele>
        <time>2010-09-19T09:24:05Z</time>
      </trkpt>
      <trkpt lat="43.32929" lon="-0.1336">
        <ele>374.0900879</ele>
        <time>2010-09-19T09:24:08Z</time>
      </trkpt>
      <trkpt lat="43.32925" lon="-0.13325">
        <ele>374.5708008</ele>
        <time>2010-09-19T09:24:13Z</time>
      </trkpt>
      <trkpt lat="43.32917" lon="-0.13285">
        <ele>375.5321045</ele>
        <time>2010-09-19T09:24:19Z</time>
      </trkpt>
      <trkpt lat="43.32899" lon="-0.13224">
        <ele>375.5321045</ele>
        <time>2010-09-19T09:24:28Z</time>
      </trkpt>
      <trkpt lat="43.32888" lon="-0.13155">
        <ele>375.5321045</ele>
        <time>2010-09-19T09:24:37Z</time>
      </trkpt>
      <trkpt lat="43.32882" lon="-0.13099">
        <ele>376.0128174</ele>
        <time>2010-09-19T09:24:44Z</time>
      </trkpt>
      <trkpt lat="43.32876" lon="-0.13035">
        <ele>377.454834</ele>
        <time>2010-09-19T09:24:52Z</time>
      </trkpt>
      <trkpt lat="43.32876" lon="-0.13018">
        <ele>377.454834</ele>
        <time>2010-09-19T09:24:54Z</time>
      </trkpt>
      <trkpt lat="43.32877" lon="-0.12987">
        <ele>377.454834</ele>
        <time>2010-09-19T09:24:58Z</time>
      </trkpt>
      <trkpt lat="43.32883" lon="-0.12924">
        <ele>377.9354248</ele>
        <time>2010-09-19T09:25:06Z</time>
      </trkpt>
      <trkpt lat="43.32883" lon="-0.12916">
        <ele>377.9354248</ele>
        <time>2010-09-19T09:25:07Z</time>
      </trkpt>
      <trkpt lat="43.32876" lon="-0.1286">
        <ele>377.454834</ele>
        <time>2010-09-19T09:25:14Z</time>
      </trkpt>
      <trkpt lat="43.3286" lon="-0.12811">
        <ele>376.0128174</ele>
        <time>2010-09-19T09:25:20Z</time>
      </trkpt>
      <trkpt lat="43.32837" lon="-0.12776">
        <ele>375.0515137</ele>
        <time>2010-09-19T09:25:25Z</time>
      </trkpt>
      <trkpt lat="43.32806" lon="-0.12732">
        <ele>373.6094971</ele>
        <time>2010-09-19T09:25:31Z</time>
      </trkpt>
      <trkpt lat="43.32777" lon="-0.12677">
        <ele>372.1674805</ele>
        <time>2010-09-19T09:25:37Z</time>
      </trkpt>
      <trkpt lat="43.3273" lon="-0.12587">
        <ele>370.244873</ele>
        <time>2010-09-19T09:25:47Z</time>
      </trkpt>
      <trkpt lat="43.32688" lon="-0.12501">
        <ele>368.8029785</ele>
        <time>2010-09-19T09:25:57Z</time>
      </trkpt>
      <trkpt lat="43.32658" lon="-0.12421">
        <ele>364.4769287</ele>
        <time>2010-09-19T09:26:05Z</time>
      </trkpt>
      <trkpt lat="43.32649" lon="-0.12371">
        <ele>363.9963379</ele>
        <time>2010-09-19T09:26:09Z</time>
      </trkpt>
      <trkpt lat="43.32648" lon="-0.12358">
        <ele>363.5157471</ele>
        <time>2010-09-19T09:26:10Z</time>
      </trkpt>
      <trkpt lat="43.3265" lon="-0.12298">
        <ele>359.6704102</ele>
        <time>2010-09-19T09:26:15Z</time>
      </trkpt>
      <trkpt lat="43.32642" lon="-0.12281">
        <ele>358.2283936</ele>
        <time>2010-09-19T09:26:19Z</time>
      </trkpt>
      <trkpt lat="43.32639" lon="-0.12282">
        <ele>358.2283936</ele>
        <time>2010-09-19T09:26:20Z</time>
      </trkpt>
      <trkpt lat="43.32619" lon="-0.12294">
        <ele>358.2283936</ele>
        <time>2010-09-19T09:26:27Z</time>
      </trkpt>
      <trkpt lat="43.32597" lon="-0.12309">
        <ele>360.6317139</ele>
        <time>2010-09-19T09:26:34Z</time>
      </trkpt>
      <trkpt lat="43.3258" lon="-0.12329">
        <ele>363.5157471</ele>
        <time>2010-09-19T09:26:40Z</time>
      </trkpt>
      <trkpt lat="43.32563" lon="-0.12361">
        <ele>367.8415527</ele>
        <time>2010-09-19T09:26:47Z</time>
      </trkpt>
      <trkpt lat="43.32549" lon="-0.12398">
        <ele>368.8029785</ele>
        <time>2010-09-19T09:26:55Z</time>
      </trkpt>
      <trkpt lat="43.32529" lon="-0.12449">
        <ele>371.2062988</ele>
        <time>2010-09-19T09:27:06Z</time>
      </trkpt>
      <trkpt lat="43.32511" lon="-0.12493">
        <ele>373.6094971</ele>
        <time>2010-09-19T09:27:16Z</time>
      </trkpt>
      <trkpt lat="43.32495" lon="-0.12531">
        <ele>375.0515137</ele>
        <time>2010-09-19T09:27:25Z</time>
      </trkpt>
      <trkpt lat="43.32472" lon="-0.12573">
        <ele>378.4161377</ele>
        <time>2010-09-19T09:27:35Z</time>
      </trkpt>
      <trkpt lat="43.3245" lon="-0.12584">
        <ele>377.454834</ele>
        <time>2010-09-19T09:27:41Z</time>
      </trkpt>
      <trkpt lat="43.32413" lon="-0.12601">
        <ele>376.0128174</ele>
        <time>2010-09-19T09:27:49Z</time>
      </trkpt>
      <trkpt lat="43.32379" lon="-0.1263">
        <ele>375.5321045</ele>
        <time>2010-09-19T09:27:56Z</time>
      </trkpt>
      <trkpt lat="43.32346" lon="-0.12653">
        <ele>376.0128174</ele>
        <time>2010-09-19T09:28:02Z</time>
      </trkpt>
      <trkpt lat="43.32302" lon="-0.12666">
        <ele>377.454834</ele>
        <time>2010-09-19T09:28:10Z</time>
      </trkpt>
      <trkpt lat="43.32271" lon="-0.12675">
        <ele>379.3774414</ele>
        <time>2010-09-19T09:28:17Z</time>
      </trkpt>
      <trkpt lat="43.32252" lon="-0.12681">
        <ele>381.3000488</ele>
        <time>2010-09-19T09:28:22Z</time>
      </trkpt>
      <trkpt lat="43.32229" lon="-0.12696">
        <ele>380.819458</ele>
        <time>2010-09-19T09:28:28Z</time>
      </trkpt>
      <trkpt lat="43.32197" lon="-0.1273">
        <ele>380.819458</ele>
        <time>2010-09-19T09:28:37Z</time>
      </trkpt>
      <trkpt lat="43.32162" lon="-0.1277">
        <ele>380.819458</ele>
        <time>2010-09-19T09:28:46Z</time>
      </trkpt>
      <trkpt lat="43.32155" lon="-0.12781">
        <ele>380.819458</ele>
        <time>2010-09-19T09:28:48Z</time>
      </trkpt>
      <trkpt lat="43.32143" lon="-0.12816">
        <ele>380.819458</ele>
        <time>2010-09-19T09:28:53Z</time>
      </trkpt>
      <trkpt lat="43.32128" lon="-0.12888">
        <ele>381.7806396</ele>
        <time>2010-09-19T09:29:03Z</time>
      </trkpt>
      <trkpt lat="43.32107" lon="-0.12932">
        <ele>383.2226563</ele>
        <time>2010-09-19T09:29:10Z</time>
      </trkpt>
      <trkpt lat="43.32091" lon="-0.12968">
        <ele>383.7032471</ele>
        <time>2010-09-19T09:29:16Z</time>
      </trkpt>
      <trkpt lat="43.3208" lon="-0.13">
        <ele>384.184082</ele>
        <time>2010-09-19T09:29:21Z</time>
      </trkpt>
      <trkpt lat="43.32066" lon="-0.13031">
        <ele>385.1453857</ele>
        <time>2010-09-19T09:29:27Z</time>
      </trkpt>
      <trkpt lat="43.32064" lon="-0.13033">
        <ele>384.6647949</ele>
        <time>2010-09-19T09:29:30Z</time>
      </trkpt>
      <trkpt lat="43.32065" lon="-0.13032">
        <ele>381.3000488</ele>
        <time>2010-09-19T09:29:36Z</time>
      </trkpt>
      <trkpt lat="43.3207" lon="-0.13027">
        <ele>378.4161377</ele>
        <time>2010-09-19T09:32:07Z</time>
      </trkpt>
      <trkpt lat="43.32069" lon="-0.13029">
        <ele>377.454834</ele>
        <time>2010-09-19T09:32:16Z</time>
      </trkpt>
      <trkpt lat="43.3207" lon="-0.1303">
        <ele>377.454834</ele>
        <time>2010-09-19T09:32:17Z</time>
      </trkpt>
      <trkpt lat="43.32069" lon="-0.1304">
        <ele>377.454834</ele>
        <time>2010-09-19T09:32:24Z</time>
      </trkpt>
      <trkpt lat="43.32068" lon="-0.13047">
        <ele>377.454834</ele>
        <time>2010-09-19T09:32:27Z</time>
      </trkpt>
      <trkpt lat="43.3206" lon="-0.13049">
        <ele>378.4161377</ele>
        <time>2010-09-19T09:32:32Z</time>
      </trkpt>
      <trkpt lat="43.32052" lon="-0.13049">
        <ele>379.3774414</ele>
        <time>2010-09-19T09:32:37Z</time>
      </trkpt>
      <trkpt lat="43.32035" lon="-0.1305">
        <ele>379.8580322</ele>
        <time>2010-09-19T09:32:44Z</time>
      </trkpt>
      <trkpt lat="43.32013" lon="-0.13067">
        <ele>382.2613525</ele>
        <time>2010-09-19T09:32:51Z</time>
      </trkpt>
      <trkpt lat="43.31988" lon="-0.13081">
        <ele>384.6647949</ele>
        <time>2010-09-19T09:32:58Z</time>
      </trkpt>
      <trkpt lat="43.31961" lon="-0.13099">
        <ele>388.0292969</ele>
        <time>2010-09-19T09:33:05Z</time>
      </trkpt>
      <trkpt lat="43.31943" lon="-0.13121">
        <ele>389.9519043</ele>
        <time>2010-09-19T09:33:10Z</time>
      </trkpt>
      <trkpt lat="43.31926" lon="-0.13148">
        <ele>390.4326172</ele>
        <time>2010-09-19T09:33:15Z</time>
      </trkpt>
      <trkpt lat="43.31916" lon="-0.13157">
        <ele>389.9519043</ele>
        <time>2010-09-19T09:33:17Z</time>
      </trkpt>
      <trkpt lat="43.31868" lon="-0.13195">
        <ele>388.0292969</ele>
        <time>2010-09-19T09:33:26Z</time>
      </trkpt>
      <trkpt lat="43.31834" lon="-0.13216">
        <ele>387.0679932</ele>
        <time>2010-09-19T09:33:32Z</time>
      </trkpt>
      <trkpt lat="43.31795" lon="-0.13234">
        <ele>386.5874023</ele>
        <time>2010-09-19T09:33:39Z</time>
      </trkpt>
      <trkpt lat="43.31754" lon="-0.1325">
        <ele>386.1066895</ele>
        <time>2010-09-19T09:33:47Z</time>
      </trkpt>
      <trkpt lat="43.31724" lon="-0.13267">
        <ele>386.1066895</ele>
        <time>2010-09-19T09:33:54Z</time>
      </trkpt>
      <trkpt lat="43.31679" lon="-0.13299">
        <ele>385.6259766</ele>
        <time>2010-09-19T09:34:03Z</time>
      </trkpt>
      <trkpt lat="43.3164" lon="-0.13326">
        <ele>387.0679932</ele>
        <time>2010-09-19T09:34:11Z</time>
      </trkpt>
      <trkpt lat="43.31607" lon="-0.1335">
        <ele>387.548584</ele>
        <time>2010-09-19T09:34:18Z</time>
      </trkpt>
      <trkpt lat="43.31567" lon="-0.13372">
        <ele>386.1066895</ele>
        <time>2010-09-19T09:34:25Z</time>
      </trkpt>
      <trkpt lat="43.31504" lon="-0.13399">
        <ele>384.184082</ele>
        <time>2010-09-19T09:34:35Z</time>
      </trkpt>
      <trkpt lat="43.31492" lon="-0.13404">
        <ele>383.7032471</ele>
        <time>2010-09-19T09:34:37Z</time>
      </trkpt>
      <trkpt lat="43.31472" lon="-0.13422">
        <ele>384.184082</ele>
        <time>2010-09-19T09:34:41Z</time>
      </trkpt>
      <trkpt lat="43.31465" lon="-0.13438">
        <ele>384.6647949</ele>
        <time>2010-09-19T09:34:43Z</time>
      </trkpt>
      <trkpt lat="43.31454" lon="-0.13468">
        <ele>385.1453857</ele>
        <time>2010-09-19T09:34:47Z</time>
      </trkpt>
      <trkpt lat="43.31448" lon="-0.13483">
        <ele>385.1453857</ele>
        <time>2010-09-19T09:34:49Z</time>
      </trkpt>
      <trkpt lat="43.31426" lon="-0.1351">
        <ele>386.1066895</ele>
        <time>2010-09-19T09:34:54Z</time>
      </trkpt>
      <trkpt lat="43.31408" lon="-0.13517">
        <ele>386.1066895</ele>
        <time>2010-09-19T09:34:57Z</time>
      </trkpt>
      <trkpt lat="43.31362" lon="-0.13526">
        <ele>387.0679932</ele>
        <time>2010-09-19T09:35:05Z</time>
      </trkpt>
      <trkpt lat="43.31307" lon="-0.13539">
        <ele>388.5100098</ele>
        <time>2010-09-19T09:35:15Z</time>
      </trkpt>
      <trkpt lat="43.31261" lon="-0.13552">
        <ele>388.9906006</ele>
        <time>2010-09-19T09:35:23Z</time>
      </trkpt>
      <trkpt lat="43.31203" lon="-0.13571">
        <ele>388.5100098</ele>
        <time>2010-09-19T09:35:33Z</time>
      </trkpt>
      <trkpt lat="43.31156" lon="-0.13588">
        <ele>388.0292969</ele>
        <time>2010-09-19T09:35:41Z</time>
      </trkpt>
      <trkpt lat="43.31113" lon="-0.13601">
        <ele>387.548584</ele>
        <time>2010-09-19T09:35:48Z</time>
      </trkpt>
      <trkpt lat="43.31062" lon="-0.13619">
        <ele>387.548584</ele>
        <time>2010-09-19T09:35:56Z</time>
      </trkpt>
      <trkpt lat="43.31" lon="-0.13635">
        <ele>388.5100098</ele>
        <time>2010-09-19T09:36:06Z</time>
      </trkpt>
      <trkpt lat="43.30955" lon="-0.13634">
        <ele>388.0292969</ele>
        <time>2010-09-19T09:36:13Z</time>
      </trkpt>
      <trkpt lat="43.309" lon="-0.1363">
        <ele>388.9906006</ele>
        <time>2010-09-19T09:36:22Z</time>
      </trkpt>
      <trkpt lat="43.30866" lon="-0.13633">
        <ele>389.9519043</ele>
        <time>2010-09-19T09:36:28Z</time>
      </trkpt>
      <trkpt lat="43.30824" lon="-0.1364">
        <ele>388.9906006</ele>
        <time>2010-09-19T09:36:35Z</time>
      </trkpt>
      <trkpt lat="43.308" lon="-0.13644">
        <ele>388.9906006</ele>
        <time>2010-09-19T09:36:39Z</time>
      </trkpt>
      <trkpt lat="43.30788" lon="-0.13634">
        <ele>388.5100098</ele>
        <time>2010-09-19T09:36:42Z</time>
      </trkpt>
      <trkpt lat="43.30787" lon="-0.13627">
        <ele>388.0292969</ele>
        <time>2010-09-19T09:36:43Z</time>
      </trkpt>
      <trkpt lat="43.3078" lon="-0.13577">
        <ele>386.1066895</ele>
        <time>2010-09-19T09:36:49Z</time>
      </trkpt>
      <trkpt lat="43.30771" lon="-0.13508">
        <ele>385.6259766</ele>
        <time>2010-09-19T09:36:57Z</time>
      </trkpt>
      <trkpt lat="43.30763" lon="-0.13448">
        <ele>385.6259766</ele>
        <time>2010-09-19T09:37:04Z</time>
      </trkpt>
      <trkpt lat="43.30752" lon="-0.13367">
        <ele>384.6647949</ele>
        <time>2010-09-19T09:37:13Z</time>
      </trkpt>
      <trkpt lat="43.30738" lon="-0.13257">
        <ele>383.2226563</ele>
        <time>2010-09-19T09:37:25Z</time>
      </trkpt>
      <trkpt lat="43.30723" lon="-0.13148">
        <ele>382.2613525</ele>
        <time>2010-09-19T09:37:37Z</time>
      </trkpt>
      <trkpt lat="43.30713" lon="-0.13076">
        <ele>381.3000488</ele>
        <time>2010-09-19T09:37:44Z</time>
      </trkpt>
      <trkpt lat="43.30705" lon="-0.13006">
        <ele>380.819458</ele>
        <time>2010-09-19T09:37:51Z</time>
      </trkpt>
      <trkpt lat="43.30693" lon="-0.12924">
        <ele>381.3000488</ele>
        <time>2010-09-19T09:38:00Z</time>
      </trkpt>
      <trkpt lat="43.30692" lon="-0.12915">
        <ele>380.819458</ele>
        <time>2010-09-19T09:38:01Z</time>
      </trkpt>
      <trkpt lat="43.30677" lon="-0.12895">
        <ele>380.3387451</ele>
        <time>2010-09-19T09:38:05Z</time>
      </trkpt>
      <trkpt lat="43.30672" lon="-0.12896">
        <ele>380.3387451</ele>
        <time>2010-09-19T09:38:06Z</time>
      </trkpt>
      <trkpt lat="43.3065" lon="-0.12901">
        <ele>380.819458</ele>
        <time>2010-09-19T09:38:10Z</time>
      </trkpt>
      <trkpt lat="43.30631" lon="-0.1291">
        <ele>381.3000488</ele>
        <time>2010-09-19T09:38:14Z</time>
      </trkpt>
      <trkpt lat="43.30595" lon="-0.12937">
        <ele>381.7806396</ele>
        <time>2010-09-19T09:38:22Z</time>
      </trkpt>
      <trkpt lat="43.30579" lon="-0.12943">
        <ele>381.7806396</ele>
        <time>2010-09-19T09:38:25Z</time>
      </trkpt>
      <trkpt lat="43.30548" lon="-0.12963">
        <ele>382.2613525</ele>
        <time>2010-09-19T09:38:31Z</time>
      </trkpt>
      <trkpt lat="43.3052" lon="-0.12996">
        <ele>382.2613525</ele>
        <time>2010-09-19T09:38:37Z</time>
      </trkpt>
      <trkpt lat="43.30492" lon="-0.13035">
        <ele>382.7420654</ele>
        <time>2010-09-19T09:38:44Z</time>
      </trkpt>
      <trkpt lat="43.30478" lon="-0.1304">
        <ele>382.7420654</ele>
        <time>2010-09-19T09:38:48Z</time>
      </trkpt>
      <trkpt lat="43.3047" lon="-0.13029">
        <ele>383.2226563</ele>
        <time>2010-09-19T09:38:51Z</time>
      </trkpt>
      <trkpt lat="43.30449" lon="-0.12993">
        <ele>385.6259766</ele>
        <time>2010-09-19T09:39:00Z</time>
      </trkpt>
      <trkpt lat="43.30434" lon="-0.12965">
        <ele>387.0679932</ele>
        <time>2010-09-19T09:39:08Z</time>
      </trkpt>
      <trkpt lat="43.30429" lon="-0.12954">
        <ele>387.548584</ele>
        <time>2010-09-19T09:39:11Z</time>
      </trkpt>
      <trkpt lat="43.30436" lon="-0.12938">
        <ele>387.0679932</ele>
        <time>2010-09-19T09:39:15Z</time>
      </trkpt>
      <trkpt lat="43.3047" lon="-0.12906">
        <ele>386.1066895</ele>
        <time>2010-09-19T09:39:23Z</time>
      </trkpt>
      <trkpt lat="43.30502" lon="-0.12873">
        <ele>385.6259766</ele>
        <time>2010-09-19T09:39:30Z</time>
      </trkpt>
      <trkpt lat="43.30527" lon="-0.12848">
        <ele>385.6259766</ele>
        <time>2010-09-19T09:39:35Z</time>
      </trkpt>
      <trkpt lat="43.30588" lon="-0.12808">
        <ele>387.548584</ele>
        <time>2010-09-19T09:39:46Z</time>
      </trkpt>
      <trkpt lat="43.30615" lon="-0.12782">
        <ele>388.0292969</ele>
        <time>2010-09-19T09:39:52Z</time>
      </trkpt>
      <trkpt lat="43.30642" lon="-0.1275">
        <ele>389.9519043</ele>
        <time>2010-09-19T09:39:59Z</time>
      </trkpt>
      <trkpt lat="43.30645" lon="-0.12746">
        <ele>390.4326172</ele>
        <time>2010-09-19T09:40:00Z</time>
      </trkpt>
      <trkpt lat="43.30648" lon="-0.12726">
        <ele>390.4326172</ele>
        <time>2010-09-19T09:40:04Z</time>
      </trkpt>
      <trkpt lat="43.30639" lon="-0.12692">
        <ele>392.3553467</ele>
        <time>2010-09-19T09:40:10Z</time>
      </trkpt>
      <trkpt lat="43.30638" lon="-0.12673">
        <ele>393.3165283</ele>
        <time>2010-09-19T09:40:13Z</time>
      </trkpt>
      <trkpt lat="43.30635" lon="-0.12635">
        <ele>394.7585449</ele>
        <time>2010-09-19T09:40:19Z</time>
      </trkpt>
      <trkpt lat="43.30635" lon="-0.12629">
        <ele>394.7585449</ele>
        <time>2010-09-19T09:40:20Z</time>
      </trkpt>
      <trkpt lat="43.30631" lon="-0.12601">
        <ele>395.2391357</ele>
        <time>2010-09-19T09:40:24Z</time>
      </trkpt>
      <trkpt lat="43.30631" lon="-0.12577">
        <ele>398.1231689</ele>
        <time>2010-09-19T09:40:28Z</time>
      </trkpt>
      <trkpt lat="43.30631" lon="-0.12558">
        <ele>399.0843506</ele>
        <time>2010-09-19T09:40:31Z</time>
      </trkpt>
      <trkpt lat="43.30631" lon="-0.12524">
        <ele>401.487793</ele>
        <time>2010-09-19T09:40:36Z</time>
      </trkpt>
      <trkpt lat="43.30632" lon="-0.12495">
        <ele>401.487793</ele>
        <time>2010-09-19T09:40:40Z</time>
      </trkpt>
      <trkpt lat="43.30634" lon="-0.12468">
        <ele>402.4490967</ele>
        <time>2010-09-19T09:40:43Z</time>
      </trkpt>
      <trkpt lat="43.30634" lon="-0.12451">
        <ele>400.0458984</ele>
        <time>2010-09-19T09:40:45Z</time>
      </trkpt>
      <trkpt lat="43.30623" lon="-0.12396">
        <ele>392.8359375</ele>
        <time>2010-09-19T09:40:50Z</time>
      </trkpt>
      <trkpt lat="43.30599" lon="-0.12337">
        <ele>386.1066895</ele>
        <time>2010-09-19T09:40:56Z</time>
      </trkpt>
      <trkpt lat="43.30567" lon="-0.12287">
        <ele>380.819458</ele>
        <time>2010-09-19T09:41:02Z</time>
      </trkpt>
      <trkpt lat="43.30551" lon="-0.12258">
        <ele>376.9742432</ele>
        <time>2010-09-19T09:41:05Z</time>
      </trkpt>
      <trkpt lat="43.30539" lon="-0.12207">
        <ele>373.6094971</ele>
        <time>2010-09-19T09:41:09Z</time>
      </trkpt>
      <trkpt lat="43.30536" lon="-0.12166">
        <ele>372.6481934</ele>
        <time>2010-09-19T09:41:12Z</time>
      </trkpt>
      <trkpt lat="43.30545" lon="-0.12136">
        <ele>369.7642822</ele>
        <time>2010-09-19T09:41:15Z</time>
      </trkpt>
      <trkpt lat="43.30556" lon="-0.12128">
        <ele>369.2836914</ele>
        <time>2010-09-19T09:41:17Z</time>
      </trkpt>
      <trkpt lat="43.30599" lon="-0.12087">
        <ele>367.8415527</ele>
        <time>2010-09-19T09:41:25Z</time>
      </trkpt>
      <trkpt lat="43.30635" lon="-0.12047">
        <ele>366.3995361</ele>
        <time>2010-09-19T09:41:31Z</time>
      </trkpt>
      <trkpt lat="43.30674" lon="-0.12008">
        <ele>365.4383545</ele>
        <time>2010-09-19T09:41:37Z</time>
      </trkpt>
      <trkpt lat="43.30716" lon="-0.11963">
        <ele>364.9576416</ele>
        <time>2010-09-19T09:41:44Z</time>
      </trkpt>
      <trkpt lat="43.30747" lon="-0.11928">
        <ele>365.4383545</ele>
        <time>2010-09-19T09:41:50Z</time>
      </trkpt>
      <trkpt lat="43.30761" lon="-0.1191">
        <ele>365.9189453</ele>
        <time>2010-09-19T09:41:53Z</time>
      </trkpt>
      <trkpt lat="43.30776" lon="-0.11895">
        <ele>365.9189453</ele>
        <time>2010-09-19T09:41:56Z</time>
      </trkpt>
      <trkpt lat="43.30787" lon="-0.11866">
        <ele>363.5157471</ele>
        <time>2010-09-19T09:42:00Z</time>
      </trkpt>
      <trkpt lat="43.30785" lon="-0.1183">
        <ele>361.1124268</ele>
        <time>2010-09-19T09:42:04Z</time>
      </trkpt>
      <trkpt lat="43.30792" lon="-0.11792">
        <ele>359.6704102</ele>
        <time>2010-09-19T09:42:09Z</time>
      </trkpt>
      <trkpt lat="43.30793" lon="-0.11785">
        <ele>359.1896973</ele>
        <time>2010-09-19T09:42:10Z</time>
      </trkpt>
      <trkpt lat="43.30792" lon="-0.11746">
        <ele>357.7478027</ele>
        <time>2010-09-19T09:42:15Z</time>
      </trkpt>
      <trkpt lat="43.308" lon="-0.11719">
        <ele>356.786377</ele>
        <time>2010-09-19T09:42:19Z</time>
      </trkpt>
      <trkpt lat="43.30806" lon="-0.11711">
        <ele>357.7478027</ele>
        <time>2010-09-19T09:42:21Z</time>
      </trkpt>
      <trkpt lat="43.30828" lon="-0.11686">
        <ele>362.5543213</ele>
        <time>2010-09-19T09:42:28Z</time>
      </trkpt>
      <trkpt lat="43.30837" lon="-0.11675">
        <ele>362.5543213</ele>
        <time>2010-09-19T09:42:30Z</time>
      </trkpt>
      <trkpt lat="43.30872" lon="-0.11619">
        <ele>362.5543213</ele>
        <time>2010-09-19T09:42:38Z</time>
      </trkpt>
      <trkpt lat="43.30909" lon="-0.11557">
        <ele>362.5543213</ele>
        <time>2010-09-19T09:42:46Z</time>
      </trkpt>
      <trkpt lat="43.3094" lon="-0.11504">
        <ele>363.5157471</ele>
        <time>2010-09-19T09:42:53Z</time>
      </trkpt>
      <trkpt lat="43.30956" lon="-0.11473">
        <ele>361.1124268</ele>
        <time>2010-09-19T09:42:57Z</time>
      </trkpt>
      <trkpt lat="43.30996" lon="-0.11429">
        <ele>358.2283936</ele>
        <time>2010-09-19T09:43:05Z</time>
      </trkpt>
      <trkpt lat="43.31009" lon="-0.11416">
        <ele>357.2670898</ele>
        <time>2010-09-19T09:43:08Z</time>
      </trkpt>
      <trkpt lat="43.3103" lon="-0.11407">
        <ele>356.3057861</ele>
        <time>2010-09-19T09:43:12Z</time>
      </trkpt>
      <trkpt lat="43.31059" lon="-0.11397">
        <ele>355.8251953</ele>
        <time>2010-09-19T09:43:18Z</time>
      </trkpt>
      <trkpt lat="43.31067" lon="-0.11378">
        <ele>355.3444824</ele>
        <time>2010-09-19T09:43:22Z</time>
      </trkpt>
      <trkpt lat="43.31065" lon="-0.11356">
        <ele>353.9025879</ele>
        <time>2010-09-19T09:43:25Z</time>
      </trkpt>
      <trkpt lat="43.31064" lon="-0.11338">
        <ele>353.9025879</ele>
        <time>2010-09-19T09:43:27Z</time>
      </trkpt>
      <trkpt lat="43.31064" lon="-0.11285">
        <ele>352.9411621</ele>
        <time>2010-09-19T09:43:33Z</time>
      </trkpt>
      <trkpt lat="43.31077" lon="-0.11247">
        <ele>351.9798584</ele>
        <time>2010-09-19T09:43:38Z</time>
      </trkpt>
      <trkpt lat="43.31088" lon="-0.11205">
        <ele>351.9798584</ele>
        <time>2010-09-19T09:43:43Z</time>
      </trkpt>
      <trkpt lat="43.31081" lon="-0.11175">
        <ele>351.4991455</ele>
        <time>2010-09-19T09:43:46Z</time>
      </trkpt>
      <trkpt lat="43.31075" lon="-0.11159">
        <ele>352.9411621</ele>
        <time>2010-09-19T09:43:48Z</time>
      </trkpt>
      <trkpt lat="43.31062" lon="-0.11143">
        <ele>354.8637695</ele>
        <time>2010-09-19T09:43:52Z</time>
      </trkpt>
      <trkpt lat="43.31058" lon="-0.11141">
        <ele>355.8251953</ele>
        <time>2010-09-19T09:43:53Z</time>
      </trkpt>
      <trkpt lat="43.31038" lon="-0.11127">
        <ele>359.1896973</ele>
        <time>2010-09-19T09:43:59Z</time>
      </trkpt>
      <trkpt lat="43.31026" lon="-0.11109">
        <ele>358.2283936</ele>
        <time>2010-09-19T09:44:04Z</time>
      </trkpt>
      <trkpt lat="43.31017" lon="-0.11082">
        <ele>362.5543213</ele>
        <time>2010-09-19T09:44:11Z</time>
      </trkpt>
      <trkpt lat="43.31013" lon="-0.11063">
        <ele>371.2062988</ele>
        <time>2010-09-19T09:44:16Z</time>
      </trkpt>
      <trkpt lat="43.31015" lon="-0.11043">
        <ele>376.4935303</ele>
        <time>2010-09-19T09:44:22Z</time>
      </trkpt>
      <trkpt lat="43.31024" lon="-0.11025">
        <ele>376.9742432</ele>
        <time>2010-09-19T09:44:29Z</time>
      </trkpt>
      <trkpt lat="43.31027" lon="-0.11003">
        <ele>379.3774414</ele>
        <time>2010-09-19T09:44:36Z</time>
      </trkpt>
      <trkpt lat="43.31029" lon="-0.10985">
        <ele>382.7420654</ele>
        <time>2010-09-19T09:44:42Z</time>
      </trkpt>
      <trkpt lat="43.31032" lon="-0.1097">
        <ele>386.5874023</ele>
        <time>2010-09-19T09:44:47Z</time>
      </trkpt>
      <trkpt lat="43.31034" lon="-0.10949">
        <ele>388.9906006</ele>
        <time>2010-09-19T09:44:53Z</time>
      </trkpt>
      <trkpt lat="43.31037" lon="-0.10927">
        <ele>389.4711914</ele>
        <time>2010-09-19T09:45:00Z</time>
      </trkpt>
      <trkpt lat="43.31042" lon="-0.10899">
        <ele>387.548584</ele>
        <time>2010-09-19T09:45:09Z</time>
      </trkpt>
      <trkpt lat="43.31042" lon="-0.10882">
        <ele>383.2226563</ele>
        <time>2010-09-19T09:45:16Z</time>
      </trkpt>
      <trkpt lat="43.3103" lon="-0.10876">
        <ele>382.7420654</ele>
        <time>2010-09-19T09:45:22Z</time>
      </trkpt>
      <trkpt lat="43.31015" lon="-0.10879">
        <ele>382.7420654</ele>
        <time>2010-09-19T09:45:28Z</time>
      </trkpt>
      <trkpt lat="43.30991" lon="-0.10878">
        <ele>383.7032471</ele>
        <time>2010-09-19T09:45:37Z</time>
      </trkpt>
      <trkpt lat="43.30975" lon="-0.10872">
        <ele>384.6647949</ele>
        <time>2010-09-19T09:45:44Z</time>
      </trkpt>
      <trkpt lat="43.3096" lon="-0.10862">
        <ele>386.5874023</ele>
        <time>2010-09-19T09:45:50Z</time>
      </trkpt>
      <trkpt lat="43.30942" lon="-0.10848">
        <ele>386.1066895</ele>
        <time>2010-09-19T09:45:57Z</time>
      </trkpt>
      <trkpt lat="43.30919" lon="-0.10825">
        <ele>390.4326172</ele>
        <time>2010-09-19T09:46:06Z</time>
      </trkpt>
      <trkpt lat="43.30901" lon="-0.10794">
        <ele>392.8359375</ele>
        <time>2010-09-19T09:46:14Z</time>
      </trkpt>
      <trkpt lat="43.30891" lon="-0.10766">
        <ele>392.3553467</ele>
        <time>2010-09-19T09:46:20Z</time>
      </trkpt>
      <trkpt lat="43.30871" lon="-0.10703">
        <ele>390.4326172</ele>
        <time>2010-09-19T09:46:32Z</time>
      </trkpt>
      <trkpt lat="43.30854" lon="-0.10651">
        <ele>390.4326172</ele>
        <time>2010-09-19T09:46:40Z</time>
      </trkpt>
      <trkpt lat="43.30845" lon="-0.10617">
        <ele>390.913208</ele>
        <time>2010-09-19T09:46:45Z</time>
      </trkpt>
      <trkpt lat="43.30831" lon="-0.10567">
        <ele>390.4326172</ele>
        <time>2010-09-19T09:46:53Z</time>
      </trkpt>
      <trkpt lat="43.30818" lon="-0.10515">
        <ele>390.913208</ele>
        <time>2010-09-19T09:47:01Z</time>
      </trkpt>
      <trkpt lat="43.30806" lon="-0.10454">
        <ele>389.9519043</ele>
        <time>2010-09-19T09:47:09Z</time>
      </trkpt>
      <trkpt lat="43.30798" lon="-0.104">
        <ele>388.0292969</ele>
        <time>2010-09-19T09:47:15Z</time>
      </trkpt>
      <trkpt lat="43.30788" lon="-0.10336">
        <ele>386.1066895</ele>
        <time>2010-09-19T09:47:22Z</time>
      </trkpt>
      <trkpt lat="43.30779" lon="-0.10289">
        <ele>383.7032471</ele>
        <time>2010-09-19T09:47:27Z</time>
      </trkpt>
      <trkpt lat="43.30767" lon="-0.10217">
        <ele>380.819458</ele>
        <time>2010-09-19T09:47:34Z</time>
      </trkpt>
      <trkpt lat="43.30761" lon="-0.10148">
        <ele>376.0128174</ele>
        <time>2010-09-19T09:47:40Z</time>
      </trkpt>
      <trkpt lat="43.3076" lon="-0.10079">
        <ele>372.6481934</ele>
        <time>2010-09-19T09:47:45Z</time>
      </trkpt>
      <trkpt lat="43.30759" lon="-0.09987">
        <ele>369.7642822</ele>
        <time>2010-09-19T09:47:52Z</time>
      </trkpt>
      <trkpt lat="43.30757" lon="-0.09963">
        <ele>369.2836914</ele>
        <time>2010-09-19T09:47:54Z</time>
      </trkpt>
      <trkpt lat="43.30746" lon="-0.09922">
        <ele>368.8029785</ele>
        <time>2010-09-19T09:47:58Z</time>
      </trkpt>
      <trkpt lat="43.30727" lon="-0.09891">
        <ele>368.8029785</ele>
        <time>2010-09-19T09:48:02Z</time>
      </trkpt>
      <trkpt lat="43.30714" lon="-0.09873">
        <ele>368.3222656</ele>
        <time>2010-09-19T09:48:05Z</time>
      </trkpt>
      <trkpt lat="43.30713" lon="-0.09852">
        <ele>368.3222656</ele>
        <time>2010-09-19T09:48:09Z</time>
      </trkpt>
      <trkpt lat="43.30714" lon="-0.09847">
        <ele>369.2836914</ele>
        <time>2010-09-19T09:48:10Z</time>
      </trkpt>
      <trkpt lat="43.30724" lon="-0.09821">
        <ele>370.244873</ele>
        <time>2010-09-19T09:48:15Z</time>
      </trkpt>
      <trkpt lat="43.30739" lon="-0.09818">
        <ele>371.2062988</ele>
        <time>2010-09-19T09:48:19Z</time>
      </trkpt>
      <trkpt lat="43.30749" lon="-0.09818">
        <ele>371.6868896</ele>
        <time>2010-09-19T09:48:21Z</time>
      </trkpt>
      <trkpt lat="43.30778" lon="-0.09812">
        <ele>372.6481934</ele>
        <time>2010-09-19T09:48:27Z</time>
      </trkpt>
      <trkpt lat="43.30788" lon="-0.09811">
        <ele>373.1289063</ele>
        <time>2010-09-19T09:48:29Z</time>
      </trkpt>
      <trkpt lat="43.30801" lon="-0.09808">
        <ele>373.1289063</ele>
        <time>2010-09-19T09:48:31Z</time>
      </trkpt>
      <trkpt lat="43.30829" lon="-0.09799">
        <ele>373.1289063</ele>
        <time>2010-09-19T09:48:36Z</time>
      </trkpt>
      <trkpt lat="43.30862" lon="-0.09792">
        <ele>372.6481934</ele>
        <time>2010-09-19T09:48:42Z</time>
      </trkpt>
      <trkpt lat="43.3091" lon="-0.098">
        <ele>373.6094971</ele>
        <time>2010-09-19T09:48:51Z</time>
      </trkpt>
      <trkpt lat="43.30926" lon="-0.09806">
        <ele>372.6481934</ele>
        <time>2010-09-19T09:48:54Z</time>
      </trkpt>
      <trkpt lat="43.30958" lon="-0.09812">
        <ele>372.1674805</ele>
        <time>2010-09-19T09:48:59Z</time>
      </trkpt>
      <trkpt lat="43.30979" lon="-0.09805">
        <ele>371.6868896</ele>
        <time>2010-09-19T09:49:03Z</time>
      </trkpt>
      <trkpt lat="43.30995" lon="-0.09791">
        <ele>372.6481934</ele>
        <time>2010-09-19T09:49:07Z</time>
      </trkpt>
      <trkpt lat="43.31013" lon="-0.09767">
        <ele>372.6481934</ele>
        <time>2010-09-19T09:49:13Z</time>
      </trkpt>
      <trkpt lat="43.31032" lon="-0.09735">
        <ele>376.9742432</ele>
        <time>2010-09-19T09:49:19Z</time>
      </trkpt>
      <trkpt lat="43.31043" lon="-0.09706">
        <ele>377.454834</ele>
        <time>2010-09-19T09:49:24Z</time>
      </trkpt>
      <trkpt lat="43.31053" lon="-0.09681">
        <ele>377.9354248</ele>
        <time>2010-09-19T09:49:29Z</time>
      </trkpt>
      <trkpt lat="43.3107" lon="-0.09638">
        <ele>373.1289063</ele>
        <time>2010-09-19T09:49:36Z</time>
      </trkpt>
      <trkpt lat="43.3108" lon="-0.09602">
        <ele>368.3222656</ele>
        <time>2010-09-19T09:49:42Z</time>
      </trkpt>
      <trkpt lat="43.31091" lon="-0.09568">
        <ele>365.4383545</ele>
        <time>2010-09-19T09:49:48Z</time>
      </trkpt>
      <trkpt lat="43.31092" lon="-0.09533">
        <ele>364.4769287</ele>
        <time>2010-09-19T09:49:54Z</time>
      </trkpt>
      <trkpt lat="43.31087" lon="-0.09485">
        <ele>364.4769287</ele>
        <time>2010-09-19T09:50:02Z</time>
      </trkpt>
      <trkpt lat="43.31086" lon="-0.09479">
        <ele>364.4769287</ele>
        <time>2010-09-19T09:50:03Z</time>
      </trkpt>
      <trkpt lat="43.31085" lon="-0.09459">
        <ele>363.9963379</ele>
        <time>2010-09-19T09:50:06Z</time>
      </trkpt>
      <trkpt lat="43.31088" lon="-0.09432">
        <ele>364.4769287</ele>
        <time>2010-09-19T09:50:11Z</time>
      </trkpt>
      <trkpt lat="43.31102" lon="-0.09426">
        <ele>364.4769287</ele>
        <time>2010-09-19T09:50:14Z</time>
      </trkpt>
      <trkpt lat="43.31106" lon="-0.09424">
        <ele>363.9963379</ele>
        <time>2010-09-19T09:50:15Z</time>
      </trkpt>
      <trkpt lat="43.3115" lon="-0.09404">
        <ele>363.9963379</ele>
        <time>2010-09-19T09:50:24Z</time>
      </trkpt>
      <trkpt lat="43.31174" lon="-0.09391">
        <ele>363.5157471</ele>
        <time>2010-09-19T09:50:29Z</time>
      </trkpt>
      <trkpt lat="43.31219" lon="-0.09367">
        <ele>363.0350342</ele>
        <time>2010-09-19T09:50:37Z</time>
      </trkpt>
      <trkpt lat="43.31248" lon="-0.09352">
        <ele>363.5157471</ele>
        <time>2010-09-19T09:50:42Z</time>
      </trkpt>
      <trkpt lat="43.31273" lon="-0.09349">
        <ele>364.4769287</ele>
        <time>2010-09-19T09:50:46Z</time>
      </trkpt>
      <trkpt lat="43.31324" lon="-0.09357">
        <ele>363.5157471</ele>
        <time>2010-09-19T09:50:54Z</time>
      </trkpt>
      <trkpt lat="43.31343" lon="-0.09356">
        <ele>363.0350342</ele>
        <time>2010-09-19T09:50:57Z</time>
      </trkpt>
      <trkpt lat="43.31387" lon="-0.09361">
        <ele>360.151123</ele>
        <time>2010-09-19T09:51:04Z</time>
      </trkpt>
      <trkpt lat="43.31424" lon="-0.09368">
        <ele>359.6704102</ele>
        <time>2010-09-19T09:51:10Z</time>
      </trkpt>
      <trkpt lat="43.31435" lon="-0.0937">
        <ele>359.6704102</ele>
        <time>2010-09-19T09:51:12Z</time>
      </trkpt>
      <trkpt lat="43.31448" lon="-0.09372">
        <ele>359.1896973</ele>
        <time>2010-09-19T09:51:14Z</time>
      </trkpt>
      <trkpt lat="43.31479" lon="-0.09352">
        <ele>361.1124268</ele>
        <time>2010-09-19T09:51:20Z</time>
      </trkpt>
      <trkpt lat="43.31487" lon="-0.0934">
        <ele>361.1124268</ele>
        <time>2010-09-19T09:51:22Z</time>
      </trkpt>
      <trkpt lat="43.31513" lon="-0.0929">
        <ele>360.151123</ele>
        <time>2010-09-19T09:51:30Z</time>
      </trkpt>
      <trkpt lat="43.3154" lon="-0.09257">
        <ele>361.1124268</ele>
        <time>2010-09-19T09:51:36Z</time>
      </trkpt>
      <trkpt lat="43.31546" lon="-0.09248">
        <ele>361.5931396</ele>
        <time>2010-09-19T09:51:38Z</time>
      </trkpt>
      <trkpt lat="43.31534" lon="-0.09246">
        <ele>360.151123</ele>
        <time>2010-09-19T09:51:42Z</time>
      </trkpt>
      <trkpt lat="43.31515" lon="-0.09248">
        <ele>359.1896973</ele>
        <time>2010-09-19T09:51:47Z</time>
      </trkpt>
      <trkpt lat="43.31494" lon="-0.0925">
        <ele>357.2670898</ele>
        <time>2010-09-19T09:51:53Z</time>
      </trkpt>
      <trkpt lat="43.31478" lon="-0.09252">
        <ele>356.3057861</ele>
        <time>2010-09-19T09:52:00Z</time>
      </trkpt>
      <trkpt lat="43.31459" lon="-0.09253">
        <ele>356.3057861</ele>
        <time>2010-09-19T09:52:07Z</time>
      </trkpt>
      <trkpt lat="43.31435" lon="-0.09255">
        <ele>359.6704102</ele>
        <time>2010-09-19T09:52:14Z</time>
      </trkpt>
      <trkpt lat="43.31415" lon="-0.09258">
        <ele>361.5931396</ele>
        <time>2010-09-19T09:52:20Z</time>
      </trkpt>
      <trkpt lat="43.31408" lon="-0.0925">
        <ele>363.9963379</ele>
        <time>2010-09-19T09:52:24Z</time>
      </trkpt>
      <trkpt lat="43.31417" lon="-0.09235">
        <ele>367.3609619</ele>
        <time>2010-09-19T09:52:29Z</time>
      </trkpt>
      <trkpt lat="43.31424" lon="-0.09222">
        <ele>367.8415527</ele>
        <time>2010-09-19T09:52:34Z</time>
      </trkpt>
      <trkpt lat="43.31433" lon="-0.09206">
        <ele>369.7642822</ele>
        <time>2010-09-19T09:52:39Z</time>
      </trkpt>
      <trkpt lat="43.31444" lon="-0.09189">
        <ele>370.7255859</ele>
        <time>2010-09-19T09:52:44Z</time>
      </trkpt>
      <trkpt lat="43.31457" lon="-0.09166">
        <ele>371.2062988</ele>
        <time>2010-09-19T09:52:51Z</time>
      </trkpt>
      <trkpt lat="43.3146" lon="-0.09147">
        <ele>371.2062988</ele>
        <time>2010-09-19T09:52:56Z</time>
      </trkpt>
      <trkpt lat="43.31459" lon="-0.09123">
        <ele>373.6094971</ele>
        <time>2010-09-19T09:53:02Z</time>
      </trkpt>
      <trkpt lat="43.31461" lon="-0.09102">
        <ele>372.6481934</ele>
        <time>2010-09-19T09:53:08Z</time>
      </trkpt>
      <trkpt lat="43.31465" lon="-0.09072">
        <ele>371.6868896</ele>
        <time>2010-09-19T09:53:16Z</time>
      </trkpt>
      <trkpt lat="43.31467" lon="-0.09038">
        <ele>372.6481934</ele>
        <time>2010-09-19T09:53:24Z</time>
      </trkpt>
      <trkpt lat="43.31464" lon="-0.08997">
        <ele>374.5708008</ele>
        <time>2010-09-19T09:53:33Z</time>
      </trkpt>
      <trkpt lat="43.31465" lon="-0.08979">
        <ele>375.0515137</ele>
        <time>2010-09-19T09:53:37Z</time>
      </trkpt>
      <trkpt lat="43.31479" lon="-0.0897">
        <ele>375.0515137</ele>
        <time>2010-09-19T09:53:42Z</time>
      </trkpt>
      <trkpt lat="43.31507" lon="-0.08963">
        <ele>375.5321045</ele>
        <time>2010-09-19T09:53:50Z</time>
      </trkpt>
      <trkpt lat="43.31531" lon="-0.08957">
        <ele>376.4935303</ele>
        <time>2010-09-19T09:53:57Z</time>
      </trkpt>
      <trkpt lat="43.31555" lon="-0.08948">
        <ele>377.454834</ele>
        <time>2010-09-19T09:54:04Z</time>
      </trkpt>
      <trkpt lat="43.31562" lon="-0.08943">
        <ele>376.9742432</ele>
        <time>2010-09-19T09:54:06Z</time>
      </trkpt>
      <trkpt lat="43.31586" lon="-0.08933">
        <ele>377.454834</ele>
        <time>2010-09-19T09:54:12Z</time>
      </trkpt>
      <trkpt lat="43.31592" lon="-0.08916">
        <ele>376.9742432</ele>
        <time>2010-09-19T09:54:16Z</time>
      </trkpt>
      <trkpt lat="43.31588" lon="-0.08906">
        <ele>376.9742432</ele>
        <time>2010-09-19T09:54:18Z</time>
      </trkpt>
      <trkpt lat="43.31564" lon="-0.0887">
        <ele>377.9354248</ele>
        <time>2010-09-19T09:54:26Z</time>
      </trkpt>
      <trkpt lat="43.31547" lon="-0.08842">
        <ele>382.2613525</ele>
        <time>2010-09-19T09:54:33Z</time>
      </trkpt>
      <trkpt lat="43.31526" lon="-0.08803">
        <ele>382.7420654</ele>
        <time>2010-09-19T09:54:41Z</time>
      </trkpt>
      <trkpt lat="43.31504" lon="-0.08758">
        <ele>379.8580322</ele>
        <time>2010-09-19T09:54:50Z</time>
      </trkpt>
      <trkpt lat="43.31476" lon="-0.08704">
        <ele>378.8968506</ele>
        <time>2010-09-19T09:55:00Z</time>
      </trkpt>
      <trkpt lat="43.31447" lon="-0.08644">
        <ele>378.8968506</ele>
        <time>2010-09-19T09:55:10Z</time>
      </trkpt>
      <trkpt lat="43.31441" lon="-0.08617">
        <ele>378.8968506</ele>
        <time>2010-09-19T09:55:14Z</time>
      </trkpt>
      <trkpt lat="43.31439" lon="-0.08552">
        <ele>377.454834</ele>
        <time>2010-09-19T09:55:23Z</time>
      </trkpt>
      <trkpt lat="43.31438" lon="-0.08484">
        <ele>375.5321045</ele>
        <time>2010-09-19T09:55:32Z</time>
      </trkpt>
      <trkpt lat="43.31447" lon="-0.08461">
        <ele>374.0900879</ele>
        <time>2010-09-19T09:55:36Z</time>
      </trkpt>
      <trkpt lat="43.31452" lon="-0.0846">
        <ele>374.0900879</ele>
        <time>2010-09-19T09:55:37Z</time>
      </trkpt>
      <trkpt lat="43.31501" lon="-0.08466">
        <ele>371.2062988</ele>
        <time>2010-09-19T09:55:45Z</time>
      </trkpt>
      <trkpt lat="43.31566" lon="-0.08476">
        <ele>369.7642822</ele>
        <time>2010-09-19T09:55:55Z</time>
      </trkpt>
      <trkpt lat="43.31603" lon="-0.08473">
        <ele>370.244873</ele>
        <time>2010-09-19T09:56:01Z</time>
      </trkpt>
      <trkpt lat="43.31654" lon="-0.08464">
        <ele>370.7255859</ele>
        <time>2010-09-19T09:56:10Z</time>
      </trkpt>
      <trkpt lat="43.31705" lon="-0.08456">
        <ele>369.7642822</ele>
        <time>2010-09-19T09:56:18Z</time>
      </trkpt>
      <trkpt lat="43.31765" lon="-0.08453">
        <ele>368.8029785</ele>
        <time>2010-09-19T09:56:27Z</time>
      </trkpt>
      <trkpt lat="43.31809" lon="-0.08448">
        <ele>368.3222656</ele>
        <time>2010-09-19T09:56:34Z</time>
      </trkpt>
      <trkpt lat="43.31857" lon="-0.08435">
        <ele>369.2836914</ele>
        <time>2010-09-19T09:56:42Z</time>
      </trkpt>
      <trkpt lat="43.31912" lon="-0.08424">
        <ele>368.8029785</ele>
        <time>2010-09-19T09:56:51Z</time>
      </trkpt>
      <trkpt lat="43.31963" lon="-0.08415">
        <ele>368.3222656</ele>
        <time>2010-09-19T09:56:59Z</time>
      </trkpt>
      <trkpt lat="43.31995" lon="-0.08408">
        <ele>369.2836914</ele>
        <time>2010-09-19T09:57:05Z</time>
      </trkpt>
      <trkpt lat="43.32004" lon="-0.08406">
        <ele>369.7642822</ele>
        <time>2010-09-19T09:57:07Z</time>
      </trkpt>
      <trkpt lat="43.32015" lon="-0.08391">
        <ele>369.7642822</ele>
        <time>2010-09-19T09:57:11Z</time>
      </trkpt>
      <trkpt lat="43.32015" lon="-0.08384">
        <ele>369.7642822</ele>
        <time>2010-09-19T09:57:12Z</time>
      </trkpt>
      <trkpt lat="43.32029" lon="-0.0836">
        <ele>370.244873</ele>
        <time>2010-09-19T09:57:17Z</time>
      </trkpt>
      <trkpt lat="43.32039" lon="-0.08356">
        <ele>370.244873</ele>
        <time>2010-09-19T09:57:19Z</time>
      </trkpt>
      <trkpt lat="43.32068" lon="-0.08353">
        <ele>369.7642822</ele>
        <time>2010-09-19T09:57:24Z</time>
      </trkpt>
      <trkpt lat="43.32104" lon="-0.08344">
        <ele>369.2836914</ele>
        <time>2010-09-19T09:57:30Z</time>
      </trkpt>
      <trkpt lat="43.32137" lon="-0.08333">
        <ele>369.7642822</ele>
        <time>2010-09-19T09:57:35Z</time>
      </trkpt>
      <trkpt lat="43.32185" lon="-0.0832">
        <ele>370.244873</ele>
        <time>2010-09-19T09:57:42Z</time>
      </trkpt>
      <trkpt lat="43.32248" lon="-0.08305">
        <ele>369.2836914</ele>
        <time>2010-09-19T09:57:51Z</time>
      </trkpt>
      <trkpt lat="43.32299" lon="-0.08292">
        <ele>370.7255859</ele>
        <time>2010-09-19T09:57:59Z</time>
      </trkpt>
      <trkpt lat="43.3235" lon="-0.08291">
        <ele>370.7255859</ele>
        <time>2010-09-19T09:58:07Z</time>
      </trkpt>
      <trkpt lat="43.32356" lon="-0.08291">
        <ele>371.2062988</ele>
        <time>2010-09-19T09:58:08Z</time>
      </trkpt>
      <trkpt lat="43.32372" lon="-0.08277">
        <ele>369.7642822</ele>
        <time>2010-09-19T09:58:12Z</time>
      </trkpt>
      <trkpt lat="43.32372" lon="-0.0827">
        <ele>369.2836914</ele>
        <time>2010-09-19T09:58:13Z</time>
      </trkpt>
      <trkpt lat="43.32376" lon="-0.08236">
        <ele>367.3609619</ele>
        <time>2010-09-19T09:58:18Z</time>
      </trkpt>
      <trkpt lat="43.3238" lon="-0.08231">
        <ele>367.3609619</ele>
        <time>2010-09-19T09:58:19Z</time>
      </trkpt>
      <trkpt lat="43.32396" lon="-0.08216">
        <ele>366.880249</ele>
        <time>2010-09-19T09:58:22Z</time>
      </trkpt>
      <trkpt lat="43.32411" lon="-0.08188">
        <ele>366.3995361</ele>
        <time>2010-09-19T09:58:26Z</time>
      </trkpt>
      <trkpt lat="43.3244" lon="-0.08108">
        <ele>364.9576416</ele>
        <time>2010-09-19T09:58:36Z</time>
      </trkpt>
      <trkpt lat="43.32466" lon="-0.08035">
        <ele>363.9963379</ele>
        <time>2010-09-19T09:58:45Z</time>
      </trkpt>
      <trkpt lat="43.32487" lon="-0.07976">
        <ele>363.0350342</ele>
        <time>2010-09-19T09:58:52Z</time>
      </trkpt>
      <trkpt lat="43.32505" lon="-0.07926">
        <ele>362.5543213</ele>
        <time>2010-09-19T09:58:58Z</time>
      </trkpt>
      <trkpt lat="43.32521" lon="-0.07912">
        <ele>362.5543213</ele>
        <time>2010-09-19T09:59:02Z</time>
      </trkpt>
      <trkpt lat="43.32537" lon="-0.07916">
        <ele>362.5543213</ele>
        <time>2010-09-19T09:59:05Z</time>
      </trkpt>
      <trkpt lat="43.32585" lon="-0.07913">
        <ele>363.0350342</ele>
        <time>2010-09-19T09:59:13Z</time>
      </trkpt>
      <trkpt lat="43.32632" lon="-0.0791">
        <ele>362.5543213</ele>
        <time>2010-09-19T09:59:20Z</time>
      </trkpt>
      <trkpt lat="43.32696" lon="-0.0791">
        <ele>362.0737305</ele>
        <time>2010-09-19T09:59:29Z</time>
      </trkpt>
      <trkpt lat="43.32747" lon="-0.07917">
        <ele>360.6317139</ele>
        <time>2010-09-19T09:59:36Z</time>
      </trkpt>
      <trkpt lat="43.32797" lon="-0.07917">
        <ele>361.5931396</ele>
        <time>2010-09-19T09:59:43Z</time>
      </trkpt>
      <trkpt lat="43.32833" lon="-0.07917">
        <ele>361.5931396</ele>
        <time>2010-09-19T09:59:48Z</time>
      </trkpt>
      <trkpt lat="43.3288" lon="-0.07942">
        <ele>361.1124268</ele>
        <time>2010-09-19T09:59:55Z</time>
      </trkpt>
      <trkpt lat="43.32924" lon="-0.07956">
        <ele>360.6317139</ele>
        <time>2010-09-19T10:00:01Z</time>
      </trkpt>
      <trkpt lat="43.32992" lon="-0.07965">
        <ele>358.7089844</ele>
        <time>2010-09-19T10:00:10Z</time>
      </trkpt>
      <trkpt lat="43.33054" lon="-0.07972">
        <ele>358.2283936</ele>
        <time>2010-09-19T10:00:18Z</time>
      </trkpt>
      <trkpt lat="43.33099" lon="-0.07976">
        <ele>359.1896973</ele>
        <time>2010-09-19T10:00:24Z</time>
      </trkpt>
      <trkpt lat="43.33116" lon="-0.07967">
        <ele>359.1896973</ele>
        <time>2010-09-19T10:00:28Z</time>
      </trkpt>
      <trkpt lat="43.33115" lon="-0.07955">
        <ele>357.7478027</ele>
        <time>2010-09-19T10:00:31Z</time>
      </trkpt>
      <trkpt lat="43.33109" lon="-0.07943">
        <ele>357.2670898</ele>
        <time>2010-09-19T10:00:34Z</time>
      </trkpt>
      <trkpt lat="43.33093" lon="-0.07891">
        <ele>357.2670898</ele>
        <time>2010-09-19T10:00:43Z</time>
      </trkpt>
      <trkpt lat="43.33079" lon="-0.07846">
        <ele>358.7089844</ele>
        <time>2010-09-19T10:00:51Z</time>
      </trkpt>
      <trkpt lat="43.33064" lon="-0.07787">
        <ele>360.6317139</ele>
        <time>2010-09-19T10:01:01Z</time>
      </trkpt>
      <trkpt lat="43.33053" lon="-0.07744">
        <ele>362.5543213</ele>
        <time>2010-09-19T10:01:09Z</time>
      </trkpt>
      <trkpt lat="43.33042" lon="-0.07696">
        <ele>363.9963379</ele>
        <time>2010-09-19T10:01:17Z</time>
      </trkpt>
      <trkpt lat="43.33027" lon="-0.07645">
        <ele>364.4769287</ele>
        <time>2010-09-19T10:01:25Z</time>
      </trkpt>
      <trkpt lat="43.33012" lon="-0.07586">
        <ele>365.9189453</ele>
        <time>2010-09-19T10:01:33Z</time>
      </trkpt>
      <trkpt lat="43.32998" lon="-0.07525">
        <ele>365.9189453</ele>
        <time>2010-09-19T10:01:41Z</time>
      </trkpt>
      <trkpt lat="43.32983" lon="-0.07461">
        <ele>366.880249</ele>
        <time>2010-09-19T10:01:49Z</time>
      </trkpt>
      <trkpt lat="43.32973" lon="-0.07395">
        <ele>368.3222656</ele>
        <time>2010-09-19T10:01:57Z</time>
      </trkpt>
      <trkpt lat="43.32965" lon="-0.07334">
        <ele>368.8029785</ele>
        <time>2010-09-19T10:02:04Z</time>
      </trkpt>
      <trkpt lat="43.3296" lon="-0.0729">
        <ele>367.3609619</ele>
        <time>2010-09-19T10:02:09Z</time>
      </trkpt>
      <trkpt lat="43.32955" lon="-0.07228">
        <ele>365.9189453</ele>
        <time>2010-09-19T10:02:16Z</time>
      </trkpt>
      <trkpt lat="43.32946" lon="-0.07152">
        <ele>363.5157471</ele>
        <time>2010-09-19T10:02:24Z</time>
      </trkpt>
      <trkpt lat="43.32938" lon="-0.07091">
        <ele>363.0350342</ele>
        <time>2010-09-19T10:02:31Z</time>
      </trkpt>
      <trkpt lat="43.32936" lon="-0.07069">
        <ele>362.5543213</ele>
        <time>2010-09-19T10:02:34Z</time>
      </trkpt>
      <trkpt lat="43.3293" lon="-0.07055">
        <ele>361.5931396</ele>
        <time>2010-09-19T10:02:37Z</time>
      </trkpt>
      <trkpt lat="43.32924" lon="-0.07056">
        <ele>358.7089844</ele>
        <time>2010-09-19T10:02:39Z</time>
      </trkpt>
      <trkpt lat="43.32908" lon="-0.07063">
        <ele>355.3444824</ele>
        <time>2010-09-19T10:02:44Z</time>
      </trkpt>
      <trkpt lat="43.32908" lon="-0.07064">
        <ele>354.8637695</ele>
        <time>2010-09-19T10:02:45Z</time>
      </trkpt>
      <trkpt lat="43.32907" lon="-0.07067">
        <ele>353.9025879</ele>
        <time>2010-09-19T10:02:47Z</time>
      </trkpt>
      <trkpt lat="43.32902" lon="-0.07079">
        <ele>355.3444824</ele>
        <time>2010-09-19T10:02:54Z</time>
      </trkpt>
      <trkpt lat="43.32889" lon="-0.07086">
        <ele>354.8637695</ele>
        <time>2010-09-19T10:03:00Z</time>
      </trkpt>
      <trkpt lat="43.32862" lon="-0.07098">
        <ele>351.9798584</ele>
        <time>2010-09-19T10:03:06Z</time>
      </trkpt>
      <trkpt lat="43.3283" lon="-0.07111">
        <ele>351.4991455</ele>
        <time>2010-09-19T10:03:12Z</time>
      </trkpt>
      <trkpt lat="43.32798" lon="-0.07123">
        <ele>350.5378418</ele>
        <time>2010-09-19T10:03:19Z</time>
      </trkpt>
      <trkpt lat="43.32774" lon="-0.07132">
        <ele>350.057251</ele>
        <time>2010-09-19T10:03:25Z</time>
      </trkpt>
      <trkpt lat="43.32749" lon="-0.07136">
        <ele>348.6152344</ele>
        <time>2010-09-19T10:03:31Z</time>
      </trkpt>
      <trkpt lat="43.32732" lon="-0.07134">
        <ele>349.0958252</ele>
        <time>2010-09-19T10:03:35Z</time>
      </trkpt>
      <trkpt lat="43.32723" lon="-0.07116">
        <ele>351.4991455</ele>
        <time>2010-09-19T10:03:39Z</time>
      </trkpt>
      <trkpt lat="43.32723" lon="-0.07102">
        <ele>350.5378418</ele>
        <time>2010-09-19T10:03:41Z</time>
      </trkpt>
      <trkpt lat="43.32708" lon="-0.07064">
        <ele>350.5378418</ele>
        <time>2010-09-19T10:03:46Z</time>
      </trkpt>
      <trkpt lat="43.32704" lon="-0.07056">
        <ele>350.057251</ele>
        <time>2010-09-19T10:03:47Z</time>
      </trkpt>
      <trkpt lat="43.32694" lon="-0.0704">
        <ele>350.5378418</ele>
        <time>2010-09-19T10:03:49Z</time>
      </trkpt>
      <trkpt lat="43.32667" lon="-0.07026">
        <ele>350.057251</ele>
        <time>2010-09-19T10:03:53Z</time>
      </trkpt>
      <trkpt lat="43.32634" lon="-0.07011">
        <ele>344.2894287</ele>
        <time>2010-09-19T10:03:58Z</time>
      </trkpt>
      <trkpt lat="43.32614" lon="-0.07003">
        <ele>341.4052734</ele>
        <time>2010-09-19T10:04:01Z</time>
      </trkpt>
      <trkpt lat="43.32584" lon="-0.06988">
        <ele>339.9633789</ele>
        <time>2010-09-19T10:04:05Z</time>
      </trkpt>
      <trkpt lat="43.3255" lon="-0.06978">
        <ele>339.482666</ele>
        <time>2010-09-19T10:04:10Z</time>
      </trkpt>
      <trkpt lat="43.32533" lon="-0.06977">
        <ele>339.0020752</ele>
        <time>2010-09-19T10:04:13Z</time>
      </trkpt>
      <trkpt lat="43.32519" lon="-0.06963">
        <ele>339.482666</ele>
        <time>2010-09-19T10:04:17Z</time>
      </trkpt>
      <trkpt lat="43.32518" lon="-0.06948">
        <ele>339.9633789</ele>
        <time>2010-09-19T10:04:19Z</time>
      </trkpt>
      <trkpt lat="43.32519" lon="-0.06925">
        <ele>340.9246826</ele>
        <time>2010-09-19T10:04:22Z</time>
      </trkpt>
      <trkpt lat="43.32515" lon="-0.06885">
        <ele>344.2894287</ele>
        <time>2010-09-19T10:04:28Z</time>
      </trkpt>
      <trkpt lat="43.32513" lon="-0.06878">
        <ele>344.2894287</ele>
        <time>2010-09-19T10:04:29Z</time>
      </trkpt>
      <trkpt lat="43.32511" lon="-0.06854">
        <ele>344.7700195</ele>
        <time>2010-09-19T10:04:33Z</time>
      </trkpt>
      <trkpt lat="43.32509" lon="-0.06842">
        <ele>345.2506104</ele>
        <time>2010-09-19T10:04:35Z</time>
      </trkpt>
      <trkpt lat="43.32519" lon="-0.06827">
        <ele>342.84729</ele>
        <time>2010-09-19T10:04:39Z</time>
      </trkpt>
      <trkpt lat="43.3256" lon="-0.06802">
        <ele>349.5765381</ele>
        <time>2010-09-19T10:04:47Z</time>
      </trkpt>
      <trkpt lat="43.32583" lon="-0.06784">
        <ele>349.5765381</ele>
        <time>2010-09-19T10:04:53Z</time>
      </trkpt>
      <trkpt lat="43.326" lon="-0.06773">
        <ele>348.1346436</ele>
        <time>2010-09-19T10:04:58Z</time>
      </trkpt>
      <trkpt lat="43.32617" lon="-0.06764">
        <ele>349.0958252</ele>
        <time>2010-09-19T10:05:03Z</time>
      </trkpt>
      <trkpt lat="43.32634" lon="-0.06757">
        <ele>349.0958252</ele>
        <time>2010-09-19T10:05:08Z</time>
      </trkpt>
      <trkpt lat="43.32658" lon="-0.06743">
        <ele>350.5378418</ele>
        <time>2010-09-19T10:05:15Z</time>
      </trkpt>
      <trkpt lat="43.32678" lon="-0.06733">
        <ele>350.5378418</ele>
        <time>2010-09-19T10:05:20Z</time>
      </trkpt>
      <trkpt lat="43.327" lon="-0.06721">
        <ele>352.9411621</ele>
        <time>2010-09-19T10:05:26Z</time>
      </trkpt>
      <trkpt lat="43.32719" lon="-0.06711">
        <ele>353.9025879</ele>
        <time>2010-09-19T10:05:32Z</time>
      </trkpt>
      <trkpt lat="43.32726" lon="-0.0671">
        <ele>352.4605713</ele>
        <time>2010-09-19T10:05:37Z</time>
      </trkpt>
      <trkpt lat="43.32728" lon="-0.06713">
        <ele>350.5378418</ele>
        <time>2010-09-19T10:05:43Z</time>
      </trkpt>
      <trkpt lat="43.32727" lon="-0.06714">
        <ele>349.5765381</ele>
        <time>2010-09-19T10:05:51Z</time>
      </trkpt>
      <trkpt lat="43.32727" lon="-0.06719">
        <ele>347.6539307</ele>
        <time>2010-09-19T10:05:56Z</time>
      </trkpt>
      <trkpt lat="43.32729" lon="-0.06725">
        <ele>344.2894287</ele>
        <time>2010-09-19T10:06:04Z</time>
      </trkpt>
      <trkpt lat="43.32731" lon="-0.06727">
        <ele>343.8085938</ele>
        <time>2010-09-19T10:06:08Z</time>
      </trkpt>
      <trkpt lat="43.32739" lon="-0.06735">
        <ele>341.4052734</ele>
        <time>2010-09-19T10:06:14Z</time>
      </trkpt>
      <trkpt lat="43.32741" lon="-0.06739">
        <ele>340.4440918</ele>
        <time>2010-09-19T10:06:16Z</time>
      </trkpt>
      <trkpt lat="43.32743" lon="-0.06745">
        <ele>338.0407715</ele>
        <time>2010-09-19T10:06:19Z</time>
      </trkpt>
      <trkpt lat="43.32755" lon="-0.06749">
        <ele>336.1181641</ele>
        <time>2010-09-19T10:06:24Z</time>
      </trkpt>
      <trkpt lat="43.32763" lon="-0.06745">
        <ele>336.1181641</ele>
        <time>2010-09-19T10:06:27Z</time>
      </trkpt>
      <trkpt lat="43.3278" lon="-0.06731">
        <ele>338.5214844</ele>
        <time>2010-09-19T10:06:33Z</time>
      </trkpt>
      <trkpt lat="43.32793" lon="-0.06714">
        <ele>340.4440918</ele>
        <time>2010-09-19T10:06:39Z</time>
      </trkpt>
      <trkpt lat="43.32802" lon="-0.067">
        <ele>341.4052734</ele>
        <time>2010-09-19T10:06:44Z</time>
      </trkpt>
      <trkpt lat="43.32808" lon="-0.06686">
        <ele>342.84729</ele>
        <time>2010-09-19T10:06:49Z</time>
      </trkpt>
      <trkpt lat="43.32822" lon="-0.06681">
        <ele>340.9246826</ele>
        <time>2010-09-19T10:06:54Z</time>
      </trkpt>
      <trkpt lat="43.32849" lon="-0.06682">
        <ele>339.0020752</ele>
        <time>2010-09-19T10:06:59Z</time>
      </trkpt>
      <trkpt lat="43.32853" lon="-0.0668">
        <ele>339.0020752</ele>
        <time>2010-09-19T10:07:00Z</time>
      </trkpt>
      <trkpt lat="43.32879" lon="-0.0667">
        <ele>339.0020752</ele>
        <time>2010-09-19T10:07:05Z</time>
      </trkpt>
      <trkpt lat="43.32897" lon="-0.0666">
        <ele>339.0020752</ele>
        <time>2010-09-19T10:07:09Z</time>
      </trkpt>
      <trkpt lat="43.32921" lon="-0.06651">
        <ele>338.0407715</ele>
        <time>2010-09-19T10:07:14Z</time>
      </trkpt>
      <trkpt lat="43.32945" lon="-0.06632">
        <ele>337.5600586</ele>
        <time>2010-09-19T10:07:19Z</time>
      </trkpt>
      <trkpt lat="43.3297" lon="-0.06615">
        <ele>338.5214844</ele>
        <time>2010-09-19T10:07:25Z</time>
      </trkpt>
      <trkpt lat="43.32994" lon="-0.06605">
        <ele>337.5600586</ele>
        <time>2010-09-19T10:07:30Z</time>
      </trkpt>
      <trkpt lat="43.33011" lon="-0.06595">
        <ele>338.0407715</ele>
        <time>2010-09-19T10:07:33Z</time>
      </trkpt>
      <trkpt lat="43.33036" lon="-0.06582">
        <ele>338.0407715</ele>
        <time>2010-09-19T10:07:38Z</time>
      </trkpt>
      <trkpt lat="43.33047" lon="-0.06578">
        <ele>338.0407715</ele>
        <time>2010-09-19T10:07:40Z</time>
      </trkpt>
      <trkpt lat="43.3308" lon="-0.06569">
        <ele>335.6373291</ele>
        <time>2010-09-19T10:07:45Z</time>
      </trkpt>
      <trkpt lat="43.33091" lon="-0.06561">
        <ele>335.1567383</ele>
        <time>2010-09-19T10:07:47Z</time>
      </trkpt>
      <trkpt lat="43.33102" lon="-0.06551">
        <ele>335.1567383</ele>
        <time>2010-09-19T10:07:49Z</time>
      </trkpt>
      <trkpt lat="43.33116" lon="-0.06534">
        <ele>335.1567383</ele>
        <time>2010-09-19T10:07:52Z</time>
      </trkpt>
      <trkpt lat="43.33136" lon="-0.06524">
        <ele>333.7147217</ele>
        <time>2010-09-19T10:07:56Z</time>
      </trkpt>
      <trkpt lat="43.33146" lon="-0.06536">
        <ele>331.7921143</ele>
        <time>2010-09-19T10:07:59Z</time>
      </trkpt>
      <trkpt lat="43.33147" lon="-0.06543">
        <ele>331.3115234</ele>
        <time>2010-09-19T10:08:00Z</time>
      </trkpt>
      <trkpt lat="43.33158" lon="-0.06596">
        <ele>329.388916</ele>
        <time>2010-09-19T10:08:08Z</time>
      </trkpt>
      <trkpt lat="43.33161" lon="-0.06611">
        <ele>328.9083252</ele>
        <time>2010-09-19T10:08:13Z</time>
      </trkpt>
      <trkpt lat="43.33171" lon="-0.06653">
        <ele>327.9467773</ele>
        <time>2010-09-19T10:08:21Z</time>
      </trkpt>
      <trkpt lat="43.33181" lon="-0.06702">
        <ele>326.9855957</ele>
        <time>2010-09-19T10:08:29Z</time>
      </trkpt>
      <trkpt lat="43.33183" lon="-0.06708">
        <ele>326.9855957</ele>
        <time>2010-09-19T10:08:30Z</time>
      </trkpt>
      <trkpt lat="43.33196" lon="-0.06719">
        <ele>326.5048828</ele>
        <time>2010-09-19T10:08:34Z</time>
      </trkpt>
      <trkpt lat="43.33218" lon="-0.06703">
        <ele>327.9467773</ele>
        <time>2010-09-19T10:08:39Z</time>
      </trkpt>
      <trkpt lat="43.33236" lon="-0.06678">
        <ele>327.4661865</ele>
        <time>2010-09-19T10:08:44Z</time>
      </trkpt>
      <trkpt lat="43.33261" lon="-0.06668">
        <ele>326.0241699</ele>
        <time>2010-09-19T10:08:49Z</time>
      </trkpt>
      <trkpt lat="43.33271" lon="-0.06673">
        <ele>326.5048828</ele>
        <time>2010-09-19T10:08:51Z</time>
      </trkpt>
      <trkpt lat="43.33287" lon="-0.06685">
        <ele>327.4661865</ele>
        <time>2010-09-19T10:08:55Z</time>
      </trkpt>
      <trkpt lat="43.33306" lon="-0.06688">
        <ele>328.9083252</ele>
        <time>2010-09-19T10:09:00Z</time>
      </trkpt>
      <trkpt lat="43.33332" lon="-0.06682">
        <ele>333.7147217</ele>
        <time>2010-09-19T10:09:05Z</time>
      </trkpt>
      <trkpt lat="43.33374" lon="-0.06678">
        <ele>337.5600586</ele>
        <time>2010-09-19T10:09:12Z</time>
      </trkpt>
      <trkpt lat="43.33407" lon="-0.06667">
        <ele>339.0020752</ele>
        <time>2010-09-19T10:09:18Z</time>
      </trkpt>
      <trkpt lat="43.33431" lon="-0.06659">
        <ele>338.0407715</ele>
        <time>2010-09-19T10:09:22Z</time>
      </trkpt>
      <trkpt lat="43.33479" lon="-0.06653">
        <ele>333.2341309</ele>
        <time>2010-09-19T10:09:29Z</time>
      </trkpt>
      <trkpt lat="43.33519" lon="-0.06654">
        <ele>331.3115234</ele>
        <time>2010-09-19T10:09:35Z</time>
      </trkpt>
      <trkpt lat="43.33547" lon="-0.06666">
        <ele>331.7921143</ele>
        <time>2010-09-19T10:09:40Z</time>
      </trkpt>
      <trkpt lat="43.33564" lon="-0.06677">
        <ele>332.2728271</ele>
        <time>2010-09-19T10:09:45Z</time>
      </trkpt>
      <trkpt lat="43.33582" lon="-0.06689">
        <ele>330.8309326</ele>
        <time>2010-09-19T10:09:50Z</time>
      </trkpt>
      <trkpt lat="43.33608" lon="-0.06703">
        <ele>330.8309326</ele>
        <time>2010-09-19T10:09:55Z</time>
      </trkpt>
      <trkpt lat="43.33622" lon="-0.06709">
        <ele>331.3115234</ele>
        <time>2010-09-19T10:09:59Z</time>
      </trkpt>
      <trkpt lat="43.33632" lon="-0.06712">
        <ele>334.1954346</ele>
        <time>2010-09-19T10:10:04Z</time>
      </trkpt>
      <trkpt lat="43.33636" lon="-0.06727">
        <ele>336.1181641</ele>
        <time>2010-09-19T10:10:11Z</time>
      </trkpt>
      <trkpt lat="43.33636" lon="-0.06746">
        <ele>336.1181641</ele>
        <time>2010-09-19T10:10:19Z</time>
      </trkpt>
      <trkpt lat="43.33634" lon="-0.06767">
        <ele>336.1181641</ele>
        <time>2010-09-19T10:10:28Z</time>
      </trkpt>
      <trkpt lat="43.33631" lon="-0.06787">
        <ele>337.5600586</ele>
        <time>2010-09-19T10:10:36Z</time>
      </trkpt>
      <trkpt lat="43.33628" lon="-0.06809">
        <ele>336.1181641</ele>
        <time>2010-09-19T10:10:45Z</time>
      </trkpt>
      <trkpt lat="43.33626" lon="-0.06827">
        <ele>339.0020752</ele>
        <time>2010-09-19T10:10:53Z</time>
      </trkpt>
      <trkpt lat="43.33624" lon="-0.06844">
        <ele>339.482666</ele>
        <time>2010-09-19T10:11:00Z</time>
      </trkpt>
      <trkpt lat="43.33623" lon="-0.06861">
        <ele>338.5214844</ele>
        <time>2010-09-19T10:11:07Z</time>
      </trkpt>
      <trkpt lat="43.33621" lon="-0.06871">
        <ele>339.0020752</ele>
        <time>2010-09-19T10:11:11Z</time>
      </trkpt>
      <trkpt lat="43.33614" lon="-0.06896">
        <ele>340.4440918</ele>
        <time>2010-09-19T10:11:20Z</time>
      </trkpt>
      <trkpt lat="43.33615" lon="-0.06919">
        <ele>342.3666992</ele>
        <time>2010-09-19T10:11:28Z</time>
      </trkpt>
      <trkpt lat="43.33616" lon="-0.06921">
        <ele>343.3278809</ele>
        <time>2010-09-19T10:11:29Z</time>
      </trkpt>
      <trkpt lat="43.33627" lon="-0.0692">
        <ele>349.5765381</ele>
        <time>2010-09-19T10:11:35Z</time>
      </trkpt>
      <trkpt lat="43.33643" lon="-0.06915">
        <ele>352.4605713</ele>
        <time>2010-09-19T10:11:41Z</time>
      </trkpt>
      <trkpt lat="43.3367" lon="-0.06909">
        <ele>353.9025879</ele>
        <time>2010-09-19T10:11:48Z</time>
      </trkpt>
      <trkpt lat="43.3371" lon="-0.06902">
        <ele>356.786377</ele>
        <time>2010-09-19T10:11:57Z</time>
      </trkpt>
      <trkpt lat="43.33758" lon="-0.06895">
        <ele>358.2283936</ele>
        <time>2010-09-19T10:12:07Z</time>
      </trkpt>
      <trkpt lat="43.33777" lon="-0.06889">
        <ele>358.7089844</ele>
        <time>2010-09-19T10:12:11Z</time>
      </trkpt>
      <trkpt lat="43.33793" lon="-0.06899">
        <ele>358.7089844</ele>
        <time>2010-09-19T10:12:15Z</time>
      </trkpt>
      <trkpt lat="43.33796" lon="-0.06911">
        <ele>358.7089844</ele>
        <time>2010-09-19T10:12:17Z</time>
      </trkpt>
      <trkpt lat="43.33806" lon="-0.06979">
        <ele>359.1896973</ele>
        <time>2010-09-19T10:12:28Z</time>
      </trkpt>
      <trkpt lat="43.33813" lon="-0.07018">
        <ele>358.2283936</ele>
        <time>2010-09-19T10:12:34Z</time>
      </trkpt>
      <trkpt lat="43.33823" lon="-0.07027">
        <ele>357.7478027</ele>
        <time>2010-09-19T10:12:37Z</time>
      </trkpt>
      <trkpt lat="43.33832" lon="-0.07023">
        <ele>357.7478027</ele>
        <time>2010-09-19T10:12:39Z</time>
      </trkpt>
      <trkpt lat="43.33878" lon="-0.07009">
        <ele>358.2283936</ele>
        <time>2010-09-19T10:12:48Z</time>
      </trkpt>
      <trkpt lat="43.33914" lon="-0.06996">
        <ele>359.1896973</ele>
        <time>2010-09-19T10:12:55Z</time>
      </trkpt>
      <trkpt lat="43.3397" lon="-0.06976">
        <ele>359.1896973</ele>
        <time>2010-09-19T10:13:05Z</time>
      </trkpt>
      <trkpt lat="43.33988" lon="-0.06969">
        <ele>359.1896973</ele>
        <time>2010-09-19T10:13:08Z</time>
      </trkpt>
      <trkpt lat="43.34003" lon="-0.06977">
        <ele>359.1896973</ele>
        <time>2010-09-19T10:13:12Z</time>
      </trkpt>
      <trkpt lat="43.34005" lon="-0.06982">
        <ele>359.1896973</ele>
        <time>2010-09-19T10:13:13Z</time>
      </trkpt>
      <trkpt lat="43.34019" lon="-0.07025">
        <ele>359.1896973</ele>
        <time>2010-09-19T10:13:21Z</time>
      </trkpt>
      <trkpt lat="43.34039" lon="-0.07049">
        <ele>359.6704102</ele>
        <time>2010-09-19T10:13:27Z</time>
      </trkpt>
      <trkpt lat="43.34043" lon="-0.07051">
        <ele>359.6704102</ele>
        <time>2010-09-19T10:13:28Z</time>
      </trkpt>
      <trkpt lat="43.34078" lon="-0.07072">
        <ele>360.151123</ele>
        <time>2010-09-19T10:13:36Z</time>
      </trkpt>
      <trkpt lat="43.34112" lon="-0.071">
        <ele>360.6317139</ele>
        <time>2010-09-19T10:13:43Z</time>
      </trkpt>
      <trkpt lat="43.34154" lon="-0.07144">
        <ele>360.6317139</ele>
        <time>2010-09-19T10:13:52Z</time>
      </trkpt>
      <trkpt lat="43.34197" lon="-0.07191">
        <ele>359.6704102</ele>
        <time>2010-09-19T10:14:01Z</time>
      </trkpt>
      <trkpt lat="43.3424" lon="-0.07227">
        <ele>358.2283936</ele>
        <time>2010-09-19T10:14:09Z</time>
      </trkpt>
      <trkpt lat="43.34283" lon="-0.07259">
        <ele>356.3057861</ele>
        <time>2010-09-19T10:14:17Z</time>
      </trkpt>
      <trkpt lat="43.3433" lon="-0.07287">
        <ele>355.3444824</ele>
        <time>2010-09-19T10:14:25Z</time>
      </trkpt>
      <trkpt lat="43.34357" lon="-0.07303">
        <ele>354.8637695</ele>
        <time>2010-09-19T10:14:30Z</time>
      </trkpt>
      <trkpt lat="43.34401" lon="-0.07334">
        <ele>351.9798584</ele>
        <time>2010-09-19T10:14:38Z</time>
      </trkpt>
      <trkpt lat="43.34443" lon="-0.07365">
        <ele>351.4991455</ele>
        <time>2010-09-19T10:14:45Z</time>
      </trkpt>
      <trkpt lat="43.34495" lon="-0.07393">
        <ele>350.5378418</ele>
        <time>2010-09-19T10:14:53Z</time>
      </trkpt>
      <trkpt lat="43.34542" lon="-0.07406">
        <ele>350.057251</ele>
        <time>2010-09-19T10:15:00Z</time>
      </trkpt>
      <trkpt lat="43.34564" lon="-0.07416">
        <ele>349.5765381</ele>
        <time>2010-09-19T10:15:04Z</time>
      </trkpt>
      <trkpt lat="43.34576" lon="-0.07436">
        <ele>349.0958252</ele>
        <time>2010-09-19T10:15:08Z</time>
      </trkpt>
      <trkpt lat="43.34576" lon="-0.07442">
        <ele>349.5765381</ele>
        <time>2010-09-19T10:15:09Z</time>
      </trkpt>
      <trkpt lat="43.34572" lon="-0.07496">
        <ele>349.0958252</ele>
        <time>2010-09-19T10:15:16Z</time>
      </trkpt>
      <trkpt lat="43.34563" lon="-0.07557">
        <ele>350.5378418</ele>
        <time>2010-09-19T10:15:24Z</time>
      </trkpt>
      <trkpt lat="43.34553" lon="-0.07604">
        <ele>351.0184326</ele>
        <time>2010-09-19T10:15:31Z</time>
      </trkpt>
      <trkpt lat="43.34546" lon="-0.07652">
        <ele>350.5378418</ele>
        <time>2010-09-19T10:15:39Z</time>
      </trkpt>
      <trkpt lat="43.34538" lon="-0.07705">
        <ele>351.4991455</ele>
        <time>2010-09-19T10:15:48Z</time>
      </trkpt>
      <trkpt lat="43.34526" lon="-0.07777">
        <ele>351.0184326</ele>
        <time>2010-09-19T10:16:00Z</time>
      </trkpt>
      <trkpt lat="43.34518" lon="-0.07827">
        <ele>351.4991455</ele>
        <time>2010-09-19T10:16:08Z</time>
      </trkpt>
      <trkpt lat="43.34513" lon="-0.07863">
        <ele>352.4605713</ele>
        <time>2010-09-19T10:16:14Z</time>
      </trkpt>
    </trkseg>
  </trk>
</gpx>